[[{"header":{"parameterUnit":"m.s-1","parameterCategory":1,"la1":30.6,"la2":29.2853,"lo1":-89.7004,"lo2":-87.6739,"dy":0.0162,"dx":0.0183,"nx":112,"ny":82,"refTime":"2023-09-03T00:00:00:Z","depth":0,"parameterNumber":2,"parameterNumberName":"U-component_of_WINDS"},"data":[0.0,0.0,0.0,0.0,0.0,0.0,0.0,0.0,0.0,0.0,0.0,0.0,0.0,0.0,0.0,0.0,0.0,0.0,0.0,0.0,0.0,0.0,0.0,0.0,0.0,0.0,0.0,0.0,0.0,0.0,0.0,0.0,0.0,0.0,0.0,0.0,0.0,0.0,0.0,0.0,0.0,0.0,0.0,0.0,0.0,0.0,0.0,0.0,0.0,0.0,0.0,0.0,0.0,0.0,0.0,0.0,0.0,0.0,0.0,0.0,0.0,0.0,0.0,0.0,0.0,0.0,0.0,0.0,0.0,0.0,0.0,0.0,0.0,0.0,0.0,0.0,0.0,0.0,0.0,0.0,0.0,0.0,0.0,0.0,0.0,0.0,0.0,0.0,0.0,0.0,-3.119,-3.119,-3.119,-3.119,-3.119,-3.119,-3.1151,-3.0995,0.0,0.0,0.0,0.0,0.0,0.0,0.0,0.0,0.0,0.0,0.0,0.0,0.0,0.0,0.0,0.0,0.0,0.0,0.0,0.0,0.0,0.0,0.0,0.0,0.0,0.0,0.0,0.0,0.0,0.0,0.0,0.0,0.0,0.0,0.0,0.0,0.0,0.0,0.0,0.0,0.0,0.0,0.0,0.0,0.0,0.0,0.0,0.0,0.0,0.0,0.0,0.0,0.0,0.0,0.0,0.0,0.0,0.0,0.0,0.0,0.0,0.0,0.0,0.0,0.0,0.0,0.0,0.0,0.0,0.0,0.0,0.0,0.0,0.0,0.0,0.0,0.0,0.0,0.0,0.0,0.0,0.0,0.0,0.0,0.0,0.0,0.0,0.0,0.0,0.0,0.0,0.0,0.0,0.0,0.0,0.0,0.0,0.0,0.0,0.0,0.0,0.0,0.0,0.0,-3.119,-3.119,-3.119,-3.119,-3.119,-3.119,-3.1151,-3.0995,0.0,0.0,0.0,0.0,0.0,0.0,0.0,0.0,0.0,0.0,0.0,0.0,0.0,0.0,0.0,0.0,0.0,0.0,0.0,0.0,0.0,0.0,0.0,0.0,0.0,0.0,0.0,0.0,0.0,0.0,0.0,0.0,0.0,0.0,0.0,0.0,0.0,0.0,0.0,0.0,0.0,0.0,0.0,0.0,0.0,0.0,0.0,0.0,0.0,0.0,0.0,0.0,0.0,0.0,0.0,0.0,0.0,0.0,0.0,0.0,0.0,0.0,0.0,0.0,0.0,0.0,0.0,0.0,0.0,0.0,0.0,0.0,0.0,0.0,0.0,0.0,0.0,0.0,0.0,0.0,0.0,0.0,0.0,0.0,0.0,0.0,0.0,0.0,0.0,0.0,0.0,0.0,0.0,0.0,0.0,0.0,0.0,0.0,0.0,0.0,0.0,0.0,0.0,-3.119,-3.119,-3.119,-3.119,-3.119,-3.119,-3.119,-3.1131,-3.0972,-3.0952,0.0,0.0,0.0,0.0,0.0,0.0,0.0,0.0,0.0,0.0,0.0,0.0,0.0,0.0,0.0,0.0,0.0,0.0,0.0,0.0,0.0,0.0,0.0,0.0,0.0,0.0,0.0,0.0,0.0,0.0,0.0,0.0,0.0,0.0,0.0,0.0,0.0,0.0,0.0,0.0,0.0,0.0,0.0,0.0,0.0,0.0,0.0,0.0,0.0,0.0,0.0,0.0,0.0,0.0,0.0,0.0,0.0,0.0,0.0,0.0,0.0,0.0,0.0,0.0,0.0,0.0,0.0,0.0,0.0,0.0,0.0,0.0,0.0,0.0,0.0,0.0,0.0,0.0,0.0,0.0,0.0,0.0,0.0,0.0,0.0,0.0,0.0,0.0,0.0,0.0,0.0,0.0,0.0,0.0,0.0,0.0,0.0,0.0,0.0,0.0,0.0,0.0,-3.119,-3.119,-3.119,-3.119,-3.119,-3.119,-3.119,-3.1112,-3.0952,-3.0932,0.0,0.0,0.0,0.0,0.0,0.0,0.0,0.0,0.0,0.0,0.0,0.0,0.0,0.0,0.0,0.0,0.0,0.0,0.0,0.0,0.0,0.0,0.0,0.0,0.0,0.0,0.0,0.0,0.0,0.0,0.0,0.0,0.0,0.0,0.0,0.0,0.0,0.0,0.0,0.0,0.0,0.0,0.0,0.0,0.0,0.0,0.0,0.0,0.0,0.0,0.0,0.0,0.0,0.0,0.0,0.0,0.0,0.0,0.0,0.0,0.0,0.0,0.0,0.0,0.0,0.0,0.0,0.0,0.0,0.0,0.0,0.0,0.0,0.0,0.0,0.0,0.0,0.0,0.0,0.0,0.0,0.0,0.0,0.0,0.0,0.0,0.0,0.0,0.0,0.0,0.0,0.0,0.0,0.0,0.0,0.0,0.0,0.0,0.0,0.0,0.0,0.0,-3.119,-3.119,-3.119,-3.119,-3.119,-3.119,-3.119,-3.1151,-3.0995,-3.0995,0.0,0.0,0.0,0.0,0.0,0.0,0.0,0.0,0.0,0.0,0.0,0.0,0.0,0.0,0.0,0.0,0.0,0.0,0.0,0.0,0.0,0.0,0.0,0.0,0.0,0.0,0.0,0.0,0.0,0.0,0.0,0.0,0.0,0.0,0.0,0.0,0.0,0.0,0.0,0.0,0.0,0.0,0.0,0.0,0.0,0.0,0.0,0.0,0.0,0.0,0.0,0.0,0.0,0.0,0.0,0.0,0.0,0.0,0.0,0.0,0.0,0.0,0.0,0.0,0.0,0.0,0.0,0.0,0.0,0.0,0.0,0.0,0.0,0.0,0.0,0.0,0.0,0.0,0.0,0.0,0.0,0.0,0.0,0.0,0.0,0.0,0.0,0.0,0.0,0.0,0.0,0.0,0.0,0.0,0.0,0.0,0.0,0.0,0.0,0.0,0.0,0.0,-3.119,-3.119,0.0,-3.119,-3.119,-3.119,-3.119,-3.1151,-3.0995,0.0,0.0,0.0,0.0,0.0,0.0,0.0,0.0,0.0,0.0,0.0,0.0,0.0,0.0,0.0,0.0,0.0,0.0,0.0,0.0,0.0,0.0,0.0,0.0,0.0,0.0,0.0,0.0,0.0,0.0,0.0,0.0,0.0,0.0,0.0,0.0,0.0,0.0,0.0,0.0,0.0,0.0,0.0,0.0,0.0,0.0,0.0,0.0,0.0,0.0,0.0,0.0,0.0,0.0,0.0,0.0,0.0,0.0,0.0,0.0,0.0,0.0,0.0,0.0,0.0,0.0,0.0,0.0,0.0,0.0,0.0,0.0,0.0,0.0,0.0,0.0,0.0,0.0,0.0,0.0,0.0,0.0,0.0,0.0,0.0,0.0,0.0,0.0,0.0,0.0,0.0,0.0,0.0,0.0,0.0,0.0,0.0,0.0,0.0,0.0,0.0,0.0,-3.119,-3.119,-3.119,0.0,-3.119,-3.119,-3.119,-3.119,-3.1151,-3.1072,0.0,0.0,0.0,0.0,0.0,0.0,0.0,0.0,0.0,0.0,0.0,0.0,0.0,0.0,0.0,0.0,0.0,0.0,0.0,0.0,0.0,0.0,0.0,0.0,0.0,0.0,0.0,0.0,0.0,0.0,0.0,0.0,0.0,0.0,0.0,0.0,0.0,0.0,0.0,0.0,0.0,0.0,0.0,0.0,0.0,0.0,0.0,0.0,0.0,0.0,0.0,0.0,0.0,0.0,0.0,0.0,0.0,0.0,0.0,0.0,0.0,0.0,0.0,0.0,0.0,0.0,0.0,0.0,0.0,0.0,0.0,0.0,0.0,0.0,0.0,0.0,0.0,0.0,0.0,0.0,0.0,0.0,0.0,0.0,0.0,0.0,0.0,0.0,0.0,0.0,0.0,0.0,0.0,0.0,0.0,0.0,0.0,0.0,0.0,0.0,0.0,0.0,-3.119,-3.119,-3.119,-3.119,-3.119,-3.119,-3.119,-3.119,-3.119,0.0,0.0,0.0,0.0,0.0,0.0,0.0,0.0,0.0,0.0,0.0,0.0,0.0,0.0,0.0,0.0,0.0,0.0,0.0,0.0,0.0,0.0,0.0,0.0,0.0,0.0,0.0,0.0,0.0,0.0,0.0,0.0,0.0,0.0,0.0,0.0,0.0,0.0,0.0,0.0,0.0,0.0,0.0,0.0,0.0,0.0,0.0,0.0,0.0,0.0,0.0,0.0,0.0,0.0,0.0,0.0,0.0,0.0,0.0,0.0,0.0,0.0,0.0,0.0,0.0,0.0,0.0,0.0,0.0,0.0,0.0,0.0,0.0,0.0,0.0,0.0,0.0,0.0,0.0,0.0,0.0,0.0,0.0,0.0,0.0,0.0,0.0,0.0,0.0,0.0,0.0,0.0,0.0,0.0,0.0,0.0,0.0,0.0,0.0,0.0,0.0,0.0,0.0,-3.119,-3.119,-3.119,-3.119,-3.119,-3.119,-3.119,-3.119,-3.119,-3.119,0.0,0.0,0.0,0.0,0.0,0.0,0.0,0.0,0.0,0.0,0.0,0.0,0.0,0.0,0.0,0.0,0.0,0.0,0.0,0.0,0.0,0.0,0.0,0.0,0.0,0.0,0.0,0.0,0.0,0.0,0.0,0.0,0.0,0.0,0.0,0.0,0.0,0.0,0.0,0.0,0.0,0.0,0.0,0.0,0.0,0.0,0.0,0.0,0.0,0.0,0.0,0.0,0.0,0.0,0.0,0.0,0.0,0.0,0.0,0.0,0.0,0.0,0.0,0.0,0.0,0.0,0.0,0.0,0.0,0.0,0.0,0.0,0.0,0.0,0.0,0.0,0.0,0.0,0.0,0.0,0.0,0.0,0.0,0.0,0.0,0.0,0.0,0.0,0.0,0.0,0.0,0.0,0.0,0.0,0.0,0.0,0.0,0.0,0.0,0.0,0.0,0.0,-3.119,-3.119,-3.119,-3.119,-3.119,-3.119,-3.119,-3.119,-3.119,-3.119,0.0,0.0,0.0,0.0,0.0,0.0,0.0,0.0,0.0,0.0,0.0,0.0,0.0,0.0,0.0,0.0,0.0,0.0,0.0,0.0,0.0,0.0,0.0,0.0,0.0,0.0,0.0,0.0,0.0,0.0,0.0,0.0,0.0,0.0,0.0,0.0,0.0,0.0,0.0,0.0,0.0,0.0,0.0,0.0,0.0,0.0,0.0,0.0,0.0,0.0,0.0,0.0,0.0,0.0,0.0,0.0,0.0,0.0,0.0,0.0,0.0,0.0,0.0,0.0,0.0,0.0,0.0,0.0,0.0,0.0,0.0,0.0,0.0,0.0,0.0,0.0,0.0,0.0,0.0,0.0,0.0,0.0,0.0,0.0,0.0,0.0,0.0,0.0,0.0,0.0,0.0,0.0,0.0,0.0,0.0,0.0,0.0,0.0,0.0,0.0,0.0,0.0,-3.119,-3.119,-3.119,-3.119,-3.119,-3.119,-3.119,-3.119,-3.119,-3.119,0.0,0.0,0.0,0.0,0.0,0.0,0.0,0.0,0.0,0.0,0.0,0.0,0.0,0.0,0.0,0.0,0.0,0.0,0.0,0.0,0.0,0.0,0.0,0.0,0.0,0.0,0.0,0.0,0.0,0.0,0.0,0.0,0.0,0.0,0.0,0.0,0.0,0.0,0.0,0.0,0.0,0.0,0.0,0.0,0.0,0.0,0.0,0.0,0.0,0.0,0.0,0.0,0.0,0.0,0.0,0.0,0.0,0.0,0.0,0.0,-3.3815,0.0,0.0,0.0,0.0,0.0,0.0,0.0,0.0,0.0,0.0,0.0,0.0,0.0,0.0,0.0,0.0,0.0,0.0,0.0,0.0,0.0,0.0,0.0,0.0,0.0,0.0,0.0,0.0,0.0,0.0,0.0,0.0,0.0,0.0,0.0,0.0,0.0,0.0,0.0,0.0,0.0,-3.119,-3.119,-3.119,-3.119,-3.119,-3.119,-3.119,-3.119,-3.119,-3.119,-3.119,0.0,0.0,0.0,0.0,0.0,0.0,0.0,0.0,0.0,0.0,0.0,0.0,0.0,0.0,0.0,0.0,0.0,0.0,0.0,0.0,0.0,0.0,0.0,0.0,0.0,0.0,0.0,0.0,0.0,0.0,0.0,0.0,0.0,0.0,0.0,0.0,0.0,0.0,0.0,0.0,0.0,0.0,0.0,0.0,0.0,0.0,0.0,0.0,0.0,0.0,0.0,0.0,0.0,0.0,0.0,0.0,0.0,0.0,0.0,0.0,-3.3815,0.0,0.0,0.0,0.0,0.0,0.0,0.0,0.0,0.0,0.0,0.0,0.0,0.0,0.0,0.0,0.0,0.0,0.0,0.0,0.0,0.0,0.0,0.0,0.0,0.0,0.0,0.0,0.0,0.0,0.0,0.0,0.0,0.0,0.0,0.0,0.0,0.0,0.0,0.0,0.0,-3.119,-3.119,-3.119,-3.119,-3.119,-3.119,-3.119,-3.119,-3.119,-3.119,-3.119,0.0,0.0,0.0,0.0,0.0,0.0,0.0,0.0,0.0,0.0,0.0,0.0,0.0,0.0,0.0,0.0,0.0,0.0,0.0,0.0,0.0,0.0,0.0,0.0,0.0,0.0,0.0,0.0,0.0,0.0,0.0,0.0,0.0,0.0,0.0,0.0,0.0,0.0,0.0,0.0,0.0,0.0,0.0,0.0,0.0,0.0,0.0,0.0,0.0,0.0,0.0,0.0,0.0,-3.467,-3.455,-3.4381,-3.4293,-3.4185,-3.4036,-3.3959,-3.3881,-3.3807,-3.3807,0.0,0.0,0.0,0.0,0.0,0.0,0.0,0.0,0.0,0.0,0.0,0.0,0.0,0.0,0.0,0.0,0.0,0.0,0.0,0.0,0.0,0.0,-3.3534,-3.3534,-3.3386,-3.3114,-3.2621,0.0,0.0,0.0,0.0,0.0,0.0,0.0,0.0,0.0,0.0,0.0,-3.119,-3.119,-3.119,-3.119,-3.119,-3.119,-3.119,-3.119,-3.119,-3.119,-3.119,-3.119,0.0,0.0,0.0,0.0,0.0,0.0,0.0,0.0,0.0,0.0,0.0,0.0,0.0,0.0,0.0,0.0,0.0,0.0,0.0,0.0,0.0,0.0,0.0,0.0,0.0,0.0,0.0,0.0,0.0,0.0,0.0,0.0,-3.6002,-3.5989,0.0,0.0,0.0,0.0,0.0,0.0,0.0,0.0,0.0,0.0,0.0,0.0,0.0,-3.546,-3.5391,-3.5258,-3.5105,-3.4953,-3.4832,-3.4722,-3.4645,-3.4591,-3.4416,-3.4173,-3.4099,0.0,-3.3807,-3.3807,0.0,0.0,0.0,0.0,0.0,0.0,0.0,0.0,0.0,0.0,0.0,0.0,0.0,0.0,0.0,0.0,0.0,0.0,0.0,0.0,0.0,0.0,-3.3671,-3.3671,-3.3545,-3.3433,-3.336,-3.2975,-3.252,-3.2214,-3.1984,-3.1784,0.0,0.0,0.0,0.0,0.0,0.0,-3.119,-3.119,-3.119,-3.119,-3.119,-3.119,-3.119,-3.119,-3.119,-3.119,-3.119,-3.119,-3.119,-3.119,0.0,0.0,0.0,0.0,0.0,0.0,0.0,0.0,0.0,0.0,0.0,0.0,0.0,0.0,0.0,0.0,0.0,0.0,0.0,0.0,0.0,0.0,0.0,0.0,0.0,0.0,0.0,0.0,0.0,-3.5995,-3.599,-3.6005,-3.5956,-3.5892,0.0,0.0,0.0,0.0,0.0,0.0,0.0,0.0,0.0,-3.55,-3.55,-3.546,-3.5405,-3.5293,-3.5223,-3.5166,-3.5062,-3.4992,-3.4908,-3.4811,-3.4639,-3.4427,-3.4305,-3.4173,-3.4011,-3.3855,-3.3807,-3.3807,0.0,0.0,0.0,0.0,-3.3807,-3.3807,-3.3807,-3.3807,-3.3807,-3.3807,0.0,0.0,0.0,0.0,0.0,0.0,0.0,-3.3807,-3.3807,-3.378,-3.3766,-3.3766,-3.3712,-3.3675,-3.3633,-3.3397,-3.3099,-3.2718,-3.242,-3.2179,-3.1966,-3.1747,0.0,0.0,0.0,-3.1252,-3.121,-3.119,-3.119,-3.119,-3.119,-3.119,-3.119,-3.119,-3.119,-3.119,-3.119,-3.119,-3.119,-3.119,-3.119,0.0,0.0,0.0,0.0,0.0,0.0,0.0,0.0,0.0,0.0,0.0,0.0,0.0,0.0,0.0,0.0,0.0,0.0,0.0,0.0,0.0,0.0,0.0,0.0,0.0,0.0,0.0,0.0,-3.5996,-3.5994,-3.5991,-3.5996,-3.5968,0.0,0.0,0.0,0.0,0.0,0.0,-3.5507,-3.55,-3.55,-3.55,-3.55,-3.5486,-3.542,-3.5364,-3.5327,-3.5316,-3.5258,-3.5193,-3.5127,-3.5001,-3.4831,-3.4626,-3.4528,-3.4386,-3.4233,-3.3985,-3.3868,-3.3868,-3.3829,-3.3834,-3.3815,-3.382,-3.3807,-3.3807,-3.3807,-3.3807,-3.3807,-3.3807,-3.3807,-3.3807,-3.3807,0.0,0.0,0.0,0.0,-3.3807,-3.3807,-3.3807,-3.3807,-3.3807,-3.3807,-3.3793,-3.3739,-3.3671,-3.3516,-3.3178,-3.285,-3.2556,-3.2369,-3.2056,0.0,0.0,0.0,-3.1274,-3.121,-3.119,-3.119,-3.119,-3.119,-3.119,-3.119,-3.119,-3.119,-3.119,-3.119,-3.119,-3.119,-3.119,-3.119,-3.119,0.0,0.0,0.0,0.0,0.0,0.0,0.0,0.0,0.0,0.0,0.0,0.0,0.0,0.0,0.0,0.0,0.0,0.0,0.0,0.0,0.0,0.0,0.0,0.0,0.0,0.0,0.0,0.0,0.0,-3.5991,-3.5996,0.0,0.0,0.0,0.0,-3.5618,-3.5595,-3.5566,-3.5507,-3.55,-3.55,-3.55,-3.55,-3.55,-3.55,-3.542,-3.5379,-3.5398,-3.5323,-3.5262,-3.5201,-3.5113,-3.4944,-3.4684,-3.4689,-3.4561,-3.4363,-3.4173,-3.4086,-3.4074,-3.3947,-3.3895,-3.3881,-3.3815,-3.3807,-3.3807,-3.3807,-3.3807,-3.3807,-3.3807,-3.3807,-3.3807,-3.3807,-3.3807,0.0,0.0,-3.3807,-3.3807,-3.3807,-3.3807,-3.3807,-3.3807,-3.3807,-3.3807,-3.3807,-3.3739,-3.3629,-3.3422,-3.3165,-3.2912,-3.2702,0.0,-3.1949,-3.1818,-3.1504,-3.1274,-3.121,-3.119,-3.119,-3.119,-3.119,-3.119,-3.119,-3.119,-3.119,-3.119,-3.119,-3.119,-3.119,-3.119,-3.119,-3.119,-3.119,0.0,0.0,0.0,0.0,0.0,0.0,0.0,0.0,0.0,0.0,0.0,0.0,0.0,0.0,0.0,0.0,0.0,0.0,0.0,0.0,0.0,0.0,0.0,0.0,0.0,0.0,0.0,0.0,-3.5994,-3.6005,0.0,-3.5907,-3.5833,-3.5736,-3.5618,-3.5558,-3.5522,-3.55,-3.5981,-3.6269,-3.6269,-3.6815,-3.7103,-3.7103,-3.7089,-3.7062,-3.7062,-3.7048,-3.6999,-3.6945,-3.6905,-3.6795,-3.6624,-3.6635,-3.6568,-3.6403,-3.574,-3.4967,-3.4221,-3.4136,-3.4074,-3.4023,-3.3895,-3.3855,-3.3873,-3.3802,-3.3807,-3.3807,-3.3807,-3.3807,-3.3807,-3.3807,-3.3807,-3.3807,-3.3807,-3.3807,-3.3807,-3.3807,-3.3807,-3.3807,-3.3807,-3.3807,-3.3807,-3.3807,-3.378,-3.3739,-3.3671,-3.3491,-3.3253,-3.3068,-3.27,-3.2369,-3.2109,-3.1747,-3.1447,-3.1274,-3.123,-3.119,-3.119,-3.119,-3.119,-3.119,-3.119,-3.119,-3.119,-3.119,-3.119,-3.119,-3.119,-3.119,-3.119,-3.119,-3.119,0.0,0.0,0.0,0.0,0.0,0.0,0.0,0.0,0.0,0.0,0.0,0.0,0.0,0.0,0.0,0.0,0.0,0.0,0.0,0.0,0.0,0.0,0.0,0.0,0.0,0.0,-3.5996,-3.5994,-3.6007,-3.597,-3.5907,-3.6105,-3.6187,-3.6043,-3.6247,-3.6369,-3.6334,-3.6846,-3.7142,-3.7142,-3.77,-3.8007,-3.8007,-3.8007,-3.8007,-3.8007,-3.8007,-3.7966,-3.789,-3.7905,-3.7838,-3.7736,-3.7729,-3.7695,-3.7593,-3.6967,-3.6215,-3.5378,-3.4633,-3.4293,-3.4221,-3.4086,-3.4011,-3.3947,-3.3855,-3.3829,-3.3815,-3.382,-3.3807,-3.3807,-3.3807,-3.3807,-3.3807,-3.3807,-3.3807,-3.3807,-3.3807,-3.3807,-3.3807,-3.3807,-3.3807,-3.3807,-3.3807,-3.3807,-3.3807,-3.3807,-3.3671,-3.352,-3.3327,-3.3021,-3.2703,-3.2353,-3.1966,-3.1617,-3.1406,-3.1291,-3.123,-3.121,-3.119,-3.119,-3.119,-3.119,-3.119,-3.119,-3.119,-3.119,-3.119,-3.119,-3.119,-3.119,-3.119,-3.119,-3.119,0.0,0.0,0.0,0.0,0.0,0.0,0.0,0.0,0.0,0.0,0.0,0.0,0.0,0.0,0.0,0.0,0.0,0.0,0.0,0.0,0.0,0.0,0.0,-3.5996,-3.5996,-3.6015,-3.6031,-3.604,-3.6019,-3.5994,-3.6685,-3.708,-3.6947,-3.7655,-3.8073,-3.7995,-3.8027,-3.8046,-3.8046,-3.8065,-3.8084,-3.8084,-3.8084,-3.8084,-3.8084,-3.8084,-3.8043,-3.7974,-3.7974,-3.7955,-3.7882,-3.7882,-3.7857,-3.7785,-3.7757,-3.7759,-3.7535,-3.5488,-3.4628,-3.4544,-3.4389,-3.424,-3.4086,-3.3959,-3.3908,-3.3895,-3.3815,-3.382,-3.3788,-3.3788,-3.3807,-3.3807,-3.3807,-3.3807,-3.3807,-3.3807,-3.3807,-3.3807,-3.3807,-3.3807,-3.3807,-3.3807,-3.3807,-3.3807,-3.3807,-3.3753,-3.3657,-3.352,-3.3223,-3.2898,-3.2557,-3.2179,0.0,-3.1538,-3.1406,-3.1293,-3.123,-3.121,-3.121,-3.121,-3.119,-3.119,-3.119,-3.119,-3.119,-3.119,-3.119,-3.119,-3.119,-3.119,-3.119,-3.119,0.0,0.0,0.0,0.0,0.0,0.0,0.0,0.0,0.0,0.0,0.0,0.0,0.0,0.0,0.0,0.0,0.0,0.0,0.0,0.0,0.0,0.0,-3.5996,-3.5996,-3.5996,-3.623,-3.6873,-3.6944,-3.716,-3.7725,-3.7902,-3.7938,-3.7848,-3.8009,-3.8064,-3.7988,-3.8604,-3.8931,-3.8931,-3.9515,-3.9804,-3.9804,-3.9804,-3.9804,-3.9804,-3.9804,-3.9796,-3.9788,-3.9788,-3.9773,-3.9757,-3.9757,-3.9749,-3.9684,-3.9057,-3.8791,-3.8654,-3.7253,-3.6308,-3.5689,-3.5469,-3.4902,-3.4245,-3.4209,-3.4124,-3.4049,-3.4023,-3.3947,-3.3868,-3.3868,-3.3829,-3.3807,-3.3807,-3.3807,-3.3807,-3.3807,-3.3807,-3.3807,-3.3807,-3.3807,-3.3807,-3.3807,-3.3807,-3.3807,-3.3807,-3.3793,-3.3753,-3.3657,-3.3448,-3.3196,-3.2914,-3.2488,0.0,-3.1947,-3.1691,-3.1504,-3.1485,-3.1351,-3.1274,-3.1274,-3.123,-3.119,-3.119,-3.119,-3.119,-3.119,-3.119,-3.119,-3.119,-3.119,-3.119,0.0,0.0,0.0,0.0,0.0,0.0,0.0,0.0,0.0,0.0,0.0,0.0,0.0,0.0,0.0,0.0,0.0,0.0,0.0,0.0,0.0,0.0,-3.6543,-3.668,-3.7031,-3.6777,-3.6875,-3.7733,-3.7846,-3.8029,-3.8467,-3.8738,-3.8866,-3.8794,-3.9372,-3.9695,-3.9634,-4.0423,-4.0897,-4.0893,-4.1354,-4.1593,-4.1593,-4.1593,-4.1593,-4.1593,-4.1593,-4.1593,-4.1593,-4.1593,-4.1593,-4.1574,-4.12,-4.1046,-4.0989,-4.0108,-3.9735,-3.9596,0.0,0.0,0.0,0.0,-3.5894,-3.5071,-3.4971,-3.4654,-3.4293,-3.4209,-3.4111,-3.4023,-3.3998,-3.3908,-3.3842,-3.3842,-3.3815,-3.3807,-3.3807,-3.3807,-3.3807,-3.3807,-3.3807,-3.3807,-3.3807,-3.3807,-3.3807,-3.3807,-3.3807,0.0,-3.3753,-3.3605,-3.339,-3.3114,-3.2816,-3.2505,-3.2301,-3.2055,-3.184,-3.1747,-3.1598,-3.1485,-3.143,-3.1312,0.0,0.0,0.0,-3.119,-3.119,-3.119,0.0,0.0,0.0,-3.119,-3.119,-3.119,0.0,0.0,-3.119,-3.119,0.0,0.0,0.0,0.0,0.0,0.0,0.0,0.0,0.0,0.0,0.0,0.0,0.0,0.0,0.0,0.0,-3.7441,-3.7754,-3.8613,-3.8164,-3.7988,-3.8671,-3.8825,-3.8897,-3.8936,-3.9663,-4.0107,-4.0039,-4.1355,-4.2138,-4.2063,0.0,0.0,0.0,0.0,-4.3104,-4.3104,-4.3104,-4.3104,-4.3104,-4.3104,-4.3104,-4.3104,-4.3104,-4.3104,-4.3066,-4.2277,-4.1942,-4.1893,-4.1104,-4.0746,-4.0462,-3.8668,-3.7915,-3.7816,-3.7547,-3.6986,-3.634,-3.6098,0.0,0.0,-3.46,-3.4447,-3.4345,-3.4191,-3.4049,-3.3934,-3.3921,-3.3868,-3.382,-3.382,-3.382,-3.3807,-3.3807,-3.3807,-3.3807,-3.3807,-3.3807,-3.3807,-3.3807,-3.3807,-3.3807,-3.3807,-3.3698,-3.353,-3.328,-3.3129,-3.293,-3.2623,-3.2455,-3.2266,-3.2038,0.0,0.0,-3.1673,-3.1485,-3.1353,-3.1334,-3.1252,-3.121,-3.119,-3.119,-3.119,-3.119,-3.119,-3.119,-3.119,-3.119,-3.119,-3.119,-3.119,-3.119,0.0,0.0,0.0,0.0,0.0,0.0,0.0,0.0,0.0,0.0,0.0,0.0,0.0,0.0,0.0,-3.832,-3.8359,-3.8652,-3.9531,-4.0117,-4.0254,-3.9707,-4.0214,-4.0894,-4.1586,-4.236,-4.2821,-4.2743,-4.2986,-4.3094,-4.304,-4.3125,-4.3169,-4.3103,-4.3102,-4.3104,-4.3104,-4.3104,-4.3104,-4.3104,0.0,0.0,-4.3104,-4.3104,-4.3104,-4.3085,-4.2912,-4.2854,-4.2835,-4.2662,-4.2181,-4.1365,-3.9626,-3.889,-3.8738,-3.7995,-3.7599,-3.7394,-3.7357,-3.7128,-3.6744,-3.6051,-3.5679,-3.536,-3.4637,-3.4293,0.0,-3.4074,-3.3972,-3.3868,-3.3868,-3.3829,-3.3807,-3.3807,-3.3807,-3.3807,-3.3807,-3.3807,-3.3807,-3.3807,-3.3807,-3.3807,-3.3807,-3.3739,-3.3643,-3.353,-3.3404,-3.3256,-3.3083,-3.2844,-3.2682,-3.2617,-3.2369,-3.2162,-3.2091,-3.1839,-3.1671,-3.1542,-3.1389,-3.1271,-3.121,-3.119,-3.119,-3.119,-3.119,-3.119,-3.119,-3.119,-3.119,-3.119,-3.119,-3.119,0.0,0.0,0.0,0.0,0.0,0.0,0.0,0.0,0.0,0.0,0.0,-3.8463,0.0,0.0,-3.8747,-3.918,-3.9258,-3.9707,-4.0976,-4.1523,-4.1641,-4.1191,-4.1894,-4.2577,-4.3002,-4.3402,-4.3613,-4.3559,-4.3899,-4.4074,-4.3993,-4.4344,-4.4522,-4.4445,-4.4442,-4.4454,-4.4454,-4.445,-4.4461,-4.4461,-4.4413,-4.4397,-4.4388,-4.4372,-4.4355,-4.4335,-4.3893,-4.3701,-4.3662,-4.3278,-4.2835,-4.2308,-4.1003,-4.021,-3.9747,-3.9301,-3.8854,-3.8448,-3.8397,-3.8048,-3.7527,-3.7081,-3.6805,-3.6558,-3.609,-3.5514,-3.4983,-3.4925,-3.4506,-3.4086,-3.4023,-3.3972,-3.3934,-3.3855,-3.3842,-3.3829,-3.382,-3.3807,-3.3807,-3.3807,-3.3807,-3.3807,-3.3807,-3.378,-3.3726,-3.3657,-3.3591,-3.3506,-3.3371,-3.3235,-3.3111,-3.3001,-3.2782,-3.2603,-3.2503,-3.2127,-3.1803,-3.1617,-3.1466,-3.1404,-3.1363,-3.1291,-3.1252,-3.1252,-3.123,-3.119,-3.119,-3.119,-3.119,-3.119,-3.119,-3.119,0.0,0.0,0.0,0.0,0.0,0.0,0.0,0.0,-3.8916,-3.8915,-3.898,-3.9027,-3.9077,-3.9099,-3.9374,-4.0234,-4.0391,-4.0918,-4.2441,-4.2793,-4.291,-4.291,-4.3535,-4.3945,-4.3944,-4.4118,-4.4188,-4.4138,-4.4713,-4.5048,-4.4982,-4.5576,-4.5892,-4.5848,-4.5834,-4.5827,-4.5827,-4.5819,-4.5817,-4.5829,-4.5754,-4.5706,-4.569,-4.5648,-4.5603,-4.5556,-4.4855,-4.4547,-4.4489,-4.3662,-4.3335,-4.3258,-4.2393,-4.1527,-4.0739,-4.0572,-4.0057,-3.9442,-3.9388,-3.8922,-3.8293,-3.8053,-3.7907,-3.7776,-3.7538,-3.6847,-3.6128,-3.6043,-3.5338,-3.457,-3.4456,-3.4284,-3.4111,-3.3985,-3.3947,-3.3908,-3.3847,-3.3815,-3.382,-3.3788,-3.3807,-3.3807,-3.3807,-3.3807,-3.378,-3.3726,-3.3726,-3.3671,-3.3577,-3.3549,-3.3477,-3.3309,-3.3175,-3.3037,-3.2844,-3.2419,-3.202,-3.173,-3.1653,-3.1612,-3.1574,-3.1428,-3.1353,-3.1353,-3.1291,-3.1249,-3.1249,-3.123,-3.123,-3.123,-3.121,-3.119,-4.0227,-4.0227,0.0,-4.0227,-4.0309,-4.0424,0.0,0.0,-4.0727,-4.0791,-4.0806,-4.0808,-4.0817,-4.0818,-4.1112,-4.1973,-4.2129,-4.2461,-4.3418,-4.4219,-4.4707,-4.4707,-4.4805,-4.4844,-4.4842,-4.5545,-4.601,-4.5998,-4.6039,-4.603,-4.6034,-4.6,-4.5993,-4.598,-4.5929,-4.5899,-4.5899,-4.5893,-4.5899,-4.5886,-4.5826,-4.5769,-4.57,-4.569,-4.5648,-4.5594,-4.5498,-4.546,-4.5383,-4.4509,-4.4162,-4.4085,-4.3278,-4.2431,-4.1566,-4.0796,-4.0431,-4.0354,-4.0346,-4.0276,-4.0071,-3.9295,-3.8988,-3.8769,-3.7922,-3.7499,-3.7308,-3.7239,-3.6438,-3.5631,-3.5601,-3.4951,-3.4257,-3.4185,-3.4124,-3.4049,-3.3908,-3.3881,-3.3868,-3.382,-3.3807,-3.3807,-3.3807,-3.3807,-3.3807,-3.3793,-3.3793,-3.3793,-3.378,-3.3712,-3.3671,-3.3643,-3.3516,-3.3331,-3.3006,-3.275,-3.2487,-3.2162,-3.2055,-3.1947,-3.1781,-3.1653,-3.156,-3.156,-3.15,-3.146,-3.146,-3.1349,-3.1276,-3.1293,-3.123,-3.119,-4.0496,0.0,0.0,0.0,-4.0598,-4.0713,-4.0782,-4.0902,-4.1013,-4.1086,-4.1109,-4.1108,-4.1091,-4.1503,-4.1972,0.0,-4.2832,-4.3457,-4.4336,-4.4766,-4.5195,-4.5703,-4.5762,-4.5762,-4.5761,-4.6093,-4.6307,-4.6303,-4.6276,-4.6245,-4.6204,-4.6153,-4.6125,-4.6126,-4.6088,-4.608,-4.608,-4.6035,-4.6027,-4.6017,-4.5902,-4.5841,-4.5831,-4.5785,-4.5722,-4.5657,-4.5657,-4.564,-4.5575,-4.521,-4.5056,-4.4979,-4.4124,-4.3585,-4.3085,-4.1758,-4.0931,-4.0496,-4.0496,-4.05,-4.0446,-4.0088,-3.9945,-3.9838,-3.9457,-3.892,-3.8421,-3.8356,-3.7633,-3.688,-3.6759,-3.6071,-3.5354,-3.5158,-3.471,-3.4281,-3.4111,-3.4011,-3.3934,-3.3868,-3.3834,-3.3807,-3.3807,-3.3807,-3.3807,-3.3807,-3.3807,-3.3807,-3.3807,-3.378,-3.3739,-3.3698,-3.3643,-3.3473,-3.3144,-3.3006,-3.2816,-3.2504,-3.242,-3.2353,-3.2266,-3.2091,-3.2002,-3.2002,-3.182,-3.1746,-3.1746,-3.156,-3.1447,-3.1406,-3.131,-3.1232,-4.0496,0.0,0.0,-4.0496,-4.0598,-4.0713,-4.0751,-4.0873,-4.0987,-4.1056,-4.1085,-4.1165,-4.1401,-4.1971,-4.2558,-4.3047,-4.3652,-4.4355,-4.5234,-4.5351,-4.5586,-4.6211,-4.6308,-4.6308,-4.6308,-4.6308,-4.6308,-4.6308,-4.6305,-4.6281,-4.6233,-4.6222,-4.6232,-4.6223,-4.6201,-4.6199,-4.6199,-4.6159,-4.6138,-4.6134,-4.6017,-4.5942,-4.5931,-4.5859,-4.5792,-4.5734,-4.5706,-4.5673,-4.5631,-4.5614,-4.5594,-4.5537,-4.4921,-4.4509,-4.4143,-4.2951,-4.1797,-4.0854,-4.0854,-4.0708,-4.0496,-4.0496,-4.0492,-4.0507,-4.0507,-4.0035,-3.9489,-3.9435,-3.876,-3.8048,-3.7919,-3.7243,-3.6492,-3.6006,-3.541,-3.4813,-3.4384,-3.4197,-3.4086,-3.3972,-3.3908,-3.3868,-3.3829,-3.3834,-3.3815,-3.3788,-3.3807,-3.3807,-3.3807,-3.3807,-3.378,-3.3739,-3.3726,-3.3629,-3.3368,-3.3283,-3.3147,-3.2912,-3.2816,-3.2752,-3.2753,-3.2537,-3.2437,-3.2437,-3.2197,-3.2073,-3.2073,-3.1858,-3.171,-3.1614,-3.1447,-3.1332,0.0,0.0,-4.0496,-4.0496,-4.0598,-4.0707,-4.0707,-4.0815,-4.0929,-4.0987,-4.105,-4.1355,-4.2191,-4.2389,-4.2958,-4.4646,-4.494,-4.5253,-4.6133,-4.6269,-4.6269,-4.6308,-4.6308,-4.6308,0.0,-4.6308,-4.6308,-4.6308,-4.6308,-4.6307,-4.6306,-4.6299,-4.6293,-4.6293,-4.6225,-4.6202,-4.6202,-4.62,-4.6191,-4.6206,-4.6135,-4.6064,-4.5993,-4.5937,-4.5859,-4.5781,-4.5723,-4.5703,-4.5693,-4.5631,-4.5594,-4.5594,-4.5575,-4.5037,-4.4297,-4.4239,-4.3181,-4.175,-4.175,-4.12,-4.0496,-4.0496,-4.0496,-4.0496,-4.0496,-4.0476,-4.0463,-4.0463,-3.9791,-3.9072,-3.9044,-3.836,-3.7412,-3.6426,-3.6112,-3.5754,-3.4719,-3.4439,-3.4328,-3.4136,-3.4099,-3.4049,-3.3921,-3.3895,-3.3868,-3.382,-3.3807,-3.3807,-3.3807,-3.3807,-3.3807,-3.3807,-3.3807,-3.3766,-3.3684,-3.3615,-3.352,-3.3378,-3.3253,-3.3144,-3.3086,-3.2894,-3.2779,-3.2779,-3.2654,-3.2539,-3.2473,-3.2284,-3.2073,-3.1876,-3.1691,-3.1485,-4.0496,0.0,-4.0496,-4.0496,-4.0561,-4.0639,-4.0641,-4.0748,-4.0835,-4.0863,-4.0963,-4.112,-4.1413,-4.2448,-4.3441,-4.4038,-4.5114,-4.5956,-4.6269,-4.6308,-4.6308,-4.6308,-4.6308,0.0,0.0,0.0,0.0,-4.6308,-4.6308,-4.6308,-4.6308,-4.6307,-4.6307,-4.6307,-4.6286,-4.6266,-4.6266,-4.6264,-4.6279,-4.6269,-4.6206,-4.6134,-4.6067,-4.5998,-4.5922,-4.5854,-4.5793,-4.5731,-4.5693,-4.5631,-4.5594,-4.5594,-4.5594,-4.5421,-4.5171,-4.5171,-4.4432,-4.3297,-4.22,-4.1604,-4.1277,-4.0689,-4.0496,-4.0496,-4.0496,-4.0508,-4.0492,-4.0492,-4.0265,-4.0021,-4.0027,-3.9369,-3.8608,-3.8226,-3.7193,-3.6178,-3.5731,-3.5097,-3.458,-3.4461,-3.4316,-3.4209,-3.4111,-3.4061,-3.3998,-3.3881,-3.3815,-3.3807,-3.3807,-3.3807,-3.3807,-3.3807,-3.3807,-3.378,-3.3712,-3.3671,-3.3633,-3.3534,-3.3506,-3.3459,-3.343,-3.3309,-3.3265,-3.3265,-3.3083,-3.2959,-3.2898,-3.2702,-3.2487,-3.2284,-3.2091,-3.1894,-4.0496,-4.0496,-4.0496,-4.0496,-4.0539,-4.0595,-4.0605,-4.0681,-4.0767,-4.0757,-4.0859,-4.1031,-4.1367,-4.2382,-4.3372,-4.4068,-4.5091,-4.5935,-4.6269,-4.6308,-4.6308,-4.6308,-4.6308,-4.6308,0.0,0.0,0.0,-4.6308,-4.6308,-4.6308,-4.6308,-4.6308,-4.6308,-4.6308,-4.6308,-4.6308,-4.6308,-4.6308,-4.6306,-4.6301,-4.6255,-4.6201,-4.6131,-4.6099,-4.6026,-4.5966,-4.5886,-4.5807,-4.5762,-4.5673,-4.564,-4.5631,-4.5622,-4.5594,-4.5594,-4.5594,-4.5248,-4.4566,-4.3181,-4.2297,-4.1712,-4.1143,-4.0746,-4.0496,-4.0496,-4.0496,-4.0496,-4.0496,-4.0496,-4.0508,-4.0495,-4.0073,-3.9576,-3.9216,-3.8229,-3.7177,-3.647,-3.578,-3.519,-3.4787,-3.4596,-3.4487,-3.4363,-3.4221,-3.4099,-3.3985,-3.3895,-3.3834,-3.3788,-3.3807,-3.3807,-3.3807,-3.3807,-3.3793,-3.3739,-3.3739,-3.3712,-3.3671,-3.3671,-3.3671,-3.3671,-3.3619,-3.3577,-3.3577,-3.343,-3.3313,-3.3238,-3.3083,-3.2896,-3.2672,-3.2505,-3.2283,-4.0496,-4.0496,-4.0496,-4.0496,-4.0539,-4.0588,-4.0588,-4.0639,-4.0681,-4.0681,-4.0751,-4.1067,0.0,-4.217,-4.2792,-4.4575,-4.4943,-4.5285,-4.6113,-4.6269,-4.6308,0.0,0.0,0.0,0.0,0.0,0.0,-4.6308,0.0,-4.6308,-4.6308,-4.6308,-4.6308,-4.6308,-4.6308,-4.6308,-4.6308,-4.6308,-4.6308,-4.6302,-4.6296,-4.6267,-4.6208,-4.6216,-4.6167,-4.6107,-4.5954,-4.5904,-4.5886,-4.5754,-4.5701,-4.5693,-4.5631,-4.5594,-4.5594,-4.5594,-4.5594,-4.5479,-4.4643,-4.3297,-4.1904,-4.1827,-4.1239,-4.0554,-4.0516,-4.0496,-4.0496,-4.0496,-4.0496,-4.0496,-4.0496,-4.0496,-4.0296,-3.9469,-3.918,-3.8651,-3.699,-3.6511,-3.6117,-3.5164,-3.4936,-3.4831,-3.4647,-3.4404,-3.4197,-3.4136,-3.3998,-3.3881,-3.3802,-3.3788,-3.3807,-3.3807,-3.3807,-3.3807,-3.3807,-3.3807,-3.3807,-3.3807,-3.3807,-3.3807,-3.3807,-3.3739,-3.3712,-3.3712,-3.3629,-3.3577,-3.3506,-3.3452,-3.3271,-3.3021,-3.2892,-3.2651,-4.0496,-4.0496,-4.0496,-4.0496,-4.0504,-4.0531,-4.0531,-4.058,-4.0636,-4.0631,-4.068,-4.0816,0.0,-4.1733,-4.2381,-4.2963,-4.4159,0.0,-4.5293,-4.5898,0.0,-4.6308,0.0,-4.6308,-4.6308,-4.6308,0.0,0.0,-4.6308,-4.6308,-4.6308,-4.6308,-4.6308,-4.6308,-4.6308,-4.6308,-4.6308,-4.6308,-4.6308,-4.6306,-4.6305,-4.6283,-4.6276,-4.6261,-4.6236,-4.6167,-4.6026,-4.5944,-4.5886,-4.5765,-4.5687,-4.5693,-4.5631,-4.5594,-4.5594,-4.5594,-4.5594,-4.5575,-4.5344,-4.4566,-4.3451,-4.222,-4.1662,-4.1354,-4.0708,-4.0496,-4.0496,-4.0496,-4.0496,-4.0496,-4.0496,-4.0496,-4.0439,-4.0212,-3.9661,-3.9053,-3.8607,-3.7431,-3.6408,-3.6137,-3.5482,-3.4936,-3.485,-3.4628,-3.4484,-3.4416,-3.4245,-3.4061,-3.3895,-3.3815,-3.3807,-3.3807,-3.3807,-3.3807,-3.3807,-3.3807,-3.3807,-3.3807,-3.3807,-3.3807,-3.3807,-3.3793,-3.378,-3.378,-3.3766,-3.3712,-3.3643,-3.3629,-3.3549,-3.3375,-3.3286,-3.3147,-4.0496,-4.0496,-4.0496,-4.0496,-4.0496,-4.0496,-4.0496,-4.0531,-4.0565,-4.0565,-4.0603,0.0,-4.0745,-4.1211,0.0,0.0,0.0,0.0,-4.494,-4.5742,-4.6308,0.0,-4.6308,0.0,-4.6308,-4.6308,-4.6308,0.0,-4.6308,-4.6308,-4.6308,-4.6308,-4.6308,-4.6308,-4.6308,-4.6308,-4.6308,-4.6308,-4.6308,-4.6308,-4.6308,-4.6307,-4.6306,-4.6301,-4.6285,-4.6238,-4.6137,-4.6056,-4.5978,-4.5847,-4.5773,-4.573,-4.5665,-4.5631,-4.5594,-4.5594,-4.5594,-4.5594,-4.5594,-4.5287,-4.4643,-4.3335,-4.2412,-4.1712,-4.1219,-4.0804,-4.0496,-4.0496,-4.0496,-4.0496,-4.0496,-4.0496,-4.0496,-4.0496,-4.0135,-3.9677,-3.9331,-3.8447,-3.7506,-3.6734,-3.5799,-3.5108,-3.5046,-3.4889,-3.474,-3.4639,-3.4465,-3.4269,-3.4099,-3.3934,-3.3829,-3.3788,-3.3807,-3.3807,-3.3807,-3.3807,-3.3807,-3.3807,-3.3807,-3.3807,-3.3807,-3.3807,-3.3807,-3.3807,-3.3807,-3.378,-3.3739,-3.3739,-3.3684,-3.3591,-3.3549,-3.3462,-4.0496,-4.0496,-4.0496,-4.0496,-4.0496,-4.0496,-4.0496,-4.0496,-4.0496,-4.0496,0.0,-4.0534,-4.068,-4.0738,-4.1092,-4.1971,0.0,-4.3829,-4.4703,-4.5585,-4.6172,-4.6289,-4.6308,-4.6308,-4.6308,-4.6308,-4.6308,-4.6308,-4.6308,-4.6308,-4.6308,-4.6308,-4.6308,-4.6308,-4.6308,-4.6308,-4.6308,-4.6308,-4.6308,-4.6308,-4.6308,-4.6308,-4.6308,-4.6308,-4.6303,-4.6291,-4.6233,-4.616,-4.6093,-4.596,-4.588,-4.5803,-4.5738,-4.5673,-4.564,-4.5622,-4.5603,-4.5603,-4.5594,-4.5594,-4.546,-4.4586,-4.3316,-4.2077,-4.1865,-4.1277,-4.065,-4.0535,-4.0496,-4.0496,-4.0496,-4.0496,-4.0496,-4.0496,-4.0496,-4.0304,-3.9611,-3.9284,-3.8654,-3.7021,-3.5956,-3.5293,-3.5234,-3.5126,-3.4992,-3.487,-3.468,-3.4498,-3.4363,-3.4099,-3.3895,-3.3815,-3.3802,-3.382,-3.3807,-3.3807,-3.3807,-3.3807,-3.3807,-3.3807,-3.3807,-3.3807,-3.3807,-3.3807,-3.3807,-3.3807,-3.3807,-3.3807,-3.378,-3.3712,-3.3712,-3.3643,-4.0496,-4.0496,-4.0496,-4.0496,-4.0496,-4.0496,-4.0496,-4.0496,0.0,0.0,0.0,-4.0534,-4.068,-4.0758,0.0,-4.119,0.0,0.0,0.0,0.0,-4.5487,0.0,0.0,0.0,0.0,0.0,0.0,0.0,0.0,-4.6308,-4.6308,-4.6308,-4.6308,-4.6308,-4.6308,-4.6308,-4.6308,-4.6308,-4.6308,-4.6308,-4.6308,-4.6308,-4.6308,-4.6308,-4.6303,-4.6293,-4.6232,0.0,-4.6099,-4.6017,-4.5941,-4.5874,-4.581,-4.5785,-4.577,-4.5698,-4.5693,-4.5665,-4.5622,-4.5594,-4.546,-4.4586,-4.4105,-4.3605,-4.222,-4.1692,-4.1431,-4.0708,-4.0496,-4.0496,-4.0496,-4.0496,-4.0496,-4.0496,-4.0496,-4.0458,-4.0323,-3.92,-3.793,-3.6897,-3.5996,-3.5383,-3.5376,-3.5308,-3.5193,-3.507,-3.4982,-3.484,-3.4655,-3.4293,-3.4023,-3.3895,-3.3881,-3.3855,-3.3788,-3.3807,-3.3807,-3.3807,-3.3807,-3.3807,-3.3807,-3.3807,-3.3807,-3.3807,-3.3807,-3.3807,-3.3807,-3.3807,-3.3775,-3.3793,-3.3793,-3.378,-4.0496,-4.0496,-4.0496,-4.0496,-4.0496,-4.0496,-4.0496,0.0,0.0,0.0,-4.0496,-4.0539,-4.0631,0.0,0.0,0.0,0.0,0.0,0.0,0.0,0.0,0.0,0.0,0.0,0.0,0.0,0.0,0.0,0.0,-4.6308,-4.6308,-4.6308,-4.6308,-4.6308,-4.6308,-4.6308,-4.6308,-4.6308,-4.6308,-4.6308,-4.6308,-4.6308,-4.6308,-4.6308,-4.6307,-4.6301,-4.6273,-4.621,-4.6144,-4.6119,-4.6036,-4.5956,-4.5917,-4.5874,-4.5845,-4.5822,-4.5785,-4.5746,-4.5722,-4.569,-4.5571,-4.5167,-4.4707,-4.4143,-4.3335,-4.2489,-4.1712,-4.1296,-4.0854,-4.0496,-4.0496,-4.0496,-4.0496,-4.0496,-4.0496,-4.0496,-4.0496,-3.9534,-3.8411,-3.7546,-3.6659,-3.5933,-3.5511,-3.541,-3.5312,-3.5211,-3.5149,-3.5037,-3.4879,-3.466,-3.4401,-3.4099,-3.4023,-3.3959,-3.3855,-3.3842,-3.3847,-3.3788,-3.3807,-3.3807,-3.3807,-3.3807,-3.3807,-3.3807,-3.3807,-3.3807,-3.3807,-3.3807,-3.3807,-3.3807,-3.3807,-3.3807,-4.0496,-4.0496,-4.0496,-4.0496,-4.0496,-4.0496,-4.0496,-4.0496,0.0,0.0,-4.0496,-4.0523,-4.058,0.0,0.0,0.0,0.0,0.0,0.0,0.0,0.0,0.0,0.0,0.0,0.0,0.0,0.0,0.0,0.0,0.0,-4.6308,-4.6308,-4.6308,-4.6308,-4.6308,-4.6308,-4.6308,-4.6308,-4.6308,-4.6308,-4.6308,-4.6308,-4.6308,-4.6308,-4.6308,-4.6307,-4.6305,-4.6274,-4.6212,-4.6211,-4.6148,-4.6044,-4.6027,-4.5997,-4.5929,-4.5925,-4.59,-4.5845,-4.5817,-4.5792,-4.573,-4.5734,-4.5203,-4.4528,-4.4355,-4.3258,-4.2038,-4.1846,-4.1162,-4.0496,-4.0496,-4.0496,-4.0496,-4.0496,-4.0496,-4.0496,-4.0496,-3.9881,-3.9034,-3.8161,-3.7296,-3.6442,-3.5635,-3.546,-3.5405,-3.533,-3.5289,-3.5201,-3.5082,-3.5001,-3.4821,-3.4413,-3.4269,-3.4136,-3.3998,-3.3959,-3.3921,-3.3855,-3.3847,-3.3815,-3.3815,-3.382,-3.3807,-3.3807,-3.3807,-3.3807,-3.3807,-3.3807,-3.3807,-3.3807,-3.3807,-3.3807,-4.0496,-4.0496,-4.0496,-4.0496,-4.0496,-4.0496,-4.0496,0.0,0.0,-4.0496,-4.0496,-4.0523,-4.058,-4.0605,-4.0629,0.0,0.0,-4.1262,0.0,0.0,0.0,0.0,0.0,0.0,0.0,0.0,0.0,0.0,0.0,0.0,-4.6308,-4.6308,-4.6308,-4.6308,-4.6308,-4.6308,-4.6308,-4.6308,-4.6308,-4.6308,-4.6308,-4.6308,-4.6308,-4.6308,-4.6308,-4.6307,-4.6307,-4.6302,0.0,-4.6222,-4.6191,-4.6172,-4.6109,-4.6087,-4.6072,-4.6008,-4.5986,-4.5969,-4.5899,-4.5886,-4.5866,-4.5822,-4.5657,-4.5325,-4.4528,-4.3682,-4.2816,-4.2019,-4.1162,-4.0496,-4.0496,-4.0496,-4.0496,-4.0496,-4.0496,-4.0496,-4.0496,-3.9881,-3.9034,-3.8161,-3.7296,-3.6442,-3.5635,-3.55,-3.546,-3.5405,-3.5398,-3.5361,-3.5277,-3.5209,-3.5107,-3.4936,-3.4658,-3.4416,-3.4269,-3.4148,-3.4086,-3.4074,-3.3959,-3.3881,-3.3881,-3.3829,-3.3807,-3.3807,-3.3807,-3.3807,-3.3807,-3.3807,-3.3807,-3.3807,-3.3807,-3.3807,-4.0496,-4.0496,-4.0496,-4.0496,-4.0496,-4.0496,-4.0496,0.0,-4.0496,-4.0496,-4.0496,-4.0516,-4.0531,-4.0569,-4.0605,-4.0633,0.0,0.0,0.0,0.0,0.0,0.0,0.0,0.0,0.0,0.0,0.0,0.0,0.0,0.0,-4.6308,-4.6308,-4.6308,-4.6308,-4.6308,-4.6308,-4.6308,-4.6308,-4.6308,-4.6308,-4.6308,-4.6308,-4.6308,-4.6308,-4.6308,-4.6308,-4.6308,-4.6307,0.0,-4.6261,-4.6256,-4.6262,-4.6232,-4.6199,-4.6162,-4.6135,-4.6084,-4.6067,-4.6041,-4.5988,-4.596,-4.5937,-4.586,-4.5688,-4.5258,-4.4551,-4.3695,-4.2824,-4.195,-4.1162,-4.065,-4.0496,-4.0496,-4.0496,-4.0496,-4.0496,-4.0496,-4.0246,-3.9785,-3.8931,-3.8084,-3.7219,-3.6365,-3.5827,-3.5493,-3.546,-3.546,-3.5439,-3.5369,-3.5346,-3.5281,-3.5196,-3.487,-3.4618,-3.445,-3.4293,-3.4185,-3.4111,-3.3972,-3.3895,-3.3895,-3.3847,-3.3807,-3.3807,-3.3807,-3.3807,-3.3807,-3.3807,-3.3807,-3.3807,-3.3807,-3.3807,-4.0492,-4.0508,-4.0496,-4.0496,-4.0496,-4.0496,0.0,0.0,-4.0496,-4.0496,-4.0496,-4.0496,-4.0496,-4.0539,-4.0573,-4.0573,0.0,-4.0873,0.0,0.0,0.0,0.0,0.0,0.0,0.0,0.0,0.0,0.0,0.0,0.0,-4.6308,-4.6308,-4.6308,-4.6308,-4.6308,-4.6308,-4.6308,-4.6308,-4.6308,-4.6308,-4.6308,-4.6308,-4.6308,-4.6308,-4.6308,-4.6308,-4.6308,-4.6308,0.0,-4.6307,-4.6306,-4.6301,-4.63,-4.6273,-4.6223,-4.6238,-4.6201,-4.6156,-4.6147,-4.6111,-4.6054,-4.6036,-4.6007,-4.5935,-4.5819,-4.5179,-4.4265,-4.337,-4.2317,-4.1293,-4.0685,-4.0504,-4.0496,-4.0496,-4.0496,-4.0496,-4.0496,-4.0496,-4.0265,-3.9457,-3.8604,-3.7719,-3.6846,-3.6038,-3.55,-3.55,-3.55,-3.5474,-3.5446,-3.542,-3.5398,-3.5331,-3.5098,-3.487,-3.4699,-3.4528,-3.4393,-3.4281,-3.4099,-3.3985,-3.3985,-3.3881,-3.3815,-3.3815,-3.382,-3.3807,-3.3807,-3.3807,-3.3807,-3.3807,-3.3807,-3.3807,-4.0502,-4.0495,-4.0496,-4.0496,-4.0496,-4.0496,0.0,0.0,-4.0496,-4.0496,-4.0496,-4.0496,-4.0496,-4.0496,-4.0496,-4.0496,-4.0565,0.0,0.0,0.0,0.0,0.0,0.0,0.0,0.0,0.0,0.0,0.0,0.0,0.0,-4.6308,-4.6308,-4.6308,-4.6308,-4.6308,-4.6308,-4.6308,-4.6308,-4.6308,-4.6308,-4.6308,-4.6308,-4.6308,-4.6308,-4.6308,-4.6308,-4.6308,-4.6308,0.0,-4.6308,-4.6308,-4.6308,-4.6307,-4.6307,-4.6306,-4.6297,-4.6293,-4.629,-4.6214,-4.6206,-4.6199,-4.6115,-4.6098,-4.6084,-4.6013,-4.5336,-4.4407,-4.3457,-4.1945,-4.0607,-4.0607,-4.0539,-4.0496,-4.0496,-4.0496,-4.0496,-4.0496,-4.0496,-4.0265,-3.9457,-3.8604,-3.7719,-3.6846,-3.6038,-3.55,-3.55,-3.55,-3.55,-3.55,-3.55,-3.5467,-3.5405,-3.5331,-3.5237,-3.512,-3.484,-3.4706,-3.4687,-3.4374,-3.4197,-3.4197,-3.4011,-3.3895,-3.3895,-3.3829,-3.3807,-3.3807,-3.3807,-3.3807,-3.3807,-3.3807,-3.3807,-4.0342,-4.043,-4.0507,-4.0507,-4.0492,-4.0496,-4.0496,-4.0496,-4.0496,-4.0496,-4.0496,-4.0496,-4.0496,-4.0496,-4.0496,-4.0496,-4.0523,0.0,0.0,0.0,0.0,0.0,0.0,0.0,0.0,0.0,0.0,0.0,0.0,0.0,-4.6237,-4.6235,-4.6241,-4.6307,-4.6305,-4.6301,-4.6301,-4.6301,-4.6301,-4.6301,-4.6306,-4.6308,-4.6308,-4.6308,-4.6308,-4.6308,-4.6308,-4.6308,-4.6308,-4.6308,-4.6308,-4.6308,-4.6308,-4.6308,-4.6308,-4.6307,-4.6306,-4.6304,-4.6281,-4.6274,-4.6264,-4.6236,-4.6204,-4.6167,-4.6147,-4.586,-4.5231,-4.3699,-4.2054,-4.0726,-4.068,-4.066,-4.0639,-4.058,-4.0573,-4.0565,-4.0504,-4.0496,-4.0419,-4.0169,-3.9457,-3.8604,-3.7738,-3.6885,-3.6135,-3.5577,-3.55,-3.55,-3.55,-3.55,-3.5493,-3.5467,-3.5417,-3.5289,-3.5115,-3.4889,-3.4771,-3.4768,-3.4495,-3.4328,-3.4328,-3.4185,-3.4086,-3.4036,-3.4023,-3.3959,-3.3868,-3.3868,-3.3842,-3.3807,-3.3807,-3.3807,0.0,-4.0325,-4.0466,-4.0502,-4.0503,0.0,0.0,-4.0496,-4.0496,-4.0496,-4.0496,-4.0496,-4.0496,-4.0496,-4.0496,-4.0496,-4.0496,0.0,0.0,0.0,0.0,0.0,0.0,0.0,0.0,0.0,0.0,0.0,0.0,0.0,-4.6191,-4.6182,-4.6189,-4.6227,-4.6246,-4.6262,-4.6259,-4.6259,-4.6261,-4.6264,-4.6257,-4.6282,-4.6303,-4.6307,-4.6308,-4.6308,-4.6308,-4.6308,0.0,-4.6308,-4.6308,-4.6308,-4.6308,-4.6308,-4.6308,-4.6308,-4.6308,-4.6308,-4.6308,-4.6306,-4.6302,-4.6301,-4.6272,-4.6238,-4.6238,-4.5693,-4.486,-4.3724,-4.2163,-4.0821,-4.0787,-4.0764,-4.0726,-4.068,-4.0653,-4.0624,-4.0583,-4.0554,-4.0539,-4.0539,-3.9869,-3.9015,-3.8142,-3.7276,-3.6423,-3.5615,-3.55,-3.55,-3.55,-3.55,-3.55,-3.55,-3.5446,-3.535,-3.5231,-3.5035,-3.4917,-3.4898,-3.468,-3.4553,-3.4553,-3.442,-3.4328,-3.4293,-3.4209,-3.4136,-3.4049,-3.3998,-3.3921,-3.3847,-3.3847,-3.3815,0.0,-4.0167,0.0,0.0,0.0,0.0,0.0,-4.0489,0.0,-4.0496,-4.0496,-4.0496,-4.0496,-4.0496,-4.0496,-4.0496,0.0,0.0,0.0,0.0,0.0,0.0,0.0,0.0,0.0,0.0,0.0,0.0,0.0,-4.6176,-4.6176,-4.6125,-4.6087,-4.6087,-4.6153,-4.6189,-4.6198,-4.6198,-4.6184,-4.6197,-4.6193,-4.6223,-4.629,-4.6283,-4.6306,0.0,-4.6308,-4.6308,-4.6308,-4.6308,-4.6308,-4.6308,-4.6308,-4.6308,-4.6308,-4.6308,-4.6308,-4.6308,-4.6308,-4.6308,-4.6308,-4.6307,-4.6303,-4.6295,-4.6295,-4.5035,-4.3614,-4.3595,-4.2296,-4.0906,-4.0921,-4.0863,-4.0818,-4.0806,-4.0764,-4.0713,-4.0707,-4.0653,-4.0603,-4.0615,-3.9949,-3.9119,-3.8245,-3.7373,-3.6526,-3.5712,-3.5538,-3.55,-3.55,-3.55,-3.55,-3.55,-3.5434,-3.5412,-3.5412,-3.5231,-3.5113,-3.5113,-3.4926,-3.4812,-3.4812,-3.471,-3.4626,-3.4615,-3.442,-3.4316,-3.4316,-3.4185,-3.4049,-3.3921,-3.3908,-3.3868,-3.9414,0.0,-4.0118,-4.0244,-4.0317,-4.0377,0.0,-4.0499,-4.0487,0.0,0.0,0.0,-4.0496,0.0,0.0,0.0,0.0,0.0,0.0,0.0,0.0,0.0,0.0,0.0,0.0,0.0,0.0,0.0,0.0,-4.5977,-4.5977,-4.5961,-4.5944,-4.5941,-4.5964,-4.6002,-4.6056,-4.6056,-4.606,-4.6046,-4.6098,-4.6153,-4.6226,-4.6212,-4.6248,-4.6297,-4.6299,-4.6303,-4.6307,-4.6307,-4.6308,-4.6308,-4.6308,-4.6308,-4.6308,-4.6308,-4.6308,-4.6308,-4.6308,-4.6308,-4.6308,-4.6308,-4.6308,-4.6307,-4.6307,-4.5066,-4.3669,-4.3602,-4.2361,-4.1037,-4.0997,-4.0956,-4.0949,-4.0898,-4.0849,-4.0842,-4.0788,-4.0764,-4.0739,-4.068,-4.0512,-4.0086,-3.9155,-3.8308,-3.7453,-3.6546,-3.5885,-3.55,-3.55,-3.55,-3.55,-3.55,-3.5493,-3.5486,-3.5486,-3.5339,-3.5261,-3.5261,-3.5115,-3.5035,-3.5035,-3.4954,-3.4879,-3.484,-3.4636,-3.4528,-3.4528,-3.434,-3.4209,-3.4124,-3.4074,-3.4023,-3.9101,-3.9502,-3.9924,-4.0027,-4.0129,-4.0243,-4.0342,0.0,0.0,0.0,0.0,0.0,0.0,0.0,0.0,0.0,0.0,0.0,0.0,0.0,0.0,0.0,0.0,0.0,0.0,0.0,0.0,0.0,0.0,-4.5841,-4.5841,-4.5848,-4.5847,-4.5852,-4.5817,-4.5833,-4.5917,-4.5917,-4.5923,-4.5941,-4.5988,-4.6039,-4.6103,-4.6138,-4.617,-4.6201,-4.6238,-4.6251,-4.6259,-4.6282,-4.6305,-4.6308,-4.6308,-4.6308,-4.6308,-4.6308,-4.6308,-4.6308,-4.6308,-4.6308,-4.6308,-4.6308,-4.6308,-4.6308,-4.6308,-4.5076,-4.3683,-4.3657,-4.242,-4.1083,-4.1066,-4.1052,-4.1037,-4.1,-4.0972,-4.0941,-4.0902,-4.0873,-4.0832,-4.0798,-4.0776,-4.0462,-3.9541,-3.8659,-3.7803,-3.6909,-3.6054,-3.5495,-3.5495,-3.5494,-3.55,-3.55,-3.55,-3.55,-3.55,-3.5424,-3.538,-3.5346,-3.5246,-3.5187,-3.5187,-3.5166,-3.5088,-3.4991,-3.4889,-3.4792,-3.474,-3.4628,-3.4509,-3.4374,-3.434,-3.4257,-3.8881,-3.9272,-3.9693,-3.9804,-3.9918,-4.0051,-4.0139,0.0,0.0,0.0,0.0,0.0,0.0,0.0,0.0,0.0,0.0,0.0,0.0,0.0,0.0,0.0,0.0,0.0,0.0,0.0,0.0,0.0,-4.5769,-4.5771,-4.5771,-4.5781,-4.5777,-4.5777,-4.5706,-4.5703,-4.5771,-4.5778,-4.5812,-4.5866,-4.588,-4.5908,-4.5975,-4.6031,-4.6072,-4.6084,-4.6131,0.0,-4.6195,-4.6262,-4.6276,-4.6284,-4.6305,-4.6307,-4.6308,-4.6308,-4.6308,-4.6308,-4.6308,-4.6308,-4.6308,-4.6308,-4.6308,-4.6308,-4.6308,-4.5078,-4.3691,-4.369,-4.2456,-4.1102,-4.1101,-4.1093,-4.1101,-4.1099,-4.1057,-4.1028,-4.1022,-4.0976,-4.0924,-4.0911,-4.0873,-4.0588,-3.9846,-3.8827,-3.7891,-3.7203,-3.6208,-3.5509,-3.5528,-3.5502,-3.5494,-3.5494,-3.5507,-3.55,-3.55,-3.55,-3.5486,-3.542,-3.5364,-3.5323,-3.5323,-3.5331,-3.5258,-3.5147,-3.5149,-3.5062,-3.4964,-3.4945,-3.485,-3.4658,-3.4647,-3.4531,-3.8822,-3.8964,-3.9183,-3.9414,-3.9575,-3.9732,-3.9982,0.0,0.0,0.0,0.0,0.0,0.0,0.0,0.0,0.0,0.0,0.0,0.0,0.0,0.0,0.0,0.0,0.0,0.0,0.0,0.0,-4.562,-4.5629,-4.5637,-4.5637,-4.5629,-4.562,-4.562,-4.5612,-4.5612,-4.5637,-4.569,-4.5714,-4.5722,-4.5788,-4.5826,-4.5822,-4.5893,-4.5958,-4.6027,0.0,-4.6052,-4.6118,-4.6192,-4.6216,-4.6218,-4.6272,-4.6296,-4.6299,-4.6306,-4.6307,-4.6307,-4.6308,-4.6308,-4.6308,-4.6308,-4.6308,-4.6308,-4.6308,-4.5078,-4.3691,-4.3691,-4.248,-4.1171,-4.1111,-4.1109,-4.1107,-4.1098,-4.1093,-4.1087,-4.109,-4.1081,-4.1044,-4.1003,-4.0986,-4.0902,-4.0713,-3.933,-3.822,-3.8031,-3.6618,-3.5579,-3.5575,-3.554,-3.5496,-3.5496,-3.5501,-3.55,-3.55,-3.55,-3.55,-3.5493,-3.5467,-3.5467,-3.5467,-3.5405,-3.5364,-3.535,-3.5308,-3.5261,-3.5237,-3.5124,-3.5018,-3.4946,-3.4879,-3.4782,-3.875,-3.8795,-3.8881,-3.9073,-3.9304,-3.9495,-3.9788,0.0,0.0,0.0,0.0,0.0,0.0,0.0,0.0,0.0,0.0,0.0,0.0,0.0,0.0,0.0,0.0,0.0,0.0,0.0,0.0,-4.5594,-4.5594,-4.5594,-4.5594,-4.5594,-4.5594,-4.5594,-4.5594,-4.5594,-4.5594,-4.5631,-4.5648,-4.5648,-4.5706,-4.5754,-4.575,-4.581,-4.5866,-4.5893,0.0,-4.5961,-4.5993,-4.6059,-4.6107,-4.6156,-4.6189,-4.6206,-4.6243,-4.6297,-4.6304,-4.6307,-4.6308,-4.6308,-4.6308,-4.6308,-4.6308,-4.6308,-4.6308,-4.5078,-4.3691,-4.3691,-4.248,-4.1191,-4.1152,-4.1152,-4.1152,-4.115,-4.1128,-4.1106,-4.1101,-4.1094,-4.1085,-4.1051,-4.1057,-4.1039,-4.1013,-3.9916,-3.8894,-3.8381,-3.7199,-3.6193,-3.5718,-3.5626,-3.5587,-3.557,-3.5553,-3.5554,-3.5554,-3.5522,-3.5508,-3.55,-3.55,-3.55,-3.55,-3.5467,-3.5453,-3.5453,-3.5424,-3.5395,-3.5354,-3.5297,-3.5234,-3.5151,-3.5134,-3.5035,-3.8707,-3.8707,-3.8738,-3.8851,0.0,-3.9298,-3.9599,0.0,0.0,0.0,0.0,0.0,0.0,0.0,0.0,0.0,0.0,0.0,0.0,0.0,0.0,0.0,0.0,0.0,0.0,0.0,-4.5594,-4.5594,-4.5594,-4.5594,-4.5594,-4.5594,-4.5594,-4.5594,-4.5594,-4.5594,-4.5594,-4.5594,-4.5594,-4.5594,-4.5648,-4.5684,-4.5684,-4.5738,-4.577,-4.5785,-4.5824,-4.5867,-4.5879,-4.5927,-4.5998,-4.6052,-4.6068,-4.6112,-4.6177,-4.6255,-4.6273,-4.6283,-4.6285,-4.6306,-4.6308,-4.6308,-4.6308,-4.6269,-4.6055,-4.4922,-4.3652,-4.3457,-4.2344,-4.1191,-4.1191,-4.1191,-4.1191,-4.1191,-4.1152,-4.1112,-4.1112,-4.1129,-4.1124,-4.1102,-4.1095,-4.1104,-4.1101,-4.032,-3.9424,-3.8558,-3.7637,-3.6728,-3.5865,-3.5732,-3.5708,-3.5649,-3.5637,-3.561,-3.5623,-3.5571,-3.5515,-3.5521,-3.5514,-3.55,-3.55,-3.55,-3.55,-3.55,-3.55,-3.5467,-3.542,-3.542,-3.5383,-3.5316,-3.5316,-3.5258,-3.8707,-3.8707,-3.8723,-3.8792,-3.8925,0.0,-3.9439,-3.9575,0.0,-3.9965,0.0,0.0,0.0,0.0,0.0,0.0,0.0,0.0,0.0,0.0,0.0,0.0,0.0,0.0,-4.5594,-4.5594,-4.5594,-4.5594,-4.5594,-4.5594,-4.5594,-4.5594,-4.5594,-4.5594,-4.5594,-4.5594,-4.5594,-4.5594,-4.5594,-4.5594,-4.5594,-4.5614,-4.5614,-4.5603,-4.5648,-4.5709,-4.5717,-4.5746,-4.581,-4.5807,-4.5848,-4.5912,-4.598,-4.6054,-4.6128,-4.6186,-4.6211,-4.6214,-4.627,-4.6295,-4.6297,-4.6305,-4.6307,-4.6151,-4.5332,-4.4433,-4.3535,-4.2715,-4.1875,-4.1191,-4.1191,-4.1191,-4.1191,-4.1191,-4.1191,-4.1191,-4.1191,-4.1191,-4.1172,-4.1111,-4.1091,-4.1108,-4.1099,-4.0374,-3.9492,-3.8615,-3.7756,-3.6877,-3.6,-3.5822,-3.5786,-3.5786,-3.5727,-3.5689,-3.5683,-3.5629,-3.5595,-3.5595,-3.5541,-3.55,-3.55,-3.55,-3.55,-3.55,-3.55,-3.55,-3.5493,-3.5493,-3.546,-3.5398,-3.5398,-3.5357,-3.8673,-3.8707,-3.8723,-3.8777,-3.8837,0.0,0.0,-3.9324,-3.9452,-3.9804,-3.99,0.0,0.0,0.0,0.0,0.0,0.0,0.0,0.0,0.0,0.0,0.0,0.0,-4.5594,-4.5594,-4.5594,-4.5594,-4.5594,-4.5594,-4.5594,-4.5594,-4.5594,-4.5594,-4.5594,-4.5594,-4.5594,-4.5594,-4.5594,-4.5594,-4.5594,-4.5594,-4.5594,-4.5594,-4.5594,-4.5603,-4.564,-4.564,-4.5673,-4.573,-4.5746,-4.5773,-4.5838,-4.5906,-4.595,-4.5979,-4.6046,-4.6099,-4.6131,-4.6162,-4.6201,-4.6239,-4.6246,-4.6233,-4.608,-4.5246,-4.4388,-4.351,-4.2655,-4.1796,-4.1152,-4.1191,-4.1191,-4.1191,-4.1191,-4.1191,-4.1191,-4.1191,-4.1191,-4.1191,-4.1172,-4.1152,-4.1152,-4.115,-4.0856,-4.0131,-3.8761,-3.8283,-3.7567,-3.613,-3.5892,-3.5853,-3.5864,-3.5833,-3.5807,-3.5765,-3.5742,-3.5708,-3.5662,-3.5553,-3.5502,-3.5502,-3.5494,-3.55,-3.55,-3.55,-3.55,-3.55,-3.55,-3.5493,-3.546,-3.546,-3.5453,-3.8658,-3.8707,-3.8723,0.0,0.0,0.0,-3.9036,-3.9115,-3.9259,-3.9599,0.0,0.0,0.0,0.0,0.0,0.0,0.0,0.0,0.0,0.0,0.0,0.0,0.0,-4.5594,-4.5594,-4.5594,-4.5594,-4.5594,-4.5594,-4.5594,-4.5594,-4.5594,-4.5594,-4.5594,-4.5594,-4.5479,-4.519,-4.519,-4.5056,-4.4806,-4.4806,-4.5094,-4.5594,-4.5594,-4.5594,-4.5594,-4.5594,-4.5631,-4.5676,-4.5676,-4.5706,-4.5777,-4.5829,-4.5854,-4.586,-4.5916,-4.5982,-4.6035,-4.6056,-4.6111,-4.6144,-4.6164,-4.598,-4.5601,-4.4793,-4.3959,-4.3105,-4.2238,-4.1557,-4.111,-4.1152,-4.1172,-4.1191,-4.1191,-4.1191,-4.1191,-4.1191,-4.1191,-4.1191,-4.1191,-4.1191,-4.1191,-4.1191,-4.1152,-4.0565,-3.8867,-3.8609,-3.7979,-3.6218,-3.5956,-3.5928,-3.5937,-3.5901,-3.5872,-3.5846,-3.5826,-3.5819,-3.5773,-3.5658,-3.557,-3.5521,-3.5528,-3.5521,-3.5501,-3.5501,-3.5494,-3.55,-3.55,-3.55,-3.55,-3.55,-3.55,-3.8658,-3.8707,0.0,0.0,0.0,0.0,-3.8777,0.0,0.0,0.0,0.0,0.0,0.0,0.0,0.0,0.0,0.0,0.0,0.0,0.0,0.0,0.0,0.0,-4.5594,-4.5594,-4.5594,-4.5594,-4.5594,-4.5575,-4.5575,-4.5575,-4.5575,-4.5575,-4.5575,-4.5575,-4.5171,-4.4297,-4.4297,-4.3893,-4.3104,-4.3104,-4.397,-4.5575,-4.5575,-4.5575,-4.5575,-4.5575,-4.5575,-4.5594,-4.5594,-4.564,-4.5701,-4.5701,-4.573,-4.5788,-4.5812,-4.5847,-4.5912,-4.5989,-4.5997,-4.6017,-4.6072,-4.5494,-4.4644,-4.3836,-4.3036,-4.2229,-4.134,-4.1094,-4.1101,-4.109,-4.1152,-4.1191,-4.1191,-4.1191,-4.1191,-4.1191,-4.1191,-4.1191,-4.1191,-4.1191,-4.1191,-4.1191,-4.1191,-4.0605,-3.8867,-3.8613,-3.7968,-3.6229,-3.5991,-3.6002,-3.5994,-3.5947,-3.5901,-3.5901,-3.5892,-3.5892,-3.5889,-3.5845,-3.5747,-3.5612,-3.5606,-3.5577,-3.549,-3.549,-3.5509,-3.55,-3.55,-3.55,-3.55,-3.55,-3.55,-3.8627,-3.8707,0.0,0.0,0.0,0.0,0.0,0.0,0.0,0.0,0.0,0.0,0.0,0.0,0.0,-4.0291,-4.0289,-4.0584,0.0,0.0,0.0,0.0,0.0,-4.4696,-4.4696,-4.4684,-4.4682,-4.4682,-4.4162,-4.3835,-4.3835,-4.3835,-4.3835,-4.3835,-4.3835,-4.372,-4.3451,-4.3451,-4.3335,-4.3104,-4.3104,-4.3355,-4.3835,-4.3835,-4.3835,-4.3835,-4.3835,-4.4162,-4.472,-4.5344,-4.5603,-4.5631,-4.5631,-4.5665,-4.5722,-4.573,-4.5765,-4.5824,-4.5859,-4.5887,-4.5834,-4.5235,-4.4874,-4.4389,-4.3022,-4.2455,-4.2085,-4.1262,-4.103,-4.1046,-4.1085,-4.1116,-4.1144,-4.1191,-4.1191,-4.1191,-4.1191,-4.1191,-4.1191,-4.1191,-4.1191,-4.1191,-4.1191,-4.1191,-4.082,-3.9687,-3.8984,-3.7969,-3.6211,-3.5995,-3.5994,-3.5991,-3.597,-3.5968,-3.5979,-3.5974,-3.5944,-3.591,-3.5875,-3.5824,-3.5732,-3.5693,-3.5657,-3.564,-3.5599,-3.557,-3.5578,-3.5578,-3.5554,-3.5509,-3.5509,-3.5489,-3.8562,0.0,0.0,0.0,0.0,0.0,0.0,0.0,0.0,0.0,0.0,0.0,0.0,0.0,0.0,-4.0118,-4.0119,-4.0301,-4.0826,0.0,0.0,0.0,0.0,-4.3675,-4.3704,-4.3693,-4.3692,-4.3692,-4.3249,-4.297,-4.297,-4.3024,-4.306,-4.306,-4.3096,-4.2931,-4.2585,-4.2585,-4.2412,-4.2066,-4.2066,-4.2066,-4.2085,-4.2777,-4.3104,-4.3104,-4.3104,-4.3374,-4.3855,-4.4393,-4.4806,-4.5075,-4.5075,-4.5323,-4.5657,-4.5657,-4.569,-4.5719,-4.5754,-4.5561,-4.5218,-4.4724,-4.4112,-4.3382,-4.2402,-4.19,-4.1538,-4.1053,-4.0933,-4.0981,-4.1042,-4.1059,-4.1076,-4.1147,-4.1169,-4.115,-4.1152,-4.1152,-4.1172,-4.1191,-4.1191,-4.1191,-4.1191,-4.1191,-4.0898,-4.0039,-3.8867,-3.7578,-3.6172,-3.5996,-3.5996,-3.5996,-3.5995,-3.5995,-3.5992,-3.5991,-3.5987,-3.5941,-3.5936,-3.5916,-3.588,-3.5815,-3.5773,-3.5732,-3.5699,-3.5674,-3.5637,-3.5646,-3.5612,-3.5546,-3.5534,-3.5522,-3.8446,0.0,0.0,0.0,0.0,0.0,0.0,0.0,0.0,0.0,0.0,0.0,0.0,0.0,0.0,-3.9943,-3.9929,-3.9932,-3.9932,-4.0627,0.0,0.0,-4.2016,-4.2591,-4.265,-4.266,-4.266,-4.266,-4.2594,-4.2546,-4.2556,-4.2676,-4.2748,-4.2748,-4.2829,-4.2481,-4.1692,-4.1673,-4.1277,-4.0496,-4.0496,-4.0496,-4.0554,-4.2143,-4.2854,-4.2874,-4.2951,-4.2989,-4.2989,-4.3066,-4.3528,-4.4182,-4.4182,-4.4662,-4.5364,-4.5364,-4.5364,-4.5383,-4.5445,-4.4941,-4.4275,-4.4264,-4.3217,-4.1961,-4.1886,-4.1358,-4.0775,-4.0793,-4.0829,-4.0897,-4.0956,-4.0977,-4.0997,-4.108,-4.1094,-4.11,-4.1108,-4.1091,-4.1111,-4.1172,-4.1191,-4.1191,-4.1191,-4.1191,-4.0879,-3.9922,-3.8437,-3.707,-3.6113,-3.5996,-3.5996,-3.5996,-3.5996,-3.5996,-3.5996,-3.5996,-3.5995,-3.5995,-3.5991,-3.6006,-3.6005,-3.5949,-3.5869,-3.5819,-3.5815,-3.5771,-3.5727,-3.5723,-3.5679,-3.5623,-3.5615,-3.5564,0.0,-3.8478,0.0,0.0,0.0,0.0,0.0,0.0,0.0,0.0,0.0,0.0,0.0,0.0,0.0,0.0,-3.9446,-3.9439,-3.9439,-3.9707,-3.9892,-3.9903,-4.0825,-4.1448,-4.1459,-4.1563,-4.1634,-4.1634,-4.0996,-4.0634,-4.0673,-4.0759,-4.0824,-4.0879,-4.0995,-4.0979,-4.0787,-4.0781,-4.0689,-4.0496,-4.0496,-4.0496,-4.0516,-4.09,-4.1054,-4.1112,-4.1777,-4.2085,-4.2143,-4.2816,-4.3201,-4.3355,-4.3355,-4.347,-4.3643,-4.3643,-4.3643,-4.3643,-4.366,-4.3544,-4.3275,-4.2598,-4.2144,-4.1728,-4.1092,-4.0786,-4.0653,-4.0701,-4.0732,-4.0767,-4.0832,-4.0844,-4.0859,-4.0921,-4.1011,-4.1101,-4.1104,-4.1091,-4.1098,-4.1123,-4.1124,-4.1126,-4.1112,-4.1112,-4.0605,-3.9101,-3.8555,-3.7754,-3.6191,-3.5996,-3.5996,-3.5996,-3.5996,-3.5996,-3.5996,-3.5996,-3.5996,-3.5996,-3.5996,-3.5995,-3.5993,-3.5934,-3.5888,-3.5877,-3.5887,-3.5869,-3.5859,-3.5856,-3.5822,-3.5765,-3.5703,-3.5635,0.0,0.0,0.0,0.0,0.0,0.0,0.0,0.0,0.0,0.0,0.0,0.0,0.0,0.0,0.0,0.0,0.0,-3.9192,-3.9192,-3.9272,-3.9324,-3.935,-3.9846,-4.0208,-4.0244,-4.0304,-4.0339,-4.0339,-3.9981,-3.978,-3.9802,-3.996,-4.0099,-4.0148,-4.0262,-4.0325,-4.0362,-4.0368,-4.0375,-4.04,-4.04,-4.0444,-4.0503,-4.0508,-4.0496,-4.0535,-4.0969,-4.1181,-4.12,-4.1662,-4.2104,-4.2489,-4.2489,-4.2739,-4.3104,-4.3104,-4.3104,-4.3104,-4.3104,-4.2835,-4.2412,-4.1942,-4.1527,-4.1112,-4.0673,-4.0546,-4.0573,-4.0631,-4.064,-4.0668,-4.0739,-4.0745,-4.0756,-4.0801,-4.0904,-4.1013,-4.1042,-4.1054,-4.1044,-4.1058,-4.1085,-4.1093,-4.1102,-4.1108,-4.0526,-3.8848,-3.8594,-3.7969,-3.6211,-3.5996,-3.5996,-3.5996,-3.5996,-3.5996,-3.5996,-3.5996,-3.5996,-3.5996,-3.5996,-3.5996,-3.5996,-3.5972,-3.5944,-3.5955,-3.595,-3.5942,-3.5945,-3.5919,-3.5877,-3.5846,-3.581,-3.5764,0.0,0.0,0.0,0.0,0.0,0.0,0.0,0.0,0.0,0.0,0.0,0.0,0.0,0.0,0.0,0.0,0.0,0.0,0.0,-3.9031,-3.9073,-3.9129,-3.9142,-3.9183,-3.9232,-3.9259,-3.9272,-3.9272,-3.9376,-3.9439,-3.9452,-3.9682,-3.9829,-3.9903,-4.001,-4.01,-4.0158,-4.0148,-4.0186,-4.0252,-4.0261,-4.0325,-4.0449,-4.0452,-4.0465,-4.05,-4.05,-4.05,-4.0473,-4.0473,-4.0915,-4.1588,-4.1588,-4.2019,-4.2643,-4.2643,-4.2643,-4.2643,-4.2643,-4.2181,-4.1585,-4.1585,-4.1085,-4.0496,-4.0496,-4.0496,-4.0504,-4.0573,-4.058,-4.0595,-4.0653,-4.0673,-4.0661,-4.0681,-4.0773,-4.0869,-4.0941,-4.096,-4.0974,-4.0989,-4.1035,-4.1092,-4.1103,-4.1101,-4.0525,-3.8847,-3.8593,-3.7969,-3.6211,-3.5996,-3.5996,-3.5996,-3.5996,-3.5996,-3.5996,-3.5996,-3.5996,-3.5996,-3.5996,-3.5996,-3.5996,-3.5996,-3.5995,-3.6008,-3.6008,-3.6005,-3.5998,-3.5934,-3.5923,-3.5921,-3.5929,-3.5872,0.0,0.0,0.0,0.0,0.0,0.0,0.0,0.0,0.0,0.0,0.0,0.0,0.0,0.0,0.0,0.0,0.0,0.0,0.0,-3.8807,-3.8833,-3.8848,-3.895,-3.9021,-3.9036,-3.9087,-3.9129,-3.9129,-3.9137,-3.9183,-3.9237,-3.9376,-3.9502,-3.9556,-3.9807,-3.9935,-3.9946,-4.0001,-4.0032,-4.0042,-4.0101,-4.0167,-4.0233,-4.0243,-4.0334,-4.0491,-4.0491,-4.0466,-4.0405,-4.0405,-4.0507,-4.0663,-4.0663,-4.0745,-4.0843,-4.0843,-4.0843,-4.0843,-4.0843,-4.0766,-4.0669,-4.0669,-4.0593,-4.0496,-4.0496,-4.0496,-4.0496,-4.0504,-4.0504,-4.0523,-4.0519,-4.0539,-4.0546,-4.0603,-4.0624,-4.0661,-4.0792,-4.0823,-4.084,-4.0906,-4.0974,-4.1028,-4.1098,-4.1106,-4.0535,-3.8857,-3.8609,-3.7967,-3.6229,-3.5996,-3.5996,-3.5996,-3.5996,-3.5996,-3.5996,-3.5996,-3.5996,-3.5996,-3.5996,-3.5996,-3.5996,-3.5996,-3.5996,-3.5996,-3.5996,-3.5995,-3.5993,-3.5993,-3.599,-3.5999,-3.5991,-3.5951,0.0,0.0,0.0,0.0,0.0,0.0,0.0,0.0,0.0,0.0,0.0,0.0,0.0,0.0,0.0,0.0,0.0,0.0,0.0,0.0,-3.875,-3.875,-3.8795,-3.884,-3.884,-3.8851,-3.8881,-3.8881,-3.8906,-3.8931,-3.896,-3.9101,-3.921,-3.9272,-3.9427,-3.9526,-3.9556,-3.9585,-3.9656,-3.9724,-3.9897,-4.0,-4.002,-4.0061,-4.0177,-4.0325,-4.0279,-4.0261,-4.0233,-4.0233,-4.0252,-4.0279,-4.037,-4.0386,-4.0411,-4.0479,-4.0495,-4.0495,-4.0508,-4.0496,-4.0496,-4.0496,-4.0496,-4.0496,-4.0496,-4.0496,-4.0496,-4.0496,-4.0496,-4.0496,-4.0496,-4.0496,-4.0516,-4.0531,-4.0539,-4.0561,-4.0626,-4.0701,-4.0756,-4.0828,-4.0863,-4.0922,-4.1033,-4.1042,-4.0481,-3.88,-3.8534,-3.7936,-3.6224,-3.5992,-3.5993,-3.5995,-3.5996,-3.5996,-3.5996,-3.5996,-3.5996,-3.5996,-3.5996,-3.5996,-3.5996,-3.5996,-3.5996,-3.5996,-3.5996,-3.5996,-3.5996,-3.5996,-3.5995,-3.5992,-3.6009,-3.5982,0.0,0.0,0.0,0.0,0.0,0.0,0.0,0.0,0.0,0.0,0.0,0.0,0.0,0.0,0.0,0.0,0.0,0.0,0.0,0.0,-3.8083,-3.8083,-3.8083,-3.8083,-3.8083,-3.8083,-3.8083,-3.8083,-3.8327,-3.8464,-3.8464,-3.8766,-3.8964,-3.9017,-3.912,-3.917,-3.9219,-3.9232,-3.9311,-3.9427,-3.9635,-3.9728,-3.9751,-3.9802,-3.9878,-3.997,-4.0021,-4.0021,-4.0001,-4.0001,-4.0021,-4.007,-4.0168,-4.0215,-4.0261,-4.0388,-4.0422,-4.0458,-4.0495,-4.05,-4.05,-4.0489,-4.0496,-4.0496,-4.0496,-4.0496,-4.0496,-4.0496,-4.0496,-4.0496,-4.0496,-4.0496,-4.0496,-4.0496,-4.0496,-4.0496,-4.0496,-4.0591,-4.07,-4.075,-4.0751,-4.0805,-4.0928,-4.0774,-4.0143,-3.8675,-3.8283,-3.7634,-3.6166,-3.5977,-3.5963,-3.597,-3.5992,-3.5994,-3.5995,-3.5996,-3.5996,-3.5996,-3.5996,-3.5996,-3.5996,-3.5996,-3.5996,-3.5996,-3.5996,-3.5996,-3.5996,-3.5996,-3.5996,-3.5995,-3.5995,-3.5994,0.0,0.0,0.0,0.0,0.0,0.0,0.0,0.0,0.0,0.0,0.0,0.0,0.0,0.0,0.0,0.0,0.0,0.0,0.0,0.0,0.0,-3.6413,-3.6413,-3.6413,-3.6413,-3.6413,-3.6413,-3.6413,-3.7125,-3.7566,-3.7566,-3.8372,-3.8822,-3.8822,-3.8935,-3.9007,-3.9007,-3.9073,-3.9142,-3.9224,-3.9237,-3.9277,-3.9337,-3.9318,-3.9331,-3.9376,-3.9751,-3.9829,-3.9728,-3.9728,-3.9796,-3.9914,-3.9924,-4.0,-4.011,-4.0196,-4.0261,-4.0325,-4.0458,-4.051,-4.0499,-4.05,-4.0496,-4.0496,-4.0496,-4.0496,-4.0496,-4.0496,-4.0496,-4.0496,-4.0496,-4.0496,-4.0496,-4.0496,-4.0496,-4.0496,-4.0496,-4.0565,-4.061,-4.0614,-4.0662,-4.0732,-4.0806,-4.0189,-3.9367,-3.8445,-3.7718,-3.6947,-3.6011,-3.5906,-3.5903,-3.5905,-3.5958,-3.6005,-3.6005,-3.5992,-3.5995,-3.5995,-3.5996,-3.5996,-3.5996,-3.5996,-3.5996,-3.5996,-3.5996,-3.5996,-3.5996,-3.5996,-3.5996,-3.5996,-3.5996,-3.5996,0.0,0.0,0.0,0.0,0.0,0.0,0.0,0.0,0.0,0.0,0.0,0.0,0.0,0.0,0.0,0.0,0.0,0.0,0.0,0.0,0.0,-3.6303,-3.6303,-3.6303,-3.6303,-3.6303,-3.6303,-3.6303,-3.656,-3.674,-3.674,-3.703,-3.7191,-3.7191,-3.7249,-3.7518,-3.8033,-3.8604,-3.8921,-3.895,-3.9036,-3.9073,-3.9101,-3.9156,-3.9156,-3.9133,-3.9245,-3.9337,-3.9376,-3.9376,-3.9401,-3.9464,-3.9599,-3.9675,-3.9743,-3.9948,-4.0049,-4.0128,-4.0215,-4.0307,-4.036,-4.0377,-4.0427,-4.0507,-4.0507,-4.0492,-4.0496,-4.0496,-4.0496,-4.0496,-4.0496,-4.0496,-4.0496,-4.0496,-4.0496,-4.0496,-4.0496,-4.0523,-4.0546,-4.0583,-4.0169,-3.9817,-3.9895,-3.9228,-3.8415,-3.7531,-3.7181,-3.6712,-3.5935,-3.584,-3.5849,-3.5907,-3.5919,-3.5933,-3.5931,-3.5979,-3.6005,-3.6009,-3.5994,-3.5995,-3.5995,-3.5996,-3.5996,-3.5996,-3.5996,-3.5996,-3.5996,-3.5996,-3.5996,-3.5996,-3.5996,-3.5996,0.0,0.0,0.0,0.0,0.0,0.0,0.0,0.0,0.0,0.0,0.0,0.0,0.0,0.0,0.0,0.0,0.0,0.0,0.0,0.0,0.0,-3.5459,-3.5459,-3.5459,-3.5459,-3.5459,-3.5459,-3.5459,-3.5716,0.0,-3.5862,-3.6138,-3.6303,-3.6303,-3.6303,-3.656,-3.7088,-3.7941,-3.8357,-3.8357,-3.8722,-3.8896,-3.8896,-3.8935,-3.8935,-3.8896,-3.8896,-3.8983,-3.9106,-3.9106,-3.9101,-3.9161,-3.9272,-3.9363,-3.9427,-3.9647,-3.9762,-3.9859,-3.9989,-4.009,-4.0177,-4.0224,-4.0316,-4.0405,-4.0432,-4.0463,-4.0492,-4.0492,-4.05,-4.0496,-4.0496,-4.0496,-4.0496,-4.0496,-4.0496,-4.0439,-4.0169,-4.0092,-4.0119,-4.0142,-3.9449,-3.8886,-3.8922,-3.8267,-3.752,-3.6944,-3.6638,-3.6283,-3.581,-3.5751,-3.5786,-3.5826,-3.5846,-3.5869,-3.5877,-3.5923,-3.596,-3.5971,-3.5964,-3.5989,-3.5991,-3.5993,-3.5995,-3.5995,-3.5996,-3.5996,-3.5996,-3.5996,-3.5996,-3.5996,-3.5996,-3.5996,0.0,0.0,0.0,0.0,0.0,0.0,0.0,0.0,0.0,0.0,0.0,0.0,0.0,0.0,0.0,0.0,0.0,0.0,0.0,0.0,0.0,-3.3807,-3.3807,-3.3807,-3.3807,-3.3807,-3.3807,-3.3807,-3.4509,-3.4954,-3.4954,-3.5771,-3.6229,-3.6229,-3.6248,-3.6266,-3.6266,-3.707,-3.7456,-3.7474,-3.8267,-3.8652,-3.867,-3.867,-3.8689,-3.8707,-3.8707,-3.878,-3.8877,-3.8877,-3.8921,-3.8979,-3.8979,-3.9078,-3.921,-3.9337,-3.9427,-3.9539,-3.9785,-3.9892,-3.9924,-4.0031,-4.0129,-4.0205,-4.027,-4.0388,-4.0493,-4.0502,-4.0495,-4.0489,-4.0496,-4.0477,-4.0458,-4.0458,-4.0439,-4.0208,-3.9438,-3.9246,-3.9227,-3.9265,-3.8565,-3.7969,-3.7969,-3.7286,-3.6767,-3.6767,-3.6093,-3.5601,-3.5601,-3.5651,-3.5683,-3.5707,-3.5751,-3.5791,-3.5791,-3.5866,-3.5892,-3.5904,-3.591,-3.5924,-3.5991,-3.6,-3.6003,-3.6004,-3.5992,-3.5995,-3.5995,-3.5996,-3.5996,-3.5996,-3.5996,-3.5996,-3.5644,0.0,0.0,0.0,0.0,0.0,0.0,0.0,0.0,0.0,0.0,0.0,0.0,0.0,0.0,0.0,0.0,0.0,0.0,0.0,0.0,-3.3807,-3.3807,-3.3807,-3.3807,-3.3807,-3.3807,0.0,-3.4009,-3.4137,-3.4137,-3.4357,-3.4486,-3.4486,-3.5073,-3.5353,-3.5353,-3.6211,-3.6615,-3.6615,-3.6853,-3.7257,-3.7841,-3.7841,-3.8138,-3.8707,-3.8707,-3.8723,-3.875,-3.875,-3.8765,-3.8795,-3.8837,-3.8877,-3.8921,-3.9064,-3.9156,-3.9232,-3.935,-3.9489,-3.9623,-3.9651,-3.981,-4.0008,-4.0049,-4.0139,-4.0233,-4.0325,-4.036,-4.0386,-4.0471,-4.0069,-3.9631,-3.9631,-3.915,-3.8623,-3.8411,-3.7853,-3.7603,-3.8238,-3.7661,-3.7065,-3.7065,-3.6392,-3.586,-3.586,-3.5669,-3.5522,-3.5534,-3.5534,-3.5558,-3.5623,-3.5651,-3.5678,-3.5718,-3.5739,-3.578,-3.5818,-3.5878,-3.5907,-3.5931,-3.5931,-3.5923,-3.5929,-3.5978,-3.6003,-3.6008,-3.5995,-3.5996,-3.5996,-3.5996,-3.5996,0.0,0.0,0.0,0.0,0.0,0.0,-3.4042,-3.2909,-3.1877,0.0,0.0,0.0,0.0,0.0,0.0,0.0,0.0,0.0,0.0,0.0,0.0,0.0,-3.3726,-3.3766,-3.3766,-3.3793,-3.3807,-3.3807,-3.3807,-3.3807,-3.3807,-3.3807,-3.3807,-3.3807,-3.4252,-3.4491,-3.4491,-3.5334,-3.5771,-3.5771,-3.6138,-3.6556,-3.6997,-3.6997,-3.7437,-3.8193,-3.8193,-3.8395,-3.8707,-3.8707,-3.8707,-3.8707,-3.875,-3.8765,-3.8762,-3.8881,-3.8935,-3.8993,-3.9073,-3.9197,-3.9298,-3.9363,-3.9526,-3.9705,-3.9762,-3.9895,-4.004,-4.0119,-3.9948,-3.9781,-3.9898,-3.933,-3.8716,-3.8716,-3.8346,-3.7892,-3.7546,-3.7065,-3.6846,-3.7353,-3.6769,-3.6192,-3.6192,-3.5808,-3.55,-3.55,-3.55,-3.5507,-3.5495,-3.5502,-3.5515,-3.5554,-3.5553,-3.5558,-3.5618,-3.5629,-3.5674,-3.5718,-3.5779,-3.5818,-3.5826,-3.584,-3.5861,-3.5869,-3.5919,-3.5962,-3.6,-3.5993,-3.5996,-3.5996,-3.5996,-3.5996,0.0,0.0,0.0,0.0,0.0,0.0,-3.3799,-3.2657,-3.1579,-3.1709,0.0,0.0,0.0,0.0,0.0,0.0,0.0,0.0,0.0,0.0,0.0,0.0,-3.3559,-3.3657,-3.3657,-3.3726,-3.3766,-3.3766,-3.3766,-3.378,-3.3793,-3.3793,-3.3775,-3.3807,-3.3807,-3.3807,-3.3807,-3.4509,-3.4876,-3.4876,-3.5661,-3.6064,-3.6156,-3.6156,-3.6597,-3.7364,-3.7364,-3.7768,-3.8432,-3.8432,-3.8542,-3.8707,-3.8707,-3.8707,-3.8707,-3.878,-3.8792,-3.8807,-3.8925,-3.8964,-3.8993,-3.9133,-3.9251,-3.9363,-3.9439,-3.9635,-3.9799,-3.9746,-3.9277,-3.884,-3.8894,-3.832,-3.7732,-3.774,-3.7713,-3.7485,-3.6716,-3.6551,-3.6551,-3.6551,-3.5981,-3.55,-3.55,-3.55,-3.55,-3.55,-3.55,-3.55,-3.55,-3.55,-3.55,-3.55,-3.5495,-3.5502,-3.5502,-3.5559,-3.5587,-3.559,-3.5643,-3.5688,-3.5694,-3.5756,-3.5782,-3.5782,-3.5846,-3.5926,-3.5988,-3.6009,-3.5995,-3.5996,-3.5996,-3.5996,0.0,0.0,0.0,0.0,0.0,0.0,-3.349,-3.2357,-3.1291,0.0,0.0,0.0,0.0,0.0,0.0,0.0,0.0,0.0,0.0,0.0,0.0,0.0,-3.328,-3.3342,-3.3452,-3.3466,-3.3481,-3.3481,-3.352,-3.3619,-3.3712,-3.3726,-3.3739,-3.3807,-3.3807,-3.3807,-3.3807,-3.3954,-3.4027,-3.4045,-3.4211,-3.4633,-3.5261,-3.5261,-3.5734,-3.6523,-3.6523,-3.6615,-3.6762,-3.6762,-3.7533,-3.8707,-3.8707,-3.8707,-3.8707,-3.8704,-3.8719,-3.8719,-3.875,-3.8792,-3.8833,-3.8862,-3.8964,-3.9092,-3.917,-3.9245,-3.9232,-3.8742,-3.8177,-3.7737,-3.7785,-3.7259,-3.6708,-3.6761,-3.6296,-3.5791,-3.5611,-3.5626,-3.565,-3.565,-3.5575,-3.55,-3.55,-3.55,-3.55,-3.55,-3.55,-3.55,-3.55,-3.55,-3.55,-3.55,-3.5507,-3.5494,-3.5494,-3.5502,-3.5509,-3.5515,-3.557,-3.5623,-3.5629,-3.5623,-3.5669,-3.5708,-3.5786,-3.584,-3.5924,-3.5974,-3.5991,-3.5995,-3.5995,-3.5996,0.0,0.0,0.0,-3.5469,0.0,0.0,0.0,-3.2256,-3.121,-3.1252,0.0,0.0,0.0,0.0,0.0,0.0,0.0,0.0,0.0,0.0,0.0,0.0,-3.291,-3.3034,-3.3099,-3.3178,-3.3241,-3.3241,-3.3298,-3.3386,-3.3441,-3.3502,-3.3577,-3.3661,-3.3643,-3.3657,-3.3698,-3.3657,-3.3643,-3.3643,-3.3643,-3.3862,-3.425,-3.4292,-3.4759,-3.5542,-3.5585,-3.5823,-3.6208,-3.627,-3.678,-3.7496,-3.7496,-3.7496,-3.7551,-3.7955,-3.8102,-3.8102,-3.8102,-3.8113,-3.8085,-3.768,-3.7624,-3.771,-3.7734,-3.7831,-3.7841,-3.7623,-3.7073,-3.657,-3.6633,-3.6149,-3.5664,-3.5682,-3.5412,-3.5157,-3.5182,-3.5242,-3.5254,-3.5297,-3.5354,-3.5417,-3.5493,-3.55,-3.55,-3.55,-3.55,-3.55,-3.55,-3.55,-3.55,-3.55,-3.55,-3.55,-3.55,-3.5501,-3.5495,-3.5495,-3.5528,-3.5547,-3.5547,-3.554,-3.5581,-3.5646,-3.5679,-3.573,-3.5806,-3.5878,-3.5931,-3.6007,-3.6009,-3.5993,0.0,0.0,0.0,0.0,0.0,-3.3186,0.0,0.0,0.0,0.0,0.0,0.0,0.0,0.0,0.0,0.0,0.0,0.0,0.0,0.0,0.0,0.0,-3.2453,-3.2634,-3.265,-3.2781,-3.2896,-3.2928,-3.3006,-3.305,-3.3111,-3.3223,-3.3331,-3.3419,-3.3419,-3.3448,-3.3502,-3.3448,-3.3419,-3.3419,-3.3419,-3.3419,-3.3419,-3.3506,-3.3876,-3.451,-3.4578,-3.5005,-3.5608,-3.5732,-3.5793,-3.583,-3.6174,-3.6303,-3.6376,-3.7033,-3.7272,-3.7272,-3.7272,-3.7272,-3.7162,-3.6505,-3.6346,-3.637,-3.637,-3.6371,-3.6358,-3.6458,-3.5957,-3.5411,-3.5473,-3.5139,-3.4792,-3.4802,-3.486,-3.4944,-3.4981,-3.5035,-3.507,-3.5132,-3.5201,-3.5293,-3.5451,-3.546,-3.5486,-3.5486,-3.5493,-3.55,-3.55,-3.55,-3.55,-3.55,-3.55,-3.55,-3.55,-3.55,-3.55,-3.55,-3.55,-3.55,-3.55,-3.5495,-3.5528,-3.5583,-3.5574,-3.5604,-3.5674,-3.5741,-3.5836,-3.5983,-3.5974,-3.5985,0.0,0.0,0.0,0.0,-3.3584,0.0,0.0,0.0,-3.119,-3.119,0.0,0.0,0.0,0.0,0.0,0.0,0.0,0.0,0.0,0.0,0.0,0.0,-3.1984,-3.202,-3.2092,-3.2109,-3.2196,-3.2386,-3.2403,-3.2537,-3.2844,-3.286,-3.2957,-3.3132,-3.3147,-3.3147,-3.3162,-3.3147,-3.3147,-3.3147,-3.3147,-3.3147,-3.3147,-3.3205,-3.3304,-3.3391,-3.3575,-3.372,-3.3807,-3.3949,-3.4005,-3.4147,-3.5687,-3.6303,-3.6303,-3.6395,-3.6431,-3.6431,-3.6431,-3.6431,-3.6413,-3.6321,-3.6317,-3.6317,-3.6317,-3.5878,-3.5358,-3.5302,-3.4813,-3.429,-3.4363,-3.436,-3.4386,-3.4443,-3.4542,-3.4647,-3.4658,-3.4811,-3.4917,-3.4917,-3.5,-3.5096,-3.5285,-3.5369,-3.5412,-3.5412,-3.546,-3.55,-3.55,-3.55,-3.55,-3.55,-3.55,-3.55,-3.55,-3.55,-3.55,-3.55,-3.55,-3.55,-3.55,-3.5507,-3.5489,-3.5522,-3.5502,-3.554,-3.5604,-3.5612,-3.5715,-3.5919,-3.5912,-3.5935,0.0,0.0,0.0,0.0,0.0,0.0,-3.2156,0.0,-3.119,0.0,0.0,0.0,0.0,0.0,0.0,0.0,-3.119,0.0,0.0,0.0,0.0,0.0,0.0,0.0,-3.1858,-3.1876,-3.193,-3.2002,-3.2055,-3.2127,-3.2266,-3.2299,-3.2436,-3.2638,-3.2638,-3.2687,-3.2818,-3.2687,-3.2638,-3.2638,-3.2638,-3.2638,-3.2638,-3.2784,-3.2848,-3.2864,-3.3019,-3.3144,-3.3223,-3.3448,-3.3549,-3.366,-3.4485,-3.4825,-3.4908,-3.5371,-3.5555,-3.5555,-3.5555,-3.5555,-3.5463,-3.5,-3.4853,-3.4853,-3.4853,-3.4642,-3.438,-3.4343,-3.4171,-3.3985,-3.4023,-3.4099,-3.4185,-3.4221,-3.4293,-3.4374,-3.4427,-3.4487,-3.4556,-3.4607,-3.4701,-3.4792,-3.4879,-3.5089,-3.5239,-3.5281,-3.5316,-3.5331,-3.5331,-3.5331,-3.5339,-3.538,-3.538,-3.5403,-3.5446,-3.5446,-3.546,-3.55,-3.55,-3.55,-3.55,-3.55,-3.5507,-3.5508,-3.5508,-3.5515,-3.5534,-3.5546,-3.5602,-3.5721,-3.5811,-3.5875,-3.334,0.0,0.0,0.0,0.0,0.0,0.0,0.0,0.0,0.0,0.0,0.0,0.0,0.0,0.0,0.0,0.0,-3.1151,0.0,0.0,0.0,0.0,0.0,0.0,0.0,-3.1651,-3.1634,-3.1671,-3.171,-3.1766,-3.1803,-3.1859,-3.1967,-3.2161,-3.2162,-3.2214,-3.2387,-3.2249,-3.2162,-3.2162,-3.2162,-3.2162,-3.2179,-3.2335,-3.2403,-3.242,-3.2586,-3.2718,-3.2832,-3.3117,-3.3301,-3.339,-3.3563,-3.3657,-3.3799,-3.444,-3.4674,-3.4674,-3.4674,-3.4674,-3.4564,-3.399,-3.3807,-3.3807,-3.3807,-3.3807,-3.3807,-3.3807,-3.3847,-3.3868,-3.3868,-3.3947,-3.4023,-3.4023,-3.4074,-3.4136,-3.4185,-3.4221,-3.4257,-3.4305,-3.4416,-3.4495,-3.4517,-3.4821,-3.5053,-3.5107,-3.5132,-3.5149,-3.5149,-3.5149,-3.5166,-3.5218,-3.5226,-3.5266,-3.5335,-3.5357,-3.5412,-3.55,-3.55,-3.55,-3.55,-3.55,-3.55,-3.55,-3.55,-3.5494,-3.5489,-3.5489,-3.5522,-3.5583,-3.5689,-3.5788,0.0,0.0,0.0,-3.1798,0.0,0.0,0.0,0.0,-3.0912,0.0,0.0,0.0,0.0,0.0,0.0,-3.0932,0.0,0.0,0.0,0.0,0.0,0.0,0.0,0.0,0.0,-3.121,-3.1252,0.0,-3.1315,-3.1391,-3.1598,-3.1617,-3.169,-3.1818,-3.1818,-3.1818,-3.1837,-3.1818,-3.1818,-3.1818,-3.1818,-3.1818,-3.1818,-3.1893,-3.1912,-3.193,-3.2197,-3.2318,-3.2352,-3.2684,-3.291,-3.3037,-3.3319,-3.3452,-3.3553,-3.3762,-3.3844,-3.3844,-3.3844,-3.3844,-3.3825,-3.3807,-3.3807,-3.3807,-3.3807,-3.3807,-3.3807,-3.3807,-3.3807,-3.3788,-3.3788,-3.382,-3.382,-3.382,-3.3855,-3.3908,-3.3908,-3.4011,-3.4111,-3.4111,-3.4173,-3.4233,-3.4293,-3.463,-3.4917,-3.4917,-3.4963,-3.5016,-3.5016,-3.5016,-3.5016,-3.5016,-3.5079,-3.5122,-3.5209,-3.527,-3.5364,-3.5493,-3.55,-3.55,-3.55,-3.55,-3.55,-3.55,-3.55,-3.55,-3.55,-3.55,-3.5508,-3.5496,-3.5574,-3.5635,-3.1805,-3.145,-3.1033,-3.059,0.0,0.0,0.0,0.0,0.0,0.0,0.0,0.0,0.0,0.0,0.0,0.0,0.0,0.0,0.0,0.0,0.0,0.0,0.0,0.0,0.0,0.0,0.0,0.0,-3.1232,-3.1252,-3.1329,-3.1346,-3.1387,-3.1466,-3.1466,-3.1521,-3.1612,-3.1521,-3.1466,-3.1466,-3.1466,-3.1466,-3.1485,-3.1578,-3.1651,-3.1634,-3.1784,-3.1893,-3.1984,-3.2283,-3.2453,-3.2571,-3.2878,-3.3068,-3.3223,-3.3583,-3.3739,-3.3739,-3.3793,-3.3807,-3.3807,-3.3807,-3.3807,-3.3807,-3.3807,-3.3807,-3.3807,-3.3807,-3.3807,-3.3807,-3.3807,-3.3807,-3.3807,-3.3807,-3.382,-3.3829,-3.3829,-3.3868,-3.3895,-3.3895,-3.3959,-3.4011,-3.4036,-3.4215,-3.4413,-3.4553,-3.4588,-3.4609,-3.4609,-3.4609,-3.4641,-3.4732,-3.4801,-3.4898,-3.5046,-3.5209,-3.5324,-3.5365,-3.5417,-3.5427,-3.5427,-3.5486,-3.55,-3.55,-3.55,-3.55,-3.55,-3.55,-3.5507,-3.5501,-3.5522,-3.5571,-3.1189,-3.0731,-3.0274,-2.9779,-2.9501,0.0,-2.9461,0.0,-3.0032,0.0,0.0,0.0,0.0,0.0,0.0,0.0,0.0,0.0,0.0,-3.0671,0.0,0.0,0.0,0.0,0.0,0.0,0.0,-3.1131,-3.1131,-3.1151,-3.119,-3.119,-3.123,-3.1254,-3.1254,-3.131,-3.1402,-3.131,-3.1254,-3.1254,-3.1254,-3.1254,-3.1274,-3.1346,-3.1402,-3.1402,-3.1447,-3.1542,-3.1653,-3.1893,-3.2038,-3.2144,-3.247,-3.2635,-3.2816,-3.3339,-3.3573,-3.3647,-3.3671,-3.3726,-3.3766,-3.3766,-3.378,-3.3807,-3.3807,-3.3807,-3.3807,-3.3807,-3.3807,-3.3807,-3.3807,-3.3807,-3.3807,-3.3807,-3.3807,-3.3807,-3.3807,-3.3807,-3.3807,-3.3807,-3.3829,-3.3855,-3.3855,-3.3934,-3.4061,-3.4257,-3.4305,-3.4328,-3.4328,-3.4328,-3.4351,-3.445,-3.4539,-3.4678,-3.4908,-3.5082,-3.5176,-3.5226,-3.5289,-3.5335,-3.5364,-3.542,-3.5486,-3.55,-3.55,-3.55,-3.55,-3.55,-3.55,-3.55,-3.55,-3.5521]},{"header":{"parameterUnit":"m.s-1","parameterCategory":1,"la1":30.6,"la2":29.2853,"lo1":-89.7004,"lo2":-87.6739,"dy":0.0162,"dx":0.0183,"nx":112,"ny":82,"refTime":"2023-09-03T00:00:00:Z","depth":0,"parameterNumber":3,"parameterNumberName":"V-component_of_WINDS"},"data":[0.0,0.0,0.0,0.0,0.0,0.0,0.0,0.0,0.0,0.0,0.0,0.0,0.0,0.0,0.0,0.0,0.0,0.0,0.0,0.0,0.0,0.0,0.0,0.0,0.0,0.0,0.0,0.0,0.0,0.0,0.0,0.0,0.0,0.0,0.0,0.0,0.0,0.0,0.0,0.0,0.0,0.0,0.0,0.0,0.0,0.0,0.0,0.0,0.0,0.0,0.0,0.0,0.0,0.0,0.0,0.0,0.0,0.0,0.0,0.0,0.0,0.0,0.0,0.0,0.0,0.0,0.0,0.0,0.0,0.0,0.0,0.0,0.0,0.0,0.0,0.0,0.0,0.0,0.0,0.0,0.0,0.0,0.0,0.0,0.0,0.0,0.0,0.0,0.0,0.0,-1.8008,-1.8008,-1.8008,-1.8008,-1.8008,-1.8008,-1.8076,-1.8303,0.0,0.0,0.0,0.0,0.0,0.0,0.0,0.0,0.0,0.0,0.0,0.0,0.0,0.0,0.0,0.0,0.0,0.0,0.0,0.0,0.0,0.0,0.0,0.0,0.0,0.0,0.0,0.0,0.0,0.0,0.0,0.0,0.0,0.0,0.0,0.0,0.0,0.0,0.0,0.0,0.0,0.0,0.0,0.0,0.0,0.0,0.0,0.0,0.0,0.0,0.0,0.0,0.0,0.0,0.0,0.0,0.0,0.0,0.0,0.0,0.0,0.0,0.0,0.0,0.0,0.0,0.0,0.0,0.0,0.0,0.0,0.0,0.0,0.0,0.0,0.0,0.0,0.0,0.0,0.0,0.0,0.0,0.0,0.0,0.0,0.0,0.0,0.0,0.0,0.0,0.0,0.0,0.0,0.0,0.0,0.0,0.0,0.0,0.0,0.0,0.0,0.0,0.0,0.0,-1.8008,-1.8008,-1.8008,-1.8008,-1.8008,-1.8008,-1.8076,-1.8303,0.0,0.0,0.0,0.0,0.0,0.0,0.0,0.0,0.0,0.0,0.0,0.0,0.0,0.0,0.0,0.0,0.0,0.0,0.0,0.0,0.0,0.0,0.0,0.0,0.0,0.0,0.0,0.0,0.0,0.0,0.0,0.0,0.0,0.0,0.0,0.0,0.0,0.0,0.0,0.0,0.0,0.0,0.0,0.0,0.0,0.0,0.0,0.0,0.0,0.0,0.0,0.0,0.0,0.0,0.0,0.0,0.0,0.0,0.0,0.0,0.0,0.0,0.0,0.0,0.0,0.0,0.0,0.0,0.0,0.0,0.0,0.0,0.0,0.0,0.0,0.0,0.0,0.0,0.0,0.0,0.0,0.0,0.0,0.0,0.0,0.0,0.0,0.0,0.0,0.0,0.0,0.0,0.0,0.0,0.0,0.0,0.0,0.0,0.0,0.0,0.0,0.0,0.0,-1.8008,-1.8008,-1.8008,-1.8008,-1.8008,-1.8008,-1.8008,-1.811,-1.8381,-1.8414,0.0,0.0,0.0,0.0,0.0,0.0,0.0,0.0,0.0,0.0,0.0,0.0,0.0,0.0,0.0,0.0,0.0,0.0,0.0,0.0,0.0,0.0,0.0,0.0,0.0,0.0,0.0,0.0,0.0,0.0,0.0,0.0,0.0,0.0,0.0,0.0,0.0,0.0,0.0,0.0,0.0,0.0,0.0,0.0,0.0,0.0,0.0,0.0,0.0,0.0,0.0,0.0,0.0,0.0,0.0,0.0,0.0,0.0,0.0,0.0,0.0,0.0,0.0,0.0,0.0,0.0,0.0,0.0,0.0,0.0,0.0,0.0,0.0,0.0,0.0,0.0,0.0,0.0,0.0,0.0,0.0,0.0,0.0,0.0,0.0,0.0,0.0,0.0,0.0,0.0,0.0,0.0,0.0,0.0,0.0,0.0,0.0,0.0,0.0,0.0,0.0,0.0,-1.8008,-1.8008,-1.8008,-1.8008,-1.8008,-1.8008,-1.8008,-1.8144,-1.8414,-1.8448,0.0,0.0,0.0,0.0,0.0,0.0,0.0,0.0,0.0,0.0,0.0,0.0,0.0,0.0,0.0,0.0,0.0,0.0,0.0,0.0,0.0,0.0,0.0,0.0,0.0,0.0,0.0,0.0,0.0,0.0,0.0,0.0,0.0,0.0,0.0,0.0,0.0,0.0,0.0,0.0,0.0,0.0,0.0,0.0,0.0,0.0,0.0,0.0,0.0,0.0,0.0,0.0,0.0,0.0,0.0,0.0,0.0,0.0,0.0,0.0,0.0,0.0,0.0,0.0,0.0,0.0,0.0,0.0,0.0,0.0,0.0,0.0,0.0,0.0,0.0,0.0,0.0,0.0,0.0,0.0,0.0,0.0,0.0,0.0,0.0,0.0,0.0,0.0,0.0,0.0,0.0,0.0,0.0,0.0,0.0,0.0,0.0,0.0,0.0,0.0,0.0,0.0,-1.8008,-1.8008,-1.8008,-1.8008,-1.8008,-1.8008,-1.8008,-1.8076,-1.8303,-1.8303,0.0,0.0,0.0,0.0,0.0,0.0,0.0,0.0,0.0,0.0,0.0,0.0,0.0,0.0,0.0,0.0,0.0,0.0,0.0,0.0,0.0,0.0,0.0,0.0,0.0,0.0,0.0,0.0,0.0,0.0,0.0,0.0,0.0,0.0,0.0,0.0,0.0,0.0,0.0,0.0,0.0,0.0,0.0,0.0,0.0,0.0,0.0,0.0,0.0,0.0,0.0,0.0,0.0,0.0,0.0,0.0,0.0,0.0,0.0,0.0,0.0,0.0,0.0,0.0,0.0,0.0,0.0,0.0,0.0,0.0,0.0,0.0,0.0,0.0,0.0,0.0,0.0,0.0,0.0,0.0,0.0,0.0,0.0,0.0,0.0,0.0,0.0,0.0,0.0,0.0,0.0,0.0,0.0,0.0,0.0,0.0,0.0,0.0,0.0,0.0,0.0,0.0,-1.8008,-1.8008,0.0,-1.8008,-1.8008,-1.8008,-1.8008,-1.8076,-1.8303,0.0,0.0,0.0,0.0,0.0,0.0,0.0,0.0,0.0,0.0,0.0,0.0,0.0,0.0,0.0,0.0,0.0,0.0,0.0,0.0,0.0,0.0,0.0,0.0,0.0,0.0,0.0,0.0,0.0,0.0,0.0,0.0,0.0,0.0,0.0,0.0,0.0,0.0,0.0,0.0,0.0,0.0,0.0,0.0,0.0,0.0,0.0,0.0,0.0,0.0,0.0,0.0,0.0,0.0,0.0,0.0,0.0,0.0,0.0,0.0,0.0,0.0,0.0,0.0,0.0,0.0,0.0,0.0,0.0,0.0,0.0,0.0,0.0,0.0,0.0,0.0,0.0,0.0,0.0,0.0,0.0,0.0,0.0,0.0,0.0,0.0,0.0,0.0,0.0,0.0,0.0,0.0,0.0,0.0,0.0,0.0,0.0,0.0,0.0,0.0,0.0,0.0,-1.8008,-1.8008,-1.8008,0.0,-1.8008,-1.8008,-1.8008,-1.8008,-1.8076,-1.8212,0.0,0.0,0.0,0.0,0.0,0.0,0.0,0.0,0.0,0.0,0.0,0.0,0.0,0.0,0.0,0.0,0.0,0.0,0.0,0.0,0.0,0.0,0.0,0.0,0.0,0.0,0.0,0.0,0.0,0.0,0.0,0.0,0.0,0.0,0.0,0.0,0.0,0.0,0.0,0.0,0.0,0.0,0.0,0.0,0.0,0.0,0.0,0.0,0.0,0.0,0.0,0.0,0.0,0.0,0.0,0.0,0.0,0.0,0.0,0.0,0.0,0.0,0.0,0.0,0.0,0.0,0.0,0.0,0.0,0.0,0.0,0.0,0.0,0.0,0.0,0.0,0.0,0.0,0.0,0.0,0.0,0.0,0.0,0.0,0.0,0.0,0.0,0.0,0.0,0.0,0.0,0.0,0.0,0.0,0.0,0.0,0.0,0.0,0.0,0.0,0.0,0.0,-1.8008,-1.8008,-1.8008,-1.8008,-1.8008,-1.8008,-1.8008,-1.8008,-1.8008,0.0,0.0,0.0,0.0,0.0,0.0,0.0,0.0,0.0,0.0,0.0,0.0,0.0,0.0,0.0,0.0,0.0,0.0,0.0,0.0,0.0,0.0,0.0,0.0,0.0,0.0,0.0,0.0,0.0,0.0,0.0,0.0,0.0,0.0,0.0,0.0,0.0,0.0,0.0,0.0,0.0,0.0,0.0,0.0,0.0,0.0,0.0,0.0,0.0,0.0,0.0,0.0,0.0,0.0,0.0,0.0,0.0,0.0,0.0,0.0,0.0,0.0,0.0,0.0,0.0,0.0,0.0,0.0,0.0,0.0,0.0,0.0,0.0,0.0,0.0,0.0,0.0,0.0,0.0,0.0,0.0,0.0,0.0,0.0,0.0,0.0,0.0,0.0,0.0,0.0,0.0,0.0,0.0,0.0,0.0,0.0,0.0,0.0,0.0,0.0,0.0,0.0,0.0,-1.8008,-1.8008,-1.8008,-1.8008,-1.8008,-1.8008,-1.8008,-1.8008,-1.8008,-1.8008,0.0,0.0,0.0,0.0,0.0,0.0,0.0,0.0,0.0,0.0,0.0,0.0,0.0,0.0,0.0,0.0,0.0,0.0,0.0,0.0,0.0,0.0,0.0,0.0,0.0,0.0,0.0,0.0,0.0,0.0,0.0,0.0,0.0,0.0,0.0,0.0,0.0,0.0,0.0,0.0,0.0,0.0,0.0,0.0,0.0,0.0,0.0,0.0,0.0,0.0,0.0,0.0,0.0,0.0,0.0,0.0,0.0,0.0,0.0,0.0,0.0,0.0,0.0,0.0,0.0,0.0,0.0,0.0,0.0,0.0,0.0,0.0,0.0,0.0,0.0,0.0,0.0,0.0,0.0,0.0,0.0,0.0,0.0,0.0,0.0,0.0,0.0,0.0,0.0,0.0,0.0,0.0,0.0,0.0,0.0,0.0,0.0,0.0,0.0,0.0,0.0,0.0,-1.8008,-1.8008,-1.8008,-1.8008,-1.8008,-1.8008,-1.8008,-1.8008,-1.8008,-1.8008,0.0,0.0,0.0,0.0,0.0,0.0,0.0,0.0,0.0,0.0,0.0,0.0,0.0,0.0,0.0,0.0,0.0,0.0,0.0,0.0,0.0,0.0,0.0,0.0,0.0,0.0,0.0,0.0,0.0,0.0,0.0,0.0,0.0,0.0,0.0,0.0,0.0,0.0,0.0,0.0,0.0,0.0,0.0,0.0,0.0,0.0,0.0,0.0,0.0,0.0,0.0,0.0,0.0,0.0,0.0,0.0,0.0,0.0,0.0,0.0,0.0,0.0,0.0,0.0,0.0,0.0,0.0,0.0,0.0,0.0,0.0,0.0,0.0,0.0,0.0,0.0,0.0,0.0,0.0,0.0,0.0,0.0,0.0,0.0,0.0,0.0,0.0,0.0,0.0,0.0,0.0,0.0,0.0,0.0,0.0,0.0,0.0,0.0,0.0,0.0,0.0,0.0,-1.8008,-1.8008,-1.8008,-1.8008,-1.8008,-1.8008,-1.8008,-1.8008,-1.8008,-1.8008,0.0,0.0,0.0,0.0,0.0,0.0,0.0,0.0,0.0,0.0,0.0,0.0,0.0,0.0,0.0,0.0,0.0,0.0,0.0,0.0,0.0,0.0,0.0,0.0,0.0,0.0,0.0,0.0,0.0,0.0,0.0,0.0,0.0,0.0,0.0,0.0,0.0,0.0,0.0,0.0,0.0,0.0,0.0,0.0,0.0,0.0,0.0,0.0,0.0,0.0,0.0,0.0,0.0,0.0,0.0,0.0,0.0,0.0,0.0,0.0,-1.2224,0.0,0.0,0.0,0.0,0.0,0.0,0.0,0.0,0.0,0.0,0.0,0.0,0.0,0.0,0.0,0.0,0.0,0.0,0.0,0.0,0.0,0.0,0.0,0.0,0.0,0.0,0.0,0.0,0.0,0.0,0.0,0.0,0.0,0.0,0.0,0.0,0.0,0.0,0.0,0.0,0.0,-1.8008,-1.8008,-1.8008,-1.8008,-1.8008,-1.8008,-1.8008,-1.8008,-1.8008,-1.8008,-1.8008,0.0,0.0,0.0,0.0,0.0,0.0,0.0,0.0,0.0,0.0,0.0,0.0,0.0,0.0,0.0,0.0,0.0,0.0,0.0,0.0,0.0,0.0,0.0,0.0,0.0,0.0,0.0,0.0,0.0,0.0,0.0,0.0,0.0,0.0,0.0,0.0,0.0,0.0,0.0,0.0,0.0,0.0,0.0,0.0,0.0,0.0,0.0,0.0,0.0,0.0,0.0,0.0,0.0,0.0,0.0,0.0,0.0,0.0,0.0,0.0,-1.2224,0.0,0.0,0.0,0.0,0.0,0.0,0.0,0.0,0.0,0.0,0.0,0.0,0.0,0.0,0.0,0.0,0.0,0.0,0.0,0.0,0.0,0.0,0.0,0.0,0.0,0.0,0.0,0.0,0.0,0.0,0.0,0.0,0.0,0.0,0.0,0.0,0.0,0.0,0.0,0.0,-1.8008,-1.8008,-1.8008,-1.8008,-1.8008,-1.8008,-1.8008,-1.8008,-1.8008,-1.8008,-1.8008,0.0,0.0,0.0,0.0,0.0,0.0,0.0,0.0,0.0,0.0,0.0,0.0,0.0,0.0,0.0,0.0,0.0,0.0,0.0,0.0,0.0,0.0,0.0,0.0,0.0,0.0,0.0,0.0,0.0,0.0,0.0,0.0,0.0,0.0,0.0,0.0,0.0,0.0,0.0,0.0,0.0,0.0,0.0,0.0,0.0,0.0,0.0,0.0,0.0,0.0,0.0,0.0,0.0,-0.9533,-1.003,-1.0594,-1.0812,-1.1149,-1.1595,-1.1818,-1.204,-1.2305,-1.2305,0.0,0.0,0.0,0.0,0.0,0.0,0.0,0.0,0.0,0.0,0.0,0.0,0.0,0.0,0.0,0.0,0.0,0.0,0.0,0.0,0.0,0.0,-1.3083,-1.3083,-1.3404,-1.4013,-1.5125,0.0,0.0,0.0,0.0,0.0,0.0,0.0,0.0,0.0,0.0,0.0,-1.8008,-1.8008,-1.8008,-1.8008,-1.8008,-1.8008,-1.8008,-1.8008,-1.8008,-1.8008,-1.8008,-1.8008,0.0,0.0,0.0,0.0,0.0,0.0,0.0,0.0,0.0,0.0,0.0,0.0,0.0,0.0,0.0,0.0,0.0,0.0,0.0,0.0,0.0,0.0,0.0,0.0,0.0,0.0,0.0,0.0,0.0,0.0,0.0,0.0,-0.0982,-0.1375,0.0,0.0,0.0,0.0,0.0,0.0,0.0,0.0,0.0,0.0,0.0,0.0,0.0,-0.6412,-0.6679,-0.7253,-0.7783,-0.8271,-0.8846,-0.9344,-0.9771,-0.996,-1.0481,-1.1186,-1.1409,0.0,-1.2305,-1.2305,0.0,0.0,0.0,0.0,0.0,0.0,0.0,0.0,0.0,0.0,0.0,0.0,0.0,0.0,0.0,0.0,0.0,0.0,0.0,0.0,0.0,0.0,-1.2673,-1.2673,-1.3003,-1.3339,-1.3521,-1.4338,-1.5294,-1.5974,-1.6429,-1.6855,0.0,0.0,0.0,0.0,0.0,0.0,-1.8008,-1.8008,-1.8008,-1.8008,-1.8008,-1.8008,-1.8008,-1.8008,-1.8008,-1.8008,-1.8008,-1.8008,-1.8008,-1.8008,0.0,0.0,0.0,0.0,0.0,0.0,0.0,0.0,0.0,0.0,0.0,0.0,0.0,0.0,0.0,0.0,0.0,0.0,0.0,0.0,0.0,0.0,0.0,0.0,0.0,0.0,0.0,0.0,0.0,-0.0314,-0.0667,-0.0864,-0.1688,-0.247,0.0,0.0,0.0,0.0,0.0,0.0,0.0,0.0,0.0,-0.63,-0.63,-0.6412,-0.6602,-0.698,-0.7326,-0.7595,-0.7974,-0.836,-0.8784,-0.9084,-0.9647,-1.0443,-1.0775,-1.1186,-1.1669,-1.2114,-1.2305,-1.2305,0.0,0.0,0.0,0.0,-1.2305,-1.2305,-1.2305,-1.2305,-1.2305,-1.2305,0.0,0.0,0.0,0.0,0.0,0.0,0.0,-1.2305,-1.2305,-1.2378,-1.2415,-1.2415,-1.2562,-1.2716,-1.2826,-1.3324,-1.4049,-1.4867,-1.5551,-1.6088,-1.6464,-1.6925,0.0,0.0,0.0,-1.7862,-1.7974,-1.8008,-1.8008,-1.8008,-1.8008,-1.8008,-1.8008,-1.8008,-1.8008,-1.8008,-1.8008,-1.8008,-1.8008,-1.8008,-1.8008,0.0,0.0,0.0,0.0,0.0,0.0,0.0,0.0,0.0,0.0,0.0,0.0,0.0,0.0,0.0,0.0,0.0,0.0,0.0,0.0,0.0,0.0,0.0,0.0,0.0,0.0,0.0,0.0,-0.0157,-0.0393,-0.0589,-0.1178,-0.1846,0.0,0.0,0.0,0.0,0.0,0.0,-0.6261,-0.63,-0.63,-0.63,-0.63,-0.6377,-0.6525,-0.6714,-0.6907,-0.7065,-0.7253,-0.7561,-0.7949,-0.8322,-0.8927,-0.9765,-1.0105,-1.0513,-1.0999,-1.1744,-1.2077,-1.2077,-1.2187,-1.2231,-1.2224,-1.2268,-1.2305,-1.2305,-1.2305,-1.2305,-1.2305,-1.2305,-1.2305,-1.2305,-1.2305,0.0,0.0,0.0,0.0,-1.2305,-1.2305,-1.2305,-1.2305,-1.2305,-1.2305,-1.2342,-1.2489,-1.2673,-1.3076,-1.3912,-1.4669,-1.5311,-1.5657,-1.6289,0.0,0.0,0.0,-1.7784,-1.7974,-1.8008,-1.8008,-1.8008,-1.8008,-1.8008,-1.8008,-1.8008,-1.8008,-1.8008,-1.8008,-1.8008,-1.8008,-1.8008,-1.8008,-1.8008,0.0,0.0,0.0,0.0,0.0,0.0,0.0,0.0,0.0,0.0,0.0,0.0,0.0,0.0,0.0,0.0,0.0,0.0,0.0,0.0,0.0,0.0,0.0,0.0,0.0,0.0,0.0,0.0,0.0,-0.0589,-0.1178,0.0,0.0,0.0,0.0,-0.4927,-0.5359,-0.5792,-0.6261,-0.63,-0.63,-0.63,-0.63,-0.63,-0.63,-0.6525,-0.6637,-0.6641,-0.6826,-0.7134,-0.7522,-0.7744,-0.8389,-0.9334,-0.9539,-0.9992,-1.0588,-1.1186,-1.1446,-1.1484,-1.1855,-1.2003,-1.204,-1.2224,-1.2305,-1.2305,-1.2305,-1.2305,-1.2305,-1.2305,-1.2305,-1.2305,-1.2305,-1.2305,0.0,0.0,-1.2305,-1.2305,-1.2305,-1.2305,-1.2305,-1.2305,-1.2305,-1.2305,-1.2305,-1.2489,-1.2783,-1.3419,-1.3992,-1.4482,-1.4903,0.0,-1.6455,-1.6874,-1.7373,-1.7784,-1.7974,-1.8008,-1.8008,-1.8008,-1.8008,-1.8008,-1.8008,-1.8008,-1.8008,-1.8008,-1.8008,-1.8008,-1.8008,-1.8008,-1.8008,-1.8008,-1.8008,0.0,0.0,0.0,0.0,0.0,0.0,0.0,0.0,0.0,0.0,0.0,0.0,0.0,0.0,0.0,0.0,0.0,0.0,0.0,0.0,0.0,0.0,0.0,0.0,0.0,0.0,0.0,0.0,-0.0393,-0.0864,0.0,-0.2235,-0.3214,-0.4151,-0.4927,-0.5473,-0.5944,-0.63,-0.6385,-0.6436,-0.6436,-0.6491,-0.6542,-0.6542,-0.6623,-0.666,-0.666,-0.6741,-0.6899,-0.7181,-0.7383,-0.7821,-0.8413,-0.8626,-0.8906,-0.9245,-0.9618,-1.0275,-1.1037,-1.1298,-1.1484,-1.1632,-1.2003,-1.2114,-1.212,-1.2261,-1.2305,-1.2305,-1.2305,-1.2305,-1.2305,-1.2305,-1.2305,-1.2305,-1.2305,-1.2305,-1.2305,-1.2305,-1.2305,-1.2305,-1.2305,-1.2305,-1.2305,-1.2305,-1.2378,-1.2489,-1.2673,-1.3193,-1.3731,-1.4122,-1.4859,-1.5613,-1.6228,-1.6925,-1.7476,-1.7784,-1.794,-1.8008,-1.8008,-1.8008,-1.8008,-1.8008,-1.8008,-1.8008,-1.8008,-1.8008,-1.8008,-1.8008,-1.8008,-1.8008,-1.8008,-1.8008,-1.8008,0.0,0.0,0.0,0.0,0.0,0.0,0.0,0.0,0.0,0.0,0.0,0.0,0.0,0.0,0.0,0.0,0.0,0.0,0.0,0.0,0.0,0.0,0.0,0.0,0.0,0.0,-0.0118,-0.0353,-0.0786,-0.1374,-0.2235,-0.3238,-0.4163,-0.4985,-0.5619,-0.6086,-0.6407,-0.6538,-0.6549,-0.6549,-0.6647,-0.6702,-0.6702,-0.6702,-0.6702,-0.6702,-0.6702,-0.6823,-0.7022,-0.7154,-0.7398,-0.7806,-0.7934,-0.8098,-0.8291,-0.8492,-0.9113,-0.9978,-1.0506,-1.0812,-1.1037,-1.1446,-1.1669,-1.1855,-1.2114,-1.2187,-1.2224,-1.2268,-1.2305,-1.2305,-1.2305,-1.2305,-1.2305,-1.2305,-1.2305,-1.2305,-1.2305,-1.2305,-1.2305,-1.2305,-1.2305,-1.2305,-1.2305,-1.2305,-1.2305,-1.2305,-1.2673,-1.3119,-1.355,-1.423,-1.4947,-1.5736,-1.6508,-1.7166,-1.7588,-1.7794,-1.794,-1.7974,-1.8008,-1.8008,-1.8008,-1.8008,-1.8008,-1.8008,-1.8008,-1.8008,-1.8008,-1.8008,-1.8008,-1.8008,-1.8008,-1.8008,-1.8008,0.0,0.0,0.0,0.0,0.0,0.0,0.0,0.0,0.0,0.0,0.0,0.0,0.0,0.0,0.0,0.0,0.0,0.0,0.0,0.0,0.0,0.0,0.0,0.0,0.0,-0.0157,-0.055,-0.1022,-0.1612,-0.2399,-0.3331,-0.4266,-0.5151,-0.5712,-0.6201,-0.6657,-0.6705,-0.6709,-0.6709,-0.6712,-0.6715,-0.6715,-0.6715,-0.6715,-0.6715,-0.6715,-0.6836,-0.6995,-0.6995,-0.7206,-0.7578,-0.7578,-0.7702,-0.7859,-0.7896,-0.7983,-0.8278,-0.9426,-0.997,-1.0191,-1.0637,-1.1043,-1.1446,-1.1818,-1.1966,-1.2003,-1.2224,-1.2268,-1.2298,-1.2298,-1.2305,-1.2305,-1.2305,-1.2305,-1.2305,-1.2305,-1.2305,-1.2305,-1.2305,-1.2305,-1.2305,-1.2305,-1.2305,-1.2305,-1.2305,-1.2452,-1.2709,-1.3119,-1.3804,-1.4561,-1.5355,-1.6088,0.0,-1.7392,-1.7588,-1.775,-1.794,-1.7974,-1.7974,-1.7974,-1.8008,-1.8008,-1.8008,-1.8008,-1.8008,-1.8008,-1.8008,-1.8008,-1.8008,-1.8008,-1.8008,-1.8008,0.0,0.0,0.0,0.0,0.0,0.0,0.0,0.0,0.0,0.0,0.0,0.0,0.0,0.0,0.0,0.0,0.0,0.0,0.0,0.0,0.0,0.0,0.0,0.0,0.0,-0.0079,-0.0362,-0.0806,-0.1419,-0.2266,-0.3316,-0.4322,-0.5193,-0.585,-0.637,-0.6698,-0.6807,-0.6865,-0.6865,-0.6923,-0.6974,-0.6974,-0.6974,-0.6974,-0.6974,-0.6974,-0.7017,-0.7061,-0.7061,-0.7147,-0.7234,-0.7234,-0.7277,-0.731,-0.7371,-0.7409,-0.7601,-0.8729,-0.9221,-0.9354,-1.0087,-1.0629,-1.0962,-1.1074,-1.1335,-1.1558,-1.1632,-1.1855,-1.2077,-1.2077,-1.2187,-1.2305,-1.2305,-1.2305,-1.2305,-1.2305,-1.2305,-1.2305,-1.2305,-1.2305,-1.2305,-1.2305,-1.2305,-1.2305,-1.2305,-1.2342,-1.2452,-1.2709,-1.3302,-1.392,-1.4525,-1.5409,0.0,-1.6586,-1.7028,-1.7373,-1.7407,-1.7647,-1.7784,-1.7784,-1.794,-1.8008,-1.8008,-1.8008,-1.8008,-1.8008,-1.8008,-1.8008,-1.8008,-1.8008,-1.8008,0.0,0.0,0.0,0.0,0.0,0.0,0.0,0.0,0.0,0.0,0.0,0.0,0.0,0.0,0.0,0.0,0.0,0.0,0.0,0.0,0.0,0.0,0.008,0.0,0.0,0.0,-0.008,-0.0288,-0.0619,-0.1162,-0.1932,-0.2921,-0.3914,-0.4892,-0.5577,-0.6198,-0.681,-0.6946,-0.7073,-0.721,-0.7292,-0.7287,-0.7287,-0.7287,-0.7287,-0.7287,-0.7287,-0.7287,-0.7287,-0.7287,-0.7287,-0.7284,-0.7265,-0.7238,-0.7227,-0.7162,-0.714,-0.7249,0.0,0.0,0.0,0.0,-0.987,-1.0056,-1.04,-1.0636,-1.0812,-1.1074,-1.1372,-1.1632,-1.1706,-1.1966,-1.215,-1.215,-1.2224,-1.2305,-1.2305,-1.2305,-1.2305,-1.2305,-1.2305,-1.2305,-1.2305,-1.2305,-1.2305,-1.2305,-1.2305,0.0,-1.2452,-1.29,-1.3448,-1.4013,-1.4697,-1.5374,-1.5885,-1.6333,-1.6707,-1.6925,-1.7201,-1.7407,-1.7467,-1.7716,0.0,0.0,0.0,-1.8008,-1.8008,-1.8008,0.0,0.0,0.0,-1.8008,-1.8008,-1.8008,0.0,0.0,-1.8008,-1.8008,0.0,0.0,0.0,0.0,0.0,0.0,0.0,0.0,0.0,0.0,0.0,0.0,0.0,0.0,0.0,0.0,0.0,0.0,0.0,0.0,-0.0083,-0.0253,-0.0466,-0.0849,-0.1487,-0.2252,-0.32,-0.4341,-0.5032,-0.5828,-0.685,0.0,0.0,0.0,0.0,-0.76,-0.76,-0.76,-0.76,-0.76,-0.76,-0.76,-0.76,-0.76,-0.76,-0.7594,-0.7455,-0.7443,-0.7387,-0.7248,-0.7139,-0.718,-0.7429,-0.7714,-0.7995,-0.8755,-0.8922,-0.8934,-0.9715,0.0,0.0,-1.0413,-1.0778,-1.1035,-1.1192,-1.1558,-1.1892,-1.1929,-1.2077,-1.2268,-1.2268,-1.2268,-1.2305,-1.2305,-1.2305,-1.2305,-1.2305,-1.2305,-1.2305,-1.2305,-1.2305,-1.2305,-1.2305,-1.2599,-1.3039,-1.3615,-1.3977,-1.4489,-1.5213,-1.5524,-1.5868,-1.6324,0.0,0.0,-1.7063,-1.7407,-1.7604,-1.7638,-1.7862,-1.7974,-1.8008,-1.8008,-1.8008,-1.8008,-1.8008,-1.8008,-1.8008,-1.8008,-1.8008,-1.8008,-1.8008,-1.8008,0.0,0.0,0.0,0.0,0.0,0.0,0.0,0.0,0.0,0.0,0.0,0.0,0.0,0.0,0.0,0.0084,0.0,0.0,0.0,0.0,0.0,-0.0043,-0.0263,-0.0625,-0.1134,-0.1896,-0.276,-0.3786,-0.4518,-0.5291,-0.6145,-0.6638,-0.6982,-0.7261,-0.7503,-0.76,-0.76,-0.76,-0.76,-0.76,0.0,0.0,-0.76,-0.76,-0.76,-0.7597,-0.7567,-0.7556,-0.7553,-0.7522,-0.7438,-0.734,-0.73,-0.7515,-0.7881,-0.7903,-0.8078,-0.8376,-0.8539,-0.8914,-0.9332,-0.9281,-0.9769,-1.039,-1.0425,-1.0812,0.0,-1.1484,-1.1781,-1.2077,-1.2077,-1.2187,-1.2305,-1.2305,-1.2305,-1.2305,-1.2305,-1.2305,-1.2305,-1.2305,-1.2305,-1.2305,-1.2305,-1.2489,-1.2746,-1.3039,-1.3411,-1.3775,-1.4086,-1.4537,-1.4851,-1.4994,-1.5613,-1.6079,-1.6219,-1.6751,-1.7107,-1.7304,-1.7579,-1.7828,-1.7974,-1.8008,-1.8008,-1.8008,-1.8008,-1.8008,-1.8008,-1.8008,-1.8008,-1.8008,-1.8008,-1.8008,0.0,0.0,0.0,0.0,0.0,0.0,0.0,0.0,0.0,0.0,0.0,0.2016,0.0,0.0,0.0507,0.0085,0.0,0.0,0.0,0.0,0.0,0.0,-0.0137,-0.0325,-0.0704,-0.1184,-0.1857,-0.2855,-0.3551,-0.4438,-0.5499,-0.5986,-0.6406,-0.6791,-0.694,-0.6991,-0.6991,-0.714,-0.7191,-0.7191,-0.7482,-0.7579,-0.7627,-0.7724,-0.7821,-0.7818,-0.774,-0.7706,-0.7699,-0.7631,-0.7553,-0.7508,-0.7368,-0.7362,-0.7501,-0.755,-0.7596,-0.7735,-0.7987,-0.8218,-0.8405,-0.8518,-0.9006,-0.9582,-0.967,-1.0142,-1.0696,-1.0886,-1.117,-1.1446,-1.1632,-1.1781,-1.1892,-1.2114,-1.215,-1.2187,-1.2268,-1.2305,-1.2305,-1.2305,-1.2305,-1.2305,-1.2305,-1.2378,-1.2526,-1.2709,-1.2936,-1.3156,-1.3441,-1.3724,-1.397,-1.4178,-1.4724,-1.5117,-1.5286,-1.6105,-1.6777,-1.7166,-1.7442,-1.7632,-1.7745,-1.7794,-1.7862,-1.7862,-1.794,-1.8008,-1.8008,-1.8008,-1.8008,-1.8008,-1.8008,-1.8008,0.0,0.0,0.0,0.0,0.0,0.0,0.0,0.0,0.3148,0.2636,0.183,0.1107,0.0639,0.0427,0.0258,0.0044,0.0,0.0,0.0,0.0,0.0,0.0,0.0,-0.0096,-0.0383,-0.0529,-0.1012,-0.1927,-0.2539,-0.3397,-0.4579,-0.5092,-0.5584,-0.6087,-0.6187,-0.6237,-0.6237,-0.6439,-0.6592,-0.6645,-0.7144,-0.7444,-0.7543,-0.7793,-0.7939,-0.7982,-0.7909,-0.7855,-0.7845,-0.7699,-0.7641,-0.7628,-0.7475,-0.7322,-0.7183,-0.7337,-0.7334,-0.7221,-0.7612,-0.7654,-0.7617,-0.7915,-0.8317,-0.8721,-0.8882,-0.9401,-0.9977,-1.0208,-1.0467,-1.0776,-1.1071,-1.1222,-1.1372,-1.1744,-1.1855,-1.1966,-1.2194,-1.2224,-1.2268,-1.2298,-1.2305,-1.2305,-1.2305,-1.2305,-1.2378,-1.2526,-1.2526,-1.2673,-1.2973,-1.3046,-1.3229,-1.3542,-1.3869,-1.4194,-1.4537,-1.5463,-1.6315,-1.6915,-1.7141,-1.7298,-1.7367,-1.751,-1.7604,-1.7604,-1.7794,-1.7906,-1.7906,-1.794,-1.794,-1.794,-1.7974,-1.8008,0.7048,0.7048,0.0,0.7048,0.6565,0.5951,0.0,0.0,0.3027,0.2361,0.1648,0.098,0.049,0.0401,0.0314,0.0046,0.0,0.0,0.0,0.0,0.0,0.0,0.0,-0.0098,-0.0391,-0.0397,-0.0703,-0.1255,-0.1809,-0.2412,-0.3017,-0.3974,-0.4682,-0.4985,-0.5436,-0.5687,-0.5687,-0.5737,-0.5839,-0.6092,-0.6389,-0.6789,-0.7238,-0.7543,-0.7793,-0.7988,-0.7971,-0.7965,-0.7951,-0.7848,-0.7787,-0.7773,-0.7631,-0.7482,-0.7329,-0.7193,-0.7129,-0.7115,-0.716,-0.7328,-0.7472,-0.7372,-0.7623,-0.802,-0.8061,-0.8528,-0.9086,-0.9285,-0.9806,-1.0301,-1.0334,-1.0602,-1.0925,-1.1149,-1.1335,-1.1558,-1.1966,-1.204,-1.2077,-1.2268,-1.2305,-1.2305,-1.2305,-1.2305,-1.2305,-1.2342,-1.2342,-1.2342,-1.2378,-1.2562,-1.2673,-1.2746,-1.3076,-1.3593,-1.4266,-1.4796,-1.5365,-1.6079,-1.6333,-1.6586,-1.6943,-1.7141,-1.727,-1.727,-1.7461,-1.7573,-1.7573,-1.7691,-1.774,-1.775,-1.794,-1.8008,0.7095,0.0,0.0,0.0,0.6612,0.5994,0.5505,0.4164,0.2868,0.2333,0.1391,0.0628,0.0448,0.0272,0.0137,0.0,0.0,0.0,0.0,0.0,0.0,0.0,0.0,-0.005,-0.015,-0.0151,-0.0303,-0.0707,-0.1111,-0.1514,-0.2068,-0.2671,-0.3124,-0.3377,-0.3627,-0.3728,-0.3728,-0.4028,-0.4331,-0.4634,-0.5331,-0.5984,-0.6492,-0.6945,-0.7344,-0.7743,-0.7743,-0.7842,-0.7985,-0.7921,-0.7894,-0.788,-0.778,-0.7685,-0.7597,-0.7363,-0.7217,-0.7095,-0.7095,-0.7187,-0.7268,-0.7159,-0.7403,-0.7654,-0.767,-0.7963,-0.8342,-0.8547,-0.8818,-0.911,-0.9507,-0.9665,-0.9846,-1.0456,-1.0653,-1.085,-1.1372,-1.1669,-1.1892,-1.2077,-1.2231,-1.2305,-1.2305,-1.2305,-1.2305,-1.2305,-1.2305,-1.2305,-1.2305,-1.2378,-1.2489,-1.2599,-1.2746,-1.3185,-1.3941,-1.4266,-1.4697,-1.533,-1.5551,-1.5736,-1.5912,-1.6219,-1.6394,-1.6394,-1.6786,-1.6968,-1.6968,-1.727,-1.7476,-1.7588,-1.7759,-1.7896,0.7095,0.0,0.0,0.7095,0.6612,0.5994,0.5591,0.4251,0.2956,0.2511,0.1524,0.0763,0.0632,0.0412,0.0279,0.0141,0.0095,0.0097,0.0,0.0,0.0,0.0,0.0,0.0,0.0,0.0,-0.0101,-0.0253,-0.0556,-0.0858,-0.1261,-0.1614,-0.1867,-0.2069,-0.2118,-0.2169,-0.2169,-0.2571,-0.2923,-0.3277,-0.4228,-0.4981,-0.5589,-0.6292,-0.6895,-0.7397,-0.7444,-0.7643,-0.7892,-0.7992,-0.7988,-0.7978,-0.787,-0.7848,-0.7784,-0.7573,-0.737,-0.7204,-0.7204,-0.7132,-0.7095,-0.7095,-0.7231,-0.737,-0.737,-0.7556,-0.781,-0.7978,-0.8062,-0.8218,-0.8711,-0.877,-0.8887,-0.9606,-0.9862,-1.0106,-1.0718,-1.1111,-1.1446,-1.1781,-1.1966,-1.2077,-1.2187,-1.2231,-1.2224,-1.2298,-1.2305,-1.2305,-1.2305,-1.2305,-1.2378,-1.2489,-1.2526,-1.2783,-1.3397,-1.3659,-1.3985,-1.4482,-1.4697,-1.484,-1.4883,-1.5259,-1.5471,-1.5471,-1.5965,-1.6254,-1.6298,-1.6673,-1.6994,-1.7254,-1.7476,-1.7681,0.0,0.0,0.7095,0.7095,0.6612,0.6038,0.5766,0.4605,0.3446,0.2956,0.2286,0.1625,0.1151,0.1064,0.0937,0.0438,0.0392,0.0296,0.005,0.0,0.0,0.0,0.0,0.0,0.0,0.0,0.0,0.0,-0.0253,-0.0404,-0.0455,-0.096,-0.1212,-0.1212,-0.1513,-0.1613,-0.1613,-0.1664,-0.1916,-0.2422,-0.2973,-0.3676,-0.4479,-0.5539,-0.6292,-0.6842,-0.7089,-0.7341,-0.7646,-0.7892,-0.7988,-0.7988,-0.7985,-0.7891,-0.7811,-0.7801,-0.7614,-0.7409,-0.7409,-0.7265,-0.7095,-0.7095,-0.7095,-0.7095,-0.7095,-0.7319,-0.7499,-0.7499,-0.769,-0.7905,-0.7944,-0.8066,-0.8294,-0.8577,-0.8962,-0.9413,-1.0079,-1.0406,-1.07,-1.1298,-1.1409,-1.1558,-1.1929,-1.2003,-1.2077,-1.2268,-1.2305,-1.2305,-1.2305,-1.2305,-1.2305,-1.2305,-1.2305,-1.2415,-1.2636,-1.282,-1.3119,-1.3528,-1.3731,-1.3941,-1.4129,-1.4474,-1.4637,-1.4637,-1.5054,-1.5346,-1.5532,-1.5877,-1.6254,-1.6638,-1.7028,-1.7407,0.7095,0.0,0.7095,0.7095,0.6833,0.6482,0.621,0.5319,0.4427,0.416,0.3269,0.2425,0.208,0.1668,0.1185,0.0673,0.0492,0.0301,0.005,0.0,0.0,0.0,0.0,0.0,0.0,0.0,0.0,0.0,-0.0101,-0.0152,-0.0152,-0.0303,-0.0404,-0.0404,-0.0505,-0.0555,-0.0555,-0.0707,-0.0959,-0.1363,-0.2422,-0.3277,-0.3879,-0.4632,-0.5334,-0.6037,-0.6487,-0.7039,-0.7646,-0.7892,-0.7988,-0.7988,-0.7988,-0.7958,-0.7914,-0.7914,-0.7834,-0.7634,-0.7441,-0.7336,-0.7278,-0.7129,-0.7095,-0.7095,-0.7095,-0.7143,-0.7231,-0.7231,-0.7281,-0.7418,-0.7599,-0.7608,-0.7636,-0.8038,-0.8288,-0.8519,-0.9033,-0.9527,-0.9997,-1.0331,-1.0738,-1.1074,-1.1372,-1.1521,-1.1706,-1.204,-1.2224,-1.2305,-1.2305,-1.2305,-1.2305,-1.2305,-1.2305,-1.2378,-1.2562,-1.2673,-1.2826,-1.3083,-1.3156,-1.3222,-1.3295,-1.3542,-1.3651,-1.3651,-1.4086,-1.4374,-1.4561,-1.4903,-1.5365,-1.5877,-1.6219,-1.6603,0.7095,0.7095,0.7095,0.7095,0.6966,0.6748,0.6567,0.5944,0.5322,0.5095,0.4385,0.3635,0.3119,0.2592,0.1988,0.1106,0.0787,0.0501,0.005,0.0,0.0,0.0,0.0,0.0,0.0,0.0,0.0,0.0,0.0,0.0,0.0,0.0,0.0,0.0,0.0,0.0,0.0,-0.0152,-0.0455,-0.0808,-0.1767,-0.2522,-0.3024,-0.3476,-0.4128,-0.4933,-0.5634,-0.6387,-0.7095,-0.7643,-0.7842,-0.7892,-0.7942,-0.7988,-0.7988,-0.7988,-0.7928,-0.7858,-0.7614,-0.7458,-0.7402,-0.7255,-0.7139,-0.7095,-0.7095,-0.7095,-0.7095,-0.7095,-0.7095,-0.7143,-0.7323,-0.7246,-0.7246,-0.7578,-0.7734,-0.7902,-0.821,-0.8673,-0.9101,-0.9402,-0.9798,-1.0175,-1.0588,-1.1037,-1.1409,-1.1744,-1.2003,-1.2231,-1.2298,-1.2305,-1.2305,-1.2305,-1.2305,-1.2342,-1.2489,-1.2489,-1.2562,-1.2673,-1.2673,-1.2673,-1.2673,-1.2863,-1.2973,-1.2973,-1.3295,-1.3586,-1.3768,-1.4086,-1.4517,-1.5062,-1.5374,-1.5789,0.7095,0.7095,0.7095,0.7095,0.6966,0.6792,0.6792,0.6482,0.608,0.5808,0.5591,0.5133,0.0,0.3829,0.318,0.1751,0.1275,0.084,0.0101,0.0,0.0,0.0,0.0,0.0,0.0,0.0,0.0,0.0,0.0,0.0,0.0,0.0,0.0,0.0,0.0,0.0,0.0,0.0,-0.0253,-0.0758,-0.1061,-0.1414,-0.1967,-0.222,-0.2773,-0.3629,-0.4678,-0.5484,-0.6092,-0.7144,-0.7596,-0.7646,-0.7892,-0.7988,-0.7988,-0.7988,-0.7988,-0.7968,-0.7872,-0.7634,-0.7436,-0.7422,-0.7272,-0.7105,-0.7098,-0.7095,-0.7095,-0.7095,-0.7095,-0.7095,-0.7095,-0.7095,-0.7105,-0.7182,-0.735,-0.7513,-0.7652,-0.7844,-0.809,-0.8564,-0.867,-0.8927,-0.969,-1.0519,-1.1111,-1.1298,-1.1706,-1.204,-1.2261,-1.2298,-1.2305,-1.2305,-1.2305,-1.2305,-1.2305,-1.2305,-1.2305,-1.2305,-1.2305,-1.2305,-1.2305,-1.2489,-1.2562,-1.2562,-1.2783,-1.2973,-1.3156,-1.3346,-1.3739,-1.423,-1.443,-1.4966,0.7095,0.7095,0.7095,0.7095,0.7051,0.701,0.701,0.6836,0.6618,0.6526,0.6216,0.5691,0.0,0.4294,0.3429,0.197,0.1349,0.0,0.0099,0.0,0.0,0.0,0.0,0.0,0.0,0.0,0.0,0.0,0.0,0.0,0.0,0.0,0.0,0.0,0.0,0.0,0.0,0.0,-0.0152,-0.0505,-0.0556,-0.0757,-0.1111,-0.1615,-0.2221,-0.3077,-0.4128,-0.5133,-0.6092,-0.6942,-0.7441,-0.7646,-0.7892,-0.7988,-0.7988,-0.7988,-0.7988,-0.7985,-0.7944,-0.7858,-0.7662,-0.7444,-0.7346,-0.7292,-0.7132,-0.7095,-0.7095,-0.7095,-0.7095,-0.7095,-0.7095,-0.7095,-0.7085,-0.7136,-0.7217,-0.7282,-0.733,-0.7445,-0.7573,-0.7722,-0.8151,-0.8589,-0.8932,-0.9685,-1.0255,-1.0481,-1.0962,-1.1521,-1.2003,-1.2224,-1.2305,-1.2305,-1.2305,-1.2305,-1.2305,-1.2305,-1.2305,-1.2305,-1.2305,-1.2305,-1.2305,-1.2342,-1.2378,-1.2378,-1.2415,-1.2562,-1.2746,-1.2783,-1.3046,-1.3484,-1.3702,-1.3985,0.7095,0.7095,0.7095,0.7095,0.7095,0.7095,0.7095,0.701,0.6925,0.6925,0.6704,0.0,0.5636,0.4923,0.0,0.0,0.0,0.0,0.0294,0.005,0.0,0.0,0.0,0.0,0.0,0.0,0.0,0.0,0.0,0.0,0.0,0.0,0.0,0.0,0.0,0.0,0.0,0.0,-0.0051,-0.0202,-0.0202,-0.0303,-0.0455,-0.0859,-0.1465,-0.217,-0.3226,-0.4232,-0.5188,-0.6239,-0.6892,-0.7294,-0.7693,-0.7892,-0.7988,-0.7988,-0.7988,-0.7988,-0.7988,-0.7934,-0.7872,-0.7641,-0.7478,-0.7402,-0.7268,-0.7149,-0.7095,-0.7095,-0.7095,-0.7095,-0.7095,-0.7095,-0.7095,-0.7095,-0.7122,-0.713,-0.7068,-0.7126,-0.7163,-0.714,-0.7528,-0.7944,-0.8131,-0.878,-0.9349,-0.9647,-1.025,-1.0887,-1.1409,-1.1892,-1.2187,-1.2298,-1.2305,-1.2305,-1.2305,-1.2305,-1.2305,-1.2305,-1.2305,-1.2305,-1.2305,-1.2305,-1.2305,-1.2305,-1.2305,-1.2378,-1.2489,-1.2489,-1.2636,-1.2936,-1.3046,-1.3266,0.7095,0.7095,0.7095,0.7095,0.7095,0.7095,0.7095,0.7095,0.7095,0.7095,0.0,0.6874,0.6216,0.5544,0.4591,0.3165,0.0,0.1291,0.0585,0.0249,0.005,0.005,0.0,0.0,0.0,0.0,0.0,0.0,0.0,0.0,0.0,0.0,0.0,0.0,0.0,0.0,0.0,0.0,0.0,0.0,0.0,0.0,0.0,-0.0253,-0.0707,-0.1263,-0.2271,-0.3177,-0.4033,-0.5338,-0.6142,-0.6692,-0.7244,-0.7643,-0.7842,-0.7942,-0.7939,-0.7939,-0.7988,-0.7988,-0.7965,-0.7862,-0.7638,-0.7467,-0.7429,-0.7278,-0.7122,-0.7102,-0.7095,-0.7095,-0.7095,-0.7095,-0.7095,-0.7095,-0.7095,-0.7061,-0.694,-0.6883,-0.6859,-0.6778,-0.6948,-0.718,-0.7369,-0.7868,-0.836,-0.8775,-0.9496,-1.0137,-1.0588,-1.1409,-1.2003,-1.2224,-1.2261,-1.2268,-1.2305,-1.2305,-1.2305,-1.2305,-1.2305,-1.2305,-1.2305,-1.2305,-1.2305,-1.2305,-1.2305,-1.2305,-1.2305,-1.2305,-1.2378,-1.2562,-1.2562,-1.2746,0.7095,0.7095,0.7095,0.7095,0.7095,0.7095,0.7095,0.7095,0.0,0.0,0.0,0.6874,0.6216,0.5683,0.0,0.3377,0.0,0.0,0.0,0.0,0.0347,0.0,0.0,0.0,0.0,0.0,0.0,0.0,0.0,0.0,0.0,0.0,0.0,0.0,0.0,0.0,0.0,0.0,0.0,0.0,0.0,0.0,0.0,-0.0253,-0.0707,-0.1212,-0.1867,0.0,-0.3729,-0.4634,-0.5336,-0.5887,-0.6642,-0.6945,-0.7045,-0.7494,-0.7646,-0.7693,-0.7942,-0.7988,-0.7965,-0.7862,-0.7777,-0.7689,-0.7444,-0.7398,-0.7305,-0.7132,-0.7095,-0.7095,-0.7095,-0.7095,-0.7095,-0.7095,-0.7095,-0.7088,-0.7065,-0.6912,-0.6688,-0.6589,-0.6631,-0.6718,-0.6756,-0.7103,-0.7561,-0.7936,-0.8399,-0.897,-0.9733,-1.0812,-1.1632,-1.2003,-1.204,-1.2114,-1.2298,-1.2305,-1.2305,-1.2305,-1.2305,-1.2305,-1.2305,-1.2305,-1.2305,-1.2305,-1.2305,-1.2305,-1.2305,-1.2305,-1.2335,-1.2342,-1.2342,-1.2378,0.7095,0.7095,0.7095,0.7095,0.7095,0.7095,0.7095,0.0,0.0,0.0,0.7095,0.6966,0.6526,0.0,0.0,0.0,0.0,0.0,0.0,0.0,0.0,0.0,0.0,0.0,0.0,0.0,0.0,0.0,0.0,0.0,0.0,0.0,0.0,0.0,0.0,0.0,0.0,0.0,0.0,0.0,0.0,0.0,0.0,-0.0152,-0.0404,-0.0808,-0.1212,-0.1917,-0.2822,-0.3478,-0.423,-0.5033,-0.5536,-0.6039,-0.6392,-0.6695,-0.6945,-0.7194,-0.7344,-0.7543,-0.7779,-0.771,-0.7732,-0.7784,-0.7641,-0.7492,-0.7402,-0.7282,-0.7204,-0.7095,-0.7095,-0.7095,-0.7095,-0.7095,-0.7095,-0.7095,-0.7095,-0.6927,-0.6773,-0.662,-0.6588,-0.6538,-0.6461,-0.6683,-0.6984,-0.7284,-0.7672,-0.8169,-0.8899,-0.9571,-1.0395,-1.1409,-1.1632,-1.1818,-1.2114,-1.215,-1.2194,-1.2298,-1.2305,-1.2305,-1.2305,-1.2305,-1.2305,-1.2305,-1.2305,-1.2305,-1.2305,-1.2305,-1.2305,-1.2305,-1.2305,-1.2305,0.7095,0.7095,0.7095,0.7095,0.7095,0.7095,0.7095,0.7095,0.0,0.0,0.7095,0.7054,0.6836,0.0,0.0,0.0,0.0,0.0,0.0,0.0,0.0,0.0,0.0,0.0,0.0,0.0,0.0,0.0,0.0,0.0,0.0,0.0,0.0,0.0,0.0,0.0,0.0,0.0,0.0,0.0,0.0,0.0,0.0,0.0,-0.0152,-0.0404,-0.0606,-0.1161,-0.1866,-0.2321,-0.3075,-0.3927,-0.4331,-0.4834,-0.5436,-0.5639,-0.5992,-0.6392,-0.6592,-0.6895,-0.7294,-0.7397,-0.7615,-0.7851,-0.7821,-0.7628,-0.746,-0.7426,-0.7258,-0.7095,-0.7095,-0.7095,-0.7095,-0.7095,-0.7095,-0.7095,-0.7095,-0.6987,-0.6839,-0.6729,-0.6576,-0.6467,-0.6323,-0.6412,-0.6602,-0.6788,-0.7099,-0.7522,-0.8059,-0.8322,-0.8965,-1.0357,-1.0887,-1.1298,-1.1706,-1.1818,-1.1929,-1.2114,-1.2194,-1.2224,-1.2224,-1.2268,-1.2305,-1.2305,-1.2305,-1.2305,-1.2305,-1.2305,-1.2305,-1.2305,-1.2305,-1.2305,0.7095,0.7095,0.7095,0.7095,0.7095,0.7095,0.7095,0.0,0.0,0.7095,0.7095,0.7054,0.6836,0.6567,0.6163,0.0,0.0,0.4473,0.0,0.0,0.0,0.0,0.0,0.0,0.0,0.0,0.0,0.0,0.0,0.0,0.0,0.0,0.0,0.0,0.0,0.0,0.0,0.0,0.0,0.0,0.0,0.0,0.0,0.0,-0.0152,-0.0404,-0.0404,-0.0758,0.0,-0.1614,-0.1916,-0.2319,-0.3073,-0.3374,-0.3575,-0.4531,-0.4935,-0.5085,-0.5839,-0.6092,-0.6242,-0.6695,-0.7385,-0.7941,-0.7851,-0.7702,-0.755,-0.7456,-0.7258,-0.7095,-0.7095,-0.7095,-0.7095,-0.7095,-0.7095,-0.7095,-0.7095,-0.6987,-0.6839,-0.6729,-0.6576,-0.6467,-0.6323,-0.63,-0.6412,-0.6602,-0.6641,-0.6834,-0.7257,-0.7484,-0.7863,-0.8589,-0.9652,-1.0481,-1.0887,-1.126,-1.1446,-1.1484,-1.1818,-1.204,-1.204,-1.2187,-1.2305,-1.2305,-1.2305,-1.2305,-1.2305,-1.2305,-1.2305,-1.2305,-1.2305,-1.2305,0.7095,0.7095,0.7095,0.7095,0.7095,0.7095,0.7095,0.0,0.7095,0.7095,0.7095,0.7098,0.701,0.6789,0.6567,0.639,0.0,0.0,0.0,0.0,0.0,0.0,0.0,0.0,0.0,0.0,0.0,0.0,0.0,0.0,0.0,0.0,0.0,0.0,0.0,0.0,0.0,0.0,0.0,0.0,0.0,0.0,0.0,0.0,-0.0051,-0.0152,-0.0152,-0.0354,0.0,-0.0858,-0.111,-0.1565,-0.1867,-0.2169,-0.252,-0.2973,-0.3425,-0.3879,-0.418,-0.4732,-0.5338,-0.5539,-0.6139,-0.693,-0.7523,-0.7605,-0.7508,-0.7503,-0.7397,-0.7258,-0.7122,-0.7095,-0.7095,-0.7095,-0.7095,-0.7095,-0.7095,-0.7051,-0.697,-0.6865,-0.6715,-0.6563,-0.6453,-0.6358,-0.6338,-0.6412,-0.6412,-0.6528,-0.6795,-0.6911,-0.7138,-0.7642,-0.8775,-0.9722,-1.0368,-1.0812,-1.1149,-1.1372,-1.1781,-1.2003,-1.2003,-1.2194,-1.2305,-1.2305,-1.2305,-1.2305,-1.2305,-1.2305,-1.2305,-1.2305,-1.2305,-1.2305,0.7231,0.7143,0.7095,0.7095,0.7095,0.7095,0.0,0.0,0.7095,0.7095,0.7095,0.7095,0.7095,0.6966,0.6881,0.6881,0.0,0.6245,0.0,0.0,0.0,0.0,0.0,0.0,0.0,0.0,0.0,0.0,0.0,0.0,0.0,0.0051,0.0101,0.0,0.0,0.0,0.0,0.0,0.0,0.0,0.0,0.0,0.0,0.0,0.0,0.0,0.0,-0.0101,0.0,-0.0303,-0.0505,-0.0859,-0.0909,-0.1212,-0.1564,-0.1716,-0.2118,-0.2621,-0.2772,-0.3325,-0.4029,-0.423,-0.4734,-0.5386,-0.6439,-0.6903,-0.706,-0.7209,-0.7224,-0.7188,-0.7037,-0.7051,-0.7095,-0.7095,-0.7095,-0.7095,-0.7095,-0.7095,-0.7055,-0.6913,-0.6807,-0.6651,-0.6538,-0.6395,-0.63,-0.63,-0.63,-0.6335,-0.649,-0.6525,-0.6641,-0.6988,-0.7902,-0.8775,-0.9501,-1.0105,-1.0556,-1.085,-1.1409,-1.1744,-1.1744,-1.204,-1.2224,-1.2224,-1.2268,-1.2305,-1.2305,-1.2305,-1.2305,-1.2305,-1.2305,-1.2305,0.7507,0.7323,0.7095,0.7095,0.7095,0.7095,0.0,0.0,0.7095,0.7095,0.7095,0.7095,0.7095,0.7095,0.7095,0.7095,0.6925,0.0,0.0,0.0,0.0,0.0,0.0,0.0,0.0,0.0,0.0,0.0,0.0,0.0,0.0,0.0253,0.0253,0.0,0.0,0.0,0.0,0.0,0.0,0.0,0.0,0.0,0.0,0.0,0.0,0.0,0.0,0.0,0.0,0.0,0.0,-0.0051,-0.0303,-0.0404,-0.0505,-0.101,-0.1212,-0.1313,-0.1816,-0.2017,-0.2169,-0.2972,-0.3224,-0.3425,-0.4481,-0.5466,-0.6241,-0.6398,-0.6597,-0.6795,-0.6795,-0.6966,-0.7095,-0.7095,-0.7095,-0.7095,-0.7095,-0.7095,-0.7055,-0.6913,-0.6807,-0.6651,-0.6538,-0.6395,-0.63,-0.63,-0.63,-0.63,-0.63,-0.63,-0.6374,-0.6602,-0.6988,-0.745,-0.8068,-0.9051,-0.9625,-0.962,-1.055,-1.1111,-1.1111,-1.1669,-1.2003,-1.2003,-1.2187,-1.2305,-1.2305,-1.2305,-1.2305,-1.2305,-1.2305,-1.2305,0.8025,0.7676,0.737,0.737,0.7231,0.7095,0.7095,0.7095,0.7095,0.7095,0.7095,0.7095,0.7095,0.7095,0.7095,0.7095,0.7054,0.0,0.0,0.0,0.0,0.0,0.0,0.0,0.0,0.0,0.0,0.0,0.0,0.0,0.111,0.116,0.0908,0.0303,0.0606,0.0808,0.0808,0.0808,0.0808,0.0808,0.0455,0.0253,0.0253,0.0101,0.0,0.0,0.0,0.0,0.0,0.0,0.0,0.0,-0.0101,-0.0152,-0.0152,-0.0303,-0.0505,-0.0657,-0.0858,-0.1161,-0.1515,-0.1766,-0.2068,-0.242,-0.2772,-0.4012,-0.5353,-0.5802,-0.5864,-0.5905,-0.6216,-0.6349,-0.6482,-0.6836,-0.6881,-0.6925,-0.7051,-0.7095,-0.7082,-0.7038,-0.6913,-0.6807,-0.6654,-0.6545,-0.6412,-0.6313,-0.63,-0.63,-0.63,-0.63,-0.6338,-0.6374,-0.6644,-0.7099,-0.7825,-0.8699,-0.9236,-0.9397,-1.0218,-1.07,-1.07,-1.1149,-1.1446,-1.1595,-1.1632,-1.1818,-1.2077,-1.2077,-1.215,-1.2305,-1.2305,-1.2305,0.0,0.8113,0.7591,0.7507,0.7279,0.0,0.0,0.7095,0.7095,0.7095,0.7095,0.7095,0.7095,0.7095,0.7095,0.7095,0.7095,0.0,0.0,0.0,0.0,0.0,0.0,0.0,0.0,0.0,0.0,0.0,0.0,0.0,0.1916,0.2117,0.1966,0.1463,0.1463,0.1565,0.1666,0.1666,0.1615,0.1515,0.106,0.0808,0.0707,0.0303,0.0152,0.0152,0.0051,0.0,0.0,0.0,0.0,0.0,0.0,0.0,0.0,0.0,-0.0101,-0.0253,-0.0253,-0.0455,-0.0758,-0.0859,-0.1262,-0.1716,-0.1716,-0.2845,-0.4221,-0.4596,-0.485,-0.5057,-0.5324,-0.5638,-0.5905,-0.6216,-0.6393,-0.6571,-0.67,-0.6877,-0.6966,-0.6966,-0.694,-0.6836,-0.6725,-0.6573,-0.6463,-0.632,-0.63,-0.63,-0.63,-0.63,-0.63,-0.63,-0.649,-0.6791,-0.7288,-0.8089,-0.8585,-0.8742,-0.9496,-0.9949,-0.9949,-1.04,-1.07,-1.0812,-1.1074,-1.1298,-1.1558,-1.1706,-1.1929,-1.2194,-1.2194,-1.2224,0.0,0.8675,0.0,0.0,0.0,0.0,0.0,0.7139,0.0,0.7095,0.7095,0.7095,0.7095,0.7095,0.7095,0.7095,0.0,0.0,0.0,0.0,0.0,0.0,0.0,0.0,0.0,0.0,0.0,0.0,0.0,0.2622,0.2622,0.3124,0.3374,0.3374,0.2671,0.237,0.2573,0.2573,0.2471,0.2219,0.1865,0.1564,0.1313,0.0757,0.0505,0.0,0.0202,0.0051,0.0051,0.0051,0.0,0.0,0.0,0.0,0.0,0.0,0.0,0.0,0.0,0.0,-0.0051,-0.0303,-0.0707,-0.1111,-0.1111,-0.1966,-0.2906,-0.2905,-0.3514,-0.4119,-0.4166,-0.4701,-0.5238,-0.5327,-0.5638,-0.5994,-0.6038,-0.6393,-0.6704,-0.6751,-0.682,-0.681,-0.6701,-0.659,-0.6441,-0.6337,-0.6306,-0.63,-0.63,-0.63,-0.63,-0.63,-0.6447,-0.6563,-0.6563,-0.7288,-0.7744,-0.7744,-0.8466,-0.8922,-0.8922,-0.9463,-0.9765,-0.9803,-1.04,-1.0738,-1.0738,-1.1149,-1.1558,-1.1929,-1.1966,-1.2077,1.1488,0.0,0.9078,0.8692,0.8248,0.7848,0.0,0.7415,0.7367,0.0,0.0,0.0,0.7095,0.0,0.0,0.0,0.0,0.0,0.0,0.0,0.0,0.0,0.0,0.0,0.0,0.0,0.0,0.0,0.0,0.4832,0.4832,0.4983,0.5133,0.5336,0.5135,0.4784,0.4232,0.4232,0.4182,0.413,0.3224,0.2671,0.2423,0.1866,0.1413,0.101,0.096,0.0707,0.0303,0.0303,0.0202,0.0,0.0,0.0,0.0,0.0,0.0,0.0,0.0,0.0,0.0,-0.0051,-0.0202,-0.0303,-0.0303,-0.1033,-0.1907,-0.2094,-0.2266,-0.251,-0.3092,-0.3358,-0.3673,-0.4389,-0.4654,-0.4879,-0.546,-0.5638,-0.5816,-0.6216,-0.6281,-0.6349,-0.6596,-0.6453,-0.6352,-0.6444,-0.6368,-0.63,-0.63,-0.63,-0.63,-0.63,-0.6338,-0.6377,-0.6377,-0.6949,-0.7334,-0.7334,-0.7825,-0.8089,-0.8089,-0.8351,-0.8656,-0.897,-0.9728,-1.0105,-1.0105,-1.0663,-1.1074,-1.1335,-1.1484,-1.1632,1.2705,1.1327,0.9816,0.9471,0.8942,0.8416,0.8025,0.0,0.0,0.0,0.0,0.0,0.0,0.0,0.0,0.0,0.0,0.0,0.0,0.0,0.0,0.0,0.0,0.0,0.0,0.0,0.0,0.0,0.0,0.5984,0.5984,0.6087,0.6239,0.6342,0.6592,0.6339,0.5536,0.5536,0.5486,0.5336,0.4529,0.3977,0.3679,0.2923,0.2369,0.2118,0.1716,0.1312,0.0959,0.0808,0.0556,0.0202,0.0202,0.0101,0.0,0.0,0.0,0.0,0.0,0.0,0.0,0.0,0.0,0.0,0.0,-0.0393,-0.0858,-0.1143,-0.1342,-0.1569,-0.1973,-0.2241,-0.251,-0.3047,-0.3405,-0.3762,-0.4164,-0.4612,-0.4968,-0.5235,-0.5549,-0.5822,-0.5909,-0.5993,-0.603,-0.6052,-0.6074,-0.6099,-0.6099,-0.6219,-0.63,-0.63,-0.63,-0.63,-0.63,-0.6606,-0.6837,-0.6911,-0.7211,-0.7399,-0.7399,-0.7595,-0.7859,-0.828,-0.8699,-0.9079,-0.9349,-0.9685,-1.0099,-1.055,-1.0663,-1.0925,1.3483,1.21,1.0636,1.0294,0.9676,0.9109,0.8715,0.0,0.0,0.0,0.0,0.0,0.0,0.0,0.0,0.0,0.0,0.0,0.0,0.0,0.0,0.0,0.0,0.0,0.0,0.0,0.0,0.0,0.6789,0.6637,0.6637,0.6842,0.6995,0.6995,0.7444,0.7341,0.6637,0.6587,0.6489,0.6242,0.5684,0.5281,0.5035,0.4078,0.3575,0.3425,0.272,0.0,0.1815,0.1565,0.1111,0.0656,0.0556,0.0404,0.0152,0.0101,0.0051,0.0051,0.0,0.0,0.0,0.0,0.0,0.0,0.0,0.0,-0.0048,-0.0286,-0.0648,-0.0942,-0.0987,-0.13,-0.1615,-0.166,-0.2152,-0.2644,-0.2734,-0.336,-0.3941,-0.4074,-0.4612,-0.5029,-0.4981,-0.5241,-0.5452,-0.5436,-0.5613,-0.5783,-0.5786,-0.606,-0.6219,-0.6219,-0.6261,-0.63,-0.63,-0.63,-0.6377,-0.6525,-0.6714,-0.6826,-0.6826,-0.6988,-0.7253,-0.7591,-0.7672,-0.7974,-0.8475,-0.8551,-0.8932,-0.9652,-0.969,-1.0024,1.3652,1.3179,1.2448,1.1628,1.1068,1.0414,0.9323,0.0,0.0,0.0,0.0,0.0,0.0,0.0,0.0,0.0,0.0,0.0,0.0,0.0,0.0,0.0,0.0,0.0,0.0,0.0,0.0,0.7839,0.7789,0.7739,0.7739,0.7789,0.7839,0.7839,0.7889,0.7889,0.7739,0.7543,0.7394,0.7344,0.6792,0.6389,0.6134,0.5737,0.5186,0.4533,0.0,0.3827,0.2922,0.2674,0.222,0.1715,0.1262,0.1061,0.096,0.0505,0.0354,0.0303,0.0101,0.0,0.0,0.0,0.0,0.0,0.0,0.0,0.0,-0.0048,-0.0093,-0.0225,-0.0448,-0.0583,-0.0718,-0.1121,-0.13,-0.148,-0.1884,-0.2063,-0.2376,-0.3002,-0.3226,-0.3534,-0.4279,-0.4351,-0.4439,-0.5007,-0.5106,-0.5198,-0.5356,-0.5709,-0.598,-0.598,-0.618,-0.63,-0.63,-0.63,-0.63,-0.6338,-0.6374,-0.6374,-0.6374,-0.6602,-0.6714,-0.6791,-0.7103,-0.7334,-0.745,-0.7787,-0.8165,-0.8632,-0.8818,-0.9117,1.3913,1.3786,1.3483,1.279,1.2063,1.1278,1.0197,0.0,0.0,0.0,0.0,0.0,0.0,0.0,0.0,0.0,0.0,0.0,0.0,0.0,0.0,0.0,0.0,0.0,0.0,0.0,0.0,0.7988,0.7988,0.7988,0.7988,0.7988,0.7988,0.7988,0.7988,0.7988,0.7988,0.7892,0.7793,0.7793,0.7444,0.7144,0.7042,0.6642,0.6242,0.5889,0.0,0.4983,0.4277,0.3979,0.3376,0.2621,0.237,0.2017,0.1564,0.101,0.0657,0.0404,0.0253,0.0101,0.0,0.0,0.0,0.0,0.0,0.0,0.0,0.0,0.0,-0.0045,-0.0135,-0.018,-0.0224,-0.0449,-0.0628,-0.0762,-0.0987,-0.1256,-0.1524,-0.1882,-0.2152,-0.2465,-0.2868,-0.3141,-0.3403,-0.3653,-0.4074,-0.4444,-0.4623,-0.5007,-0.5279,-0.5395,-0.5631,-0.575,-0.575,-0.5944,-0.6141,-0.63,-0.63,-0.63,-0.63,-0.6374,-0.6451,-0.6451,-0.6606,-0.676,-0.6872,-0.7061,-0.7369,-0.7753,-0.7829,-0.8089,1.4088,1.4088,1.4004,1.3568,0.0,1.2015,1.0982,0.0,0.0,0.0,0.0,0.0,0.0,0.0,0.0,0.0,0.0,0.0,0.0,0.0,0.0,0.0,0.0,0.0,0.0,0.0,0.7988,0.7988,0.7988,0.7988,0.7988,0.7988,0.7988,0.7988,0.7988,0.7988,0.7988,0.7988,0.7988,0.7988,0.7793,0.7696,0.7696,0.7244,0.7045,0.6945,0.6542,0.6089,0.5532,0.5284,0.4632,0.3827,0.3626,0.3022,0.2218,0.1767,0.1212,0.0757,0.0606,0.0455,0.0253,0.0152,0.0101,0.0101,0.0,0.0,0.0,0.0,0.0,0.0,0.0,0.0,0.0,0.0,-0.0135,-0.0314,-0.0314,-0.0583,-0.0852,-0.0942,-0.1211,-0.1525,-0.1615,-0.2025,-0.2325,-0.2401,-0.2962,-0.3496,-0.369,-0.419,-0.4543,-0.4693,-0.4929,-0.5124,-0.5165,-0.5515,-0.5864,-0.6064,-0.6222,-0.63,-0.63,-0.63,-0.63,-0.63,-0.63,-0.6374,-0.6525,-0.6525,-0.6718,-0.7065,-0.7065,-0.7253,1.4088,1.4088,1.4046,1.3737,1.3355,0.0,1.1542,1.1068,0.0,0.9733,0.0,0.0,0.0,0.0,0.0,0.0,0.0,0.0,0.0,0.0,0.0,0.0,0.0,0.0,0.7988,0.7988,0.7988,0.7988,0.7988,0.7988,0.7988,0.7988,0.7988,0.7988,0.7988,0.7988,0.7988,0.7988,0.7988,0.7988,0.7988,0.7992,0.7992,0.7939,0.7793,0.7547,0.7497,0.7194,0.6642,0.6387,0.6087,0.5739,0.4985,0.4029,0.3074,0.2774,0.2321,0.1816,0.1313,0.1111,0.101,0.0556,0.0354,0.0302,0.0099,0.0,0.0,0.0,0.0,0.0,0.0,0.0,0.0,0.0,0.0,-0.0045,-0.0045,-0.0045,-0.0135,-0.0404,-0.0493,-0.0628,-0.1076,-0.1145,-0.125,-0.1686,-0.2061,-0.2377,-0.2596,-0.3331,-0.388,-0.388,-0.4229,-0.454,-0.4737,-0.5126,-0.5359,-0.5359,-0.5948,-0.63,-0.63,-0.63,-0.63,-0.63,-0.63,-0.63,-0.6338,-0.6338,-0.6412,-0.6641,-0.6641,-0.6753,1.4124,1.4088,1.4046,1.3779,1.361,0.0,0.0,1.1929,1.1499,1.0294,0.9994,0.0,0.0,0.0,0.0,0.0,0.0,0.0,0.0,0.0,0.0,0.0,0.0,0.7988,0.7988,0.7988,0.7988,0.7988,0.7988,0.7988,0.7988,0.7988,0.7988,0.7988,0.7988,0.7988,0.7988,0.7988,0.7988,0.7988,0.7988,0.7988,0.7988,0.7988,0.7939,0.7842,0.7842,0.7643,0.7294,0.7194,0.6892,0.6442,0.5789,0.5083,0.4427,0.413,0.3476,0.272,0.252,0.2118,0.1665,0.1463,0.1261,0.1106,0.0839,0.0726,0.0665,0.0326,0.0228,0.0224,0.0045,0.0,0.0,0.0,0.0,0.0,0.0,0.0,-0.0045,-0.0135,-0.0135,-0.0224,-0.0404,-0.0535,-0.0657,-0.0803,-0.117,-0.1517,-0.1735,-0.2156,-0.2468,-0.2586,-0.2978,-0.3487,-0.4075,-0.427,-0.4543,-0.4893,-0.5631,-0.606,-0.606,-0.6219,-0.63,-0.63,-0.63,-0.63,-0.63,-0.63,-0.6338,-0.6412,-0.6412,-0.6451,1.4166,1.4088,1.4046,0.0,0.0,0.0,1.2966,1.2662,1.2143,1.0982,0.0,0.0,0.0,0.0,0.0,0.0,0.0,0.0,0.0,0.0,0.0,0.0,0.0,0.7988,0.7988,0.7988,0.7988,0.7988,0.7988,0.7988,0.7988,0.7988,0.7988,0.7988,0.7988,0.7968,0.7917,0.7917,0.7894,0.785,0.785,0.7901,0.7988,0.7988,0.7988,0.7988,0.7988,0.7892,0.7746,0.7746,0.7444,0.6995,0.6645,0.6189,0.5682,0.5384,0.4782,0.4028,0.3776,0.3325,0.2822,0.247,0.2259,0.1991,0.1662,0.1487,0.1317,0.0829,0.068,0.0538,0.0224,0.0045,0.0,0.0,0.0,0.0,0.0,0.0,0.0,0.0,0.0,0.0,0.0,-0.0135,-0.0266,-0.0212,-0.0548,-0.0829,-0.0948,-0.1216,-0.1451,-0.1687,-0.1999,-0.2469,-0.3057,-0.3292,-0.3567,-0.3997,-0.4774,-0.5395,-0.5705,-0.5906,-0.6064,-0.618,-0.618,-0.6219,-0.63,-0.63,-0.63,-0.63,-0.63,-0.63,1.4166,1.4088,0.0,0.0,0.0,0.0,1.3779,0.0,0.0,0.0,0.0,0.0,0.0,0.0,0.0,0.0,0.0,0.0,0.0,0.0,0.0,0.0,0.0,0.7988,0.7988,0.7988,0.7988,0.7988,0.7985,0.7985,0.7985,0.7985,0.7985,0.7985,0.7985,0.7914,0.7811,0.7811,0.774,0.76,0.76,0.7753,0.7985,0.7985,0.7985,0.7985,0.7985,0.7985,0.7988,0.7988,0.7842,0.7596,0.7596,0.7294,0.6792,0.6489,0.6239,0.5892,0.5087,0.4834,0.4634,0.3575,0.3181,0.3024,0.2489,0.2067,0.1751,0.1489,0.1256,0.0987,0.0538,0.0224,0.0,0.0,0.0,0.0,0.0,0.0,0.0,0.0,0.0,0.0,0.0,0.0,0.0,0.0,-0.0168,-0.029,-0.0316,-0.0628,-0.0982,-0.1257,-0.1452,-0.1607,-0.1607,-0.2156,-0.247,-0.251,-0.3294,-0.4231,-0.5243,-0.5282,-0.5476,-0.5899,-0.5899,-0.6022,-0.63,-0.63,-0.63,-0.63,-0.63,-0.63,1.425,1.4088,0.0,0.0,0.0,0.0,0.0,0.0,0.0,0.0,0.0,0.0,0.0,0.0,0.0,0.8472,0.8288,0.8211,0.0,0.0,0.0,0.0,0.0,0.8133,0.8133,0.7979,0.7879,0.7879,0.7787,0.7729,0.7729,0.7729,0.7729,0.7729,0.7729,0.7709,0.7662,0.7662,0.7641,0.76,0.76,0.7645,0.7729,0.7729,0.7729,0.7729,0.7729,0.7787,0.7885,0.7944,0.7939,0.7892,0.7892,0.7693,0.7344,0.7294,0.6942,0.6542,0.6292,0.5939,0.5577,0.5154,0.4865,0.4617,0.3953,0.3714,0.3451,0.2659,0.2285,0.1972,0.1524,0.1166,0.0808,0.0135,0.0,0.0,0.0,0.0,0.0,0.0,0.0,0.0,0.0,0.0,0.0,0.0,-0.0043,-0.0083,-0.0079,-0.0196,-0.0353,-0.0589,-0.0667,-0.0785,-0.1099,-0.1256,-0.153,-0.1843,-0.2116,-0.2859,-0.419,-0.4659,-0.4932,-0.5049,-0.5201,-0.5395,-0.5595,-0.5595,-0.575,-0.6022,-0.6022,-0.6138,1.437,0.0,0.0,0.0,0.0,0.0,0.0,0.0,0.0,0.0,0.0,0.0,0.0,0.0,0.0,0.917,0.8986,0.8888,0.8957,0.0,0.0,0.0,0.0,0.8589,0.8545,0.8394,0.8295,0.8295,0.8113,0.8013,0.8013,0.7828,0.7738,0.7738,0.7647,0.757,0.7509,0.7509,0.7478,0.7417,0.7417,0.7417,0.7421,0.7543,0.76,0.76,0.76,0.7648,0.7733,0.7828,0.785,0.7897,0.7897,0.7839,0.7743,0.7743,0.7543,0.7241,0.7144,0.686,0.6506,0.6236,0.5954,0.5663,0.5159,0.4913,0.4641,0.3817,0.3401,0.3045,0.242,0.2107,0.1749,0.0673,0.0449,0.0404,0.018,0.018,0.0135,0.0,0.0,0.0,0.0,0.0,0.0,0.0,0.0,0.0,0.0,0.0,-0.0039,-0.0157,-0.0196,-0.0275,-0.051,-0.0628,-0.0785,-0.1059,-0.1216,-0.1725,-0.2627,-0.3409,-0.3997,-0.4348,-0.4462,-0.4657,-0.4929,-0.501,-0.5243,-0.555,-0.5628,-0.5825,1.4566,0.0,0.0,0.0,0.0,0.0,0.0,0.0,0.0,0.0,0.0,0.0,0.0,0.0,0.0,0.982,0.9632,0.9449,0.9449,0.9566,0.0,0.0,0.9363,0.9296,0.9114,0.9068,0.9068,0.9068,0.8811,0.8656,0.861,0.8199,0.7923,0.7923,0.7697,0.7538,0.7398,0.7395,0.7278,0.7095,0.7095,0.7095,0.7105,0.7431,0.7556,0.756,0.7573,0.758,0.758,0.7594,0.7675,0.779,0.779,0.7875,0.7948,0.7948,0.7948,0.7951,0.7707,0.7521,0.7359,0.6813,0.6555,0.6365,0.6073,0.5766,0.5413,0.4964,0.4652,0.4208,0.3358,0.309,0.2822,0.1659,0.1256,0.1031,0.0628,0.0493,0.0404,0.0135,0.009,0.009,0.0045,0.0045,0.0045,0.0,0.0,0.0,0.0,0.0,0.0,0.0,0.0,0.0,0.0,-0.0157,-0.0275,-0.0275,-0.0628,-0.0825,-0.0864,-0.1845,-0.2784,-0.3567,-0.3606,-0.3839,-0.4229,-0.4426,-0.4618,-0.4888,-0.5085,-0.5434,0.0,1.4482,0.0,0.0,0.0,0.0,0.0,0.0,0.0,0.0,0.0,0.0,0.0,0.0,0.0,0.0,1.1451,1.1402,1.1402,1.1105,1.0876,1.0832,1.0321,0.9999,0.9953,0.9596,0.9373,0.9373,0.9182,0.9008,0.8831,0.8524,0.8306,0.8131,0.7737,0.7503,0.7467,0.7282,0.7129,0.7095,0.7095,0.7095,0.7098,0.7166,0.7193,0.7203,0.7366,0.7421,0.7431,0.755,0.7617,0.7645,0.7645,0.7665,0.7695,0.7695,0.7695,0.7695,0.76,0.758,0.7533,0.732,0.7194,0.7077,0.6738,0.6551,0.6393,0.5947,0.5589,0.5322,0.4968,0.4699,0.4385,0.376,0.2598,0.1615,0.1525,0.1345,0.1121,0.0897,0.0852,0.0763,0.0359,0.0314,0.0221,0.0043,0.0,0.0,0.0,0.0,0.0,0.0,0.0,0.0,0.0,-0.0039,-0.0079,-0.0079,-0.0157,-0.0275,-0.0432,-0.1294,-0.1881,-0.2077,-0.2234,-0.2508,-0.2901,-0.294,-0.3331,-0.4075,-0.4265,-0.4652,0.0,0.0,0.0,0.0,0.0,0.0,0.0,0.0,0.0,0.0,0.0,0.0,0.0,0.0,0.0,0.0,0.0,1.2357,1.2357,1.21,1.1929,1.1843,1.1473,1.1198,1.1066,1.0847,1.0715,1.0715,1.0386,1.0149,1.0062,0.9501,0.9074,0.8855,0.842,0.8113,0.8028,0.7893,0.7757,0.7625,0.7625,0.7496,0.7279,0.7143,0.7095,0.7102,0.7224,0.7261,0.7265,0.7346,0.7424,0.7492,0.7492,0.7536,0.76,0.76,0.76,0.76,0.76,0.7553,0.7478,0.7443,0.7322,0.7203,0.6989,0.6922,0.6881,0.6526,0.6346,0.6169,0.5816,0.5636,0.5411,0.5055,0.3939,0.2868,0.242,0.2196,0.2016,0.1703,0.1524,0.13,0.0942,0.0628,0.0309,0.0042,0.0,0.0,0.0,0.0,0.0,0.0,0.0,0.0,0.0,0.0,0.0,0.0,0.0,-0.0039,-0.0157,-0.0589,-0.098,-0.1256,-0.1373,-0.1569,-0.1923,-0.204,-0.2391,-0.3057,-0.3251,-0.372,0.0,0.0,0.0,0.0,0.0,0.0,0.0,0.0,0.0,0.0,0.0,0.0,0.0,0.0,0.0,0.0,0.0,0.0,0.0,1.2918,1.279,1.2619,1.2577,1.2448,1.2229,1.2143,1.21,1.21,1.1757,1.1542,1.1499,1.0679,1.0115,0.9903,0.9375,0.8982,0.8811,0.8763,0.8588,0.8372,0.8328,0.8113,0.768,0.7452,0.7272,0.7187,0.7187,0.7187,0.7228,0.7228,0.7307,0.7427,0.7427,0.7456,0.7519,0.7519,0.7519,0.7519,0.7519,0.7438,0.7333,0.7333,0.7244,0.7095,0.7095,0.7095,0.7051,0.6881,0.6836,0.6748,0.6393,0.626,0.6213,0.5944,0.5277,0.4476,0.3537,0.3314,0.3135,0.2642,0.2195,0.1839,0.157,0.0987,0.0442,0.0212,0.0126,0.0083,0.0039,0.0039,0.0,0.0,0.0,0.0,0.0,0.0,0.0,0.0,0.0,0.0,0.0,0.0,-0.0236,-0.0746,-0.0746,-0.0864,-0.1139,-0.1294,-0.1568,-0.2,-0.2198,-0.2744,0.0,0.0,0.0,0.0,0.0,0.0,0.0,0.0,0.0,0.0,0.0,0.0,0.0,0.0,0.0,0.0,0.0,0.0,0.0,1.3695,1.3561,1.3519,1.3222,1.3009,1.2966,1.2747,1.2619,1.2619,1.2528,1.2448,1.2277,1.1757,1.1327,1.1063,1.0202,0.9772,0.9728,0.9327,0.9104,0.9061,0.889,0.8675,0.846,0.8416,0.8069,0.7459,0.7459,0.7591,0.7808,0.7808,0.769,0.7491,0.7491,0.7368,0.7156,0.7156,0.7156,0.7156,0.7156,0.7142,0.7125,0.7125,0.7112,0.7095,0.7095,0.7095,0.7095,0.7051,0.7051,0.7054,0.6962,0.6966,0.6922,0.6704,0.6571,0.6213,0.528,0.4877,0.4563,0.4119,0.3135,0.233,0.2109,0.148,0.0973,0.089,0.059,0.0331,0.0277,0.0118,0.0,0.0,0.0,0.0,0.0,0.0,0.0,0.0,0.0,0.0,0.0,0.0,-0.0039,-0.0118,-0.0118,-0.0236,-0.0432,-0.0471,-0.0667,-0.11,-0.1335,-0.1805,0.0,0.0,0.0,0.0,0.0,0.0,0.0,0.0,0.0,0.0,0.0,0.0,0.0,0.0,0.0,0.0,0.0,0.0,0.0,0.0,1.3913,1.3913,1.3786,1.3659,1.3659,1.3568,1.3483,1.3483,1.3349,1.3215,1.313,1.2705,1.2363,1.21,1.1585,1.1241,1.1063,1.0885,1.0626,1.0366,0.9763,0.9419,0.9331,0.9065,0.8632,0.8113,0.8241,0.8328,0.846,0.846,0.8372,0.8241,0.7984,0.7804,0.7672,0.7411,0.7323,0.7323,0.7143,0.7095,0.7095,0.7095,0.7095,0.7095,0.7095,0.7095,0.7095,0.7095,0.7095,0.7095,0.7095,0.7095,0.7098,0.701,0.6966,0.6833,0.6435,0.5947,0.5411,0.4832,0.416,0.3535,0.2869,0.242,0.1944,0.1482,0.1261,0.0993,0.0672,0.055,0.0432,0.0196,0.0157,0.0118,0.0,0.0,0.0,0.0,0.0,0.0,0.0,0.0,0.0,0.0,0.0,-0.0039,-0.0118,-0.0118,-0.0275,-0.055,-0.0668,-0.1021,0.0,0.0,0.0,0.0,0.0,0.0,0.0,0.0,0.0,0.0,0.0,0.0,0.0,0.0,0.0,0.0,0.0,0.0,0.0,0.0,1.3861,1.3861,1.3861,1.3861,1.3861,1.3861,1.3861,1.3861,1.3761,1.3668,1.3668,1.3396,1.3179,1.296,1.2711,1.2491,1.2272,1.2229,1.1972,1.1585,1.0852,1.0506,1.0419,1.0062,0.9758,0.9458,0.924,0.924,0.9327,0.9327,0.924,0.9113,0.8767,0.8548,0.8328,0.7896,0.772,0.7635,0.7323,0.7187,0.7187,0.7139,0.7095,0.7095,0.7095,0.7095,0.7095,0.7095,0.7095,0.7095,0.7095,0.7095,0.7095,0.7095,0.7095,0.7095,0.7095,0.6656,0.6083,0.5455,0.5139,0.4694,0.3896,0.3433,0.2983,0.2408,0.209,0.1767,0.1342,0.1178,0.0981,0.0667,0.051,0.0393,0.0236,0.0118,0.0079,0.0079,0.0039,0.0,0.0,0.0,0.0,0.0,0.0,0.0,0.0,0.0,-0.0079,-0.0236,-0.0236,-0.0393,0.0,0.0,0.0,0.0,0.0,0.0,0.0,0.0,0.0,0.0,0.0,0.0,0.0,0.0,0.0,0.0,0.0,0.0,0.0,0.0,0.0,1.3253,1.3253,1.3253,1.3253,1.3253,1.3253,1.3253,1.3467,1.3626,1.3626,1.3635,1.3652,1.3652,1.3264,1.3052,1.3052,1.279,1.2577,1.232,1.2277,1.2149,1.1886,1.188,1.1837,1.1757,1.0419,1.0115,1.0506,1.0506,1.0246,0.9859,0.9816,0.9419,0.8846,0.8544,0.8328,0.8113,0.7635,0.7462,0.7415,0.7187,0.7095,0.7095,0.7095,0.7095,0.7095,0.7095,0.7095,0.7095,0.7095,0.7095,0.7095,0.7095,0.7095,0.7095,0.7095,0.6925,0.6659,0.6387,0.5941,0.5589,0.5327,0.4579,0.4007,0.3998,0.3176,0.2503,0.2439,0.1921,0.1568,0.1528,0.1138,0.0864,0.0864,0.051,0.0275,0.0275,0.0118,0.0,0.0,0.0,0.0,0.0,0.0,0.0,0.0,0.0,0.0,0.0,0.0,-0.0118,0.0,0.0,0.0,0.0,0.0,0.0,0.0,0.0,0.0,0.0,0.0,0.0,0.0,0.0,0.0,0.0,0.0,0.0,0.0,0.0,0.0,1.3213,1.3213,1.3213,1.3213,1.3213,1.3213,1.3213,1.3307,1.3327,1.3327,1.3386,1.3399,1.3399,1.3236,1.324,1.3422,1.3387,1.3307,1.3222,1.2966,1.279,1.2705,1.2534,1.2534,1.2668,1.2186,1.1886,1.1757,1.1757,1.1671,1.1456,1.0982,1.0631,1.0371,0.9637,0.9292,0.9034,0.8548,0.8201,0.7937,0.7848,0.7584,0.737,0.737,0.7231,0.7095,0.7095,0.7095,0.7095,0.7095,0.7095,0.7095,0.7095,0.7095,0.7095,0.7095,0.7054,0.6922,0.67,0.6452,0.6173,0.5785,0.5339,0.493,0.4608,0.4236,0.3859,0.3381,0.3136,0.2782,0.2235,0.204,0.1765,0.1372,0.1099,0.0864,0.0707,0.0393,0.0196,0.0196,0.0079,0.0,0.0,0.0,0.0,0.0,0.0,0.0,0.0,0.0,-0.0039,0.0,0.0,0.0,0.0,0.0,0.0,0.0,0.0,0.0,0.0,0.0,0.0,0.0,0.0,0.0,0.0,0.0,0.0,0.0,0.0,0.0,1.2906,1.2906,1.2906,1.2906,1.2906,1.2906,1.2906,1.2999,0.0,1.3053,1.3153,1.3213,1.3213,1.3213,1.3307,1.3453,1.3622,1.3677,1.3677,1.3522,1.344,1.344,1.3264,1.3264,1.344,1.344,1.3185,1.2753,1.2753,1.2705,1.2583,1.21,1.18,1.1585,1.0809,1.0376,1.0077,0.9462,0.9026,0.8723,0.8504,0.8157,0.7808,0.7768,0.7499,0.7231,0.7231,0.7187,0.7095,0.7095,0.7095,0.7095,0.7095,0.7095,0.7085,0.7038,0.7024,0.6984,0.6853,0.6734,0.6551,0.6208,0.5975,0.5691,0.5315,0.5108,0.4817,0.4357,0.4192,0.388,0.3292,0.3057,0.2784,0.2391,0.1961,0.1609,0.1335,0.0942,0.0707,0.0628,0.0432,0.0314,0.0314,0.0157,0.0118,0.0118,0.0039,0.0,0.0,0.0,0.0,0.0,0.0,0.0,0.0,0.0,0.0,0.0,0.0,0.0,0.0,0.0,0.0,0.0,0.0,0.0,0.0,0.0,0.0,0.0,0.0,0.0,1.2305,1.2305,1.2305,1.2305,1.2305,1.2305,1.2305,1.2603,1.2808,1.2808,1.3019,1.3186,1.3186,1.3193,1.32,1.32,1.3447,1.3586,1.3593,1.3928,1.4068,1.4075,1.4075,1.4082,1.4088,1.4088,1.3828,1.3434,1.3434,1.3307,1.3137,1.3137,1.2839,1.2363,1.1886,1.1585,1.1198,1.0289,0.9946,0.9816,0.9196,0.8759,0.85,0.8285,0.7896,0.7551,0.7507,0.7323,0.7139,0.7095,0.7092,0.7088,0.7088,0.7085,0.7045,0.691,0.6876,0.6873,0.6879,0.68,0.6695,0.6695,0.6407,0.6194,0.6194,0.5717,0.5321,0.5321,0.4971,0.4737,0.4701,0.4192,0.3841,0.3841,0.3059,0.247,0.2275,0.1843,0.1529,0.1335,0.1061,0.0943,0.0904,0.055,0.0314,0.0314,0.0118,0.0,0.0,0.0,0.0,2.0527,0.0,0.0,0.0,0.0,0.0,0.0,0.0,0.0,0.0,0.0,0.0,0.0,0.0,0.0,0.0,0.0,0.0,0.0,0.0,0.0,1.2305,1.2305,1.2305,1.2305,1.2305,1.2305,0.0,1.2378,1.2425,1.2425,1.2505,1.2552,1.2552,1.2766,1.2911,1.2911,1.318,1.3327,1.3327,1.3414,1.3561,1.3726,1.3726,1.3881,1.4088,1.4088,1.4046,1.3913,1.3913,1.387,1.3786,1.361,1.3434,1.3307,1.2881,1.2534,1.2229,1.1843,1.137,1.0895,1.0717,1.0111,0.9467,0.9292,0.8899,0.846,0.8113,0.7937,0.7804,0.7455,0.7155,0.6943,0.6943,0.6859,0.681,0.6773,0.6675,0.663,0.6742,0.6641,0.6536,0.6536,0.6417,0.6283,0.6283,0.6129,0.5944,0.5747,0.5628,0.5473,0.5165,0.4971,0.4776,0.4465,0.3954,0.3563,0.337,0.2666,0.2235,0.2158,0.1804,0.1568,0.1412,0.1139,0.0943,0.0746,0.0236,0.0,0.0,0.0,0.0,0.0,0.0,0.0,0.0,0.0,0.0,1.81,1.736,1.6594,0.0,0.0,0.0,0.0,0.0,0.0,0.0,0.0,0.0,0.0,0.0,0.0,0.0,1.2526,1.2415,1.2415,1.2342,1.2305,1.2305,1.2305,1.2305,1.2305,1.2305,1.2305,1.2305,1.2509,1.2596,1.2596,1.2904,1.3019,1.3019,1.3153,1.326,1.342,1.342,1.358,1.3901,1.3901,1.3975,1.4088,1.4088,1.4088,1.4088,1.3913,1.387,1.3822,1.3483,1.3264,1.3094,1.279,1.2406,1.2015,1.18,1.1241,1.0593,1.0376,0.9854,0.9244,0.8986,0.8582,0.8139,0.7755,0.7289,0.6957,0.6957,0.6805,0.6681,0.662,0.6536,0.6538,0.6586,0.6525,0.6422,0.6422,0.6354,0.63,0.63,0.63,0.6261,0.6099,0.606,0.5983,0.575,0.5631,0.5473,0.5204,0.4849,0.4499,0.4307,0.3761,0.337,0.3292,0.2899,0.2626,0.2508,0.204,0.157,0.1061,0.0432,0.0079,0.0,0.0,0.0,0.0,0.0,0.0,0.0,0.0,0.0,1.8591,1.787,1.7235,1.7038,0.0,0.0,0.0,0.0,0.0,0.0,0.0,0.0,0.0,0.0,0.0,0.0,1.2966,1.2709,1.2709,1.2526,1.2415,1.2415,1.2415,1.2378,1.2342,1.2342,1.2335,1.2305,1.2305,1.2305,1.2305,1.2603,1.2737,1.2737,1.2979,1.3126,1.316,1.316,1.332,1.3553,1.3553,1.37,1.3988,1.3988,1.4028,1.4088,1.4088,1.4088,1.4088,1.3828,1.3737,1.3695,1.3355,1.3179,1.3094,1.2668,1.2235,1.18,1.1542,1.0852,1.0154,1.0048,0.9249,0.8344,0.809,0.7579,0.7121,0.708,0.6905,0.6736,0.6598,0.6527,0.6527,0.6527,0.6385,0.63,0.63,0.63,0.63,0.63,0.63,0.63,0.63,0.63,0.63,0.63,0.6099,0.5941,0.5941,0.5592,0.5279,0.5121,0.489,0.4698,0.4501,0.4153,0.3919,0.3919,0.3057,0.2237,0.1414,0.0707,0.0236,0.0039,0.0039,0.0039,0.0,0.0,0.0,0.0,0.0,0.0,1.9141,1.8447,1.7794,0.0,0.0,0.0,0.0,0.0,0.0,0.0,0.0,0.0,0.0,0.0,0.0,0.0,1.3615,1.3513,1.3346,1.3309,1.3273,1.3273,1.3119,1.2863,1.2562,1.2526,1.2489,1.2305,1.2305,1.2305,1.2305,1.2358,1.2385,1.2392,1.2452,1.2605,1.2878,1.2878,1.3006,1.3293,1.3293,1.3327,1.338,1.338,1.3661,1.4088,1.4088,1.4088,1.4088,1.4039,1.3997,1.3997,1.3913,1.3737,1.3561,1.3476,1.3179,1.2796,1.2491,1.2186,1.1761,1.0927,0.9873,0.8973,0.8767,0.826,0.7761,0.7604,0.7343,0.7079,0.7083,0.6804,0.6567,0.6567,0.6433,0.63,0.63,0.63,0.63,0.63,0.63,0.63,0.63,0.63,0.63,0.63,0.6261,0.6219,0.6219,0.5941,0.5783,0.5744,0.5395,0.5165,0.5126,0.4888,0.4696,0.4543,0.388,0.3136,0.2276,0.1256,0.0589,0.0236,0.0236,0.0157,0.0,0.0,0.0,2.0945,0.0,0.0,0.0,1.8623,1.7974,1.7862,0.0,0.0,0.0,0.0,0.0,0.0,0.0,0.0,0.0,0.0,0.0,0.0,1.4438,1.415,1.4049,1.3912,1.3811,1.3811,1.3622,1.3404,1.3215,1.3112,1.2973,1.2753,1.2746,1.2709,1.2599,1.2709,1.2746,1.2746,1.2746,1.2829,1.3019,1.2907,1.2996,1.3244,1.3128,1.3216,1.3358,1.3246,1.3387,1.3647,1.3647,1.3647,1.3667,1.3814,1.3868,1.3868,1.3868,1.3778,1.3627,1.3482,1.3231,1.2985,1.2855,1.2566,1.2158,1.1413,1.0587,0.9842,0.9602,0.8971,0.8316,0.8238,0.7932,0.7633,0.7518,0.733,0.7173,0.7061,0.6872,0.6644,0.6338,0.63,0.63,0.63,0.63,0.63,0.63,0.63,0.63,0.63,0.63,0.63,0.63,0.618,0.6099,0.6099,0.5906,0.5789,0.5789,0.5589,0.5318,0.501,0.4618,0.4031,0.329,0.2666,0.1804,0.0786,0.0668,0.0432,0.0,0.0,0.0,0.0,0.0,1.9548,0.0,0.0,0.0,0.0,0.0,0.0,0.0,0.0,0.0,0.0,0.0,0.0,0.0,0.0,0.0,0.0,1.5392,1.4958,1.4922,1.4681,1.4517,1.4446,1.4266,1.4114,1.397,1.3804,1.3593,1.3375,1.3375,1.3302,1.3112,1.3302,1.3375,1.3375,1.3375,1.3375,1.3375,1.3156,1.3174,1.3377,1.3144,1.3175,1.3402,1.3182,1.3072,1.3085,1.3166,1.3213,1.324,1.3433,1.352,1.352,1.352,1.352,1.348,1.3287,1.3094,1.2969,1.2969,1.2612,1.2165,1.1802,1.1251,1.07,1.0423,0.9745,0.9079,0.9041,0.8732,0.8389,0.8237,0.8089,0.7936,0.7748,0.7522,0.718,0.657,0.6412,0.6377,0.6377,0.6338,0.63,0.63,0.63,0.63,0.63,0.63,0.63,0.63,0.63,0.63,0.63,0.63,0.63,0.63,0.6099,0.5786,0.5437,0.5237,0.4885,0.4341,0.4112,0.3175,0.1532,0.1256,0.0903,0.0,0.0,0.0,0.0,2.0329,0.0,0.0,0.0,1.8008,1.8008,0.0,0.0,0.0,0.0,0.0,0.0,0.0,0.0,0.0,0.0,0.0,0.0,1.6429,1.6315,1.6132,1.6053,1.5921,1.5621,1.5586,1.5259,1.4537,1.4502,1.433,1.4021,1.3985,1.3985,1.3949,1.3985,1.3985,1.3985,1.3985,1.3985,1.3985,1.3796,1.371,1.3703,1.3353,1.3198,1.3189,1.282,1.2672,1.2682,1.3077,1.3213,1.3213,1.3247,1.326,1.326,1.326,1.326,1.3253,1.322,1.3174,1.3174,1.3174,1.2837,1.2434,1.2415,1.186,1.1266,1.1041,1.0793,1.0513,1.0325,0.9986,0.969,0.9652,0.9084,0.8585,0.8585,0.8241,0.7821,0.7219,0.6795,0.6563,0.6563,0.6412,0.63,0.63,0.63,0.63,0.63,0.63,0.63,0.63,0.63,0.63,0.63,0.63,0.63,0.63,0.6261,0.6138,0.5825,0.5822,0.5589,0.5162,0.4965,0.399,0.2354,0.2157,0.1726,0.0,0.0,0.0,0.0,0.0,0.0,1.8988,0.0,1.8008,0.0,0.0,0.0,0.0,0.0,0.0,0.0,1.8008,0.0,0.0,0.0,0.0,0.0,0.0,0.0,1.6673,1.6638,1.6577,1.6438,1.6333,1.6105,1.5781,1.5666,1.5428,1.5089,1.5089,1.4982,1.474,1.4982,1.5089,1.5089,1.5089,1.5089,1.5089,1.4768,1.4625,1.4589,1.4186,1.3941,1.3804,1.3302,1.3046,1.2921,1.2893,1.2761,1.2705,1.2918,1.2985,1.2985,1.2985,1.2985,1.2951,1.2739,1.2685,1.2685,1.2685,1.2523,1.2386,1.2373,1.21,1.1744,1.1632,1.1409,1.1149,1.1037,1.0812,1.055,1.0443,1.0175,0.9868,0.976,0.942,0.9079,0.8818,0.794,0.7249,0.7138,0.7065,0.6988,0.6988,0.6988,0.6949,0.6837,0.6837,0.6721,0.649,0.649,0.6412,0.63,0.63,0.63,0.63,0.63,0.6261,0.6141,0.6141,0.5983,0.5628,0.555,0.5043,0.4109,0.3448,0.2705,2.4057,0.0,0.0,0.0,0.0,0.0,0.0,0.0,0.0,0.0,0.0,0.0,0.0,0.0,0.0,0.0,0.0,1.8076,0.0,0.0,0.0,0.0,0.0,0.0,0.0,1.7185,1.7176,1.7107,1.6994,1.6846,1.6777,1.6629,1.642,1.6123,1.6079,1.5974,1.5665,1.5947,1.6079,1.6079,1.6079,1.6079,1.6088,1.5727,1.5586,1.5551,1.5108,1.4867,1.4661,1.4057,1.3666,1.3448,1.301,1.2709,1.2553,1.262,1.2663,1.2663,1.2663,1.2663,1.2623,1.2371,1.2305,1.2305,1.2305,1.2305,1.2305,1.2305,1.2194,1.2077,1.2077,1.1855,1.1632,1.1632,1.1484,1.1298,1.1149,1.1037,1.0925,1.0775,1.0481,1.0218,1.0143,0.8965,0.8012,0.7863,0.7748,0.7672,0.7672,0.7672,0.7595,0.7446,0.7407,0.7215,0.6868,0.6753,0.6563,0.63,0.63,0.63,0.63,0.63,0.63,0.63,0.63,0.6219,0.6018,0.6018,0.5825,0.5437,0.454,0.3682,0.0,0.0,0.0,2.2317,0.0,0.0,0.0,0.0,1.8482,0.0,0.0,0.0,0.0,0.0,0.0,1.8448,0.0,0.0,0.0,0.0,0.0,0.0,0.0,0.0,0.0,1.7974,1.7862,0.0,1.7672,1.7535,1.7201,1.7166,1.7072,1.6874,1.6874,1.6874,1.6839,1.6874,1.6874,1.6874,1.6874,1.6874,1.6874,1.6647,1.6568,1.6533,1.6009,1.5762,1.5692,1.4895,1.4438,1.4194,1.3674,1.3346,1.309,1.2539,1.2318,1.2318,1.2318,1.2318,1.2311,1.2305,1.2305,1.2305,1.2305,1.2305,1.2305,1.2305,1.2305,1.2298,1.2298,1.2268,1.2268,1.2268,1.2114,1.1966,1.1966,1.1669,1.1372,1.1372,1.1186,1.0999,1.0812,0.9604,0.8665,0.8665,0.8313,0.8084,0.8084,0.8084,0.8084,0.8084,0.7897,0.7706,0.7484,0.7096,0.6714,0.6338,0.63,0.63,0.63,0.63,0.63,0.63,0.63,0.63,0.63,0.63,0.6141,0.586,0.5237,0.4652,2.496,2.4078,2.3173,2.2327,0.0,0.0,0.0,0.0,0.0,0.0,0.0,0.0,0.0,0.0,0.0,0.0,0.0,0.0,0.0,0.0,0.0,0.0,0.0,0.0,0.0,0.0,0.0,0.0,1.7896,1.7862,1.7725,1.7735,1.7623,1.7442,1.7442,1.7382,1.7298,1.7382,1.7442,1.7442,1.7442,1.7442,1.7407,1.7279,1.7185,1.7176,1.6855,1.6647,1.6473,1.5789,1.5436,1.5232,1.451,1.4122,1.3804,1.2849,1.2489,1.2489,1.2342,1.2305,1.2305,1.2305,1.2305,1.2305,1.2305,1.2305,1.2305,1.2305,1.2305,1.2305,1.2305,1.2305,1.2305,1.2305,1.2268,1.2187,1.2187,1.2077,1.2003,1.2003,1.1818,1.1669,1.1595,1.0993,1.0357,0.9949,0.9755,0.9679,0.9679,0.9679,0.9566,0.9306,0.9122,0.8742,0.8131,0.7484,0.7026,0.6914,0.6644,0.6486,0.6486,0.6377,0.63,0.63,0.63,0.63,0.63,0.63,0.6261,0.618,0.5944,0.5515,2.52,2.4335,2.3493,2.2696,2.1631,0.0,2.0581,0.0,1.9737,0.0,0.0,0.0,0.0,0.0,0.0,0.0,0.0,0.0,0.0,1.8841,0.0,0.0,0.0,0.0,0.0,0.0,0.0,1.811,1.811,1.8076,1.8008,1.8008,1.794,1.7818,1.7818,1.7759,1.7676,1.7759,1.7818,1.7818,1.7818,1.7818,1.7784,1.7735,1.7676,1.7676,1.7476,1.7304,1.7141,1.6647,1.6324,1.6114,1.5401,1.5002,1.4697,1.347,1.2929,1.279,1.2673,1.2526,1.2415,1.2415,1.2378,1.2305,1.2305,1.2305,1.2305,1.2305,1.2305,1.2305,1.2305,1.2305,1.2305,1.2305,1.2305,1.2305,1.2305,1.2305,1.2305,1.2305,1.2187,1.2114,1.2114,1.1892,1.1521,1.0925,1.0775,1.07,1.07,1.07,1.0625,1.0368,1.0067,0.9576,0.8703,0.8059,0.7638,0.7407,0.7099,0.6868,0.6714,0.6525,0.6377,0.63,0.63,0.63,0.63,0.63,0.63,0.63,0.63,0.6064]}]]